<?xml version="1.0" encoding="UTF-8" standalone="no" ?>
<gpx xmlns="http://www.topografix.com/GPX/1/1" xmlns:xsi="http://www.w3.org/2001/XMLSchema-instance" xsi:schemaLocation="http://www.topografix.com/GPX/1/1 http://www.topografix.com/GPX/1/1/gpx.xsd" version="1.1" creator="VisuGPX - https://www.visugpx.com">
  <metadata>
    <name>2019-05-17 14:12:28</name>
    <desc><![CDATA[

]]></desc>
  </metadata>
  <trk>
    <name><![CDATA[2019-05-17 14:12:28]]></name>
    <trkseg>
      <trkpt lat="39.62691" lon="-8.67065">
        <ele>349.58</ele>
        <time>2019-05-17T06:56:25Z</time>
      </trkpt>
      <trkpt lat="39.62692" lon="-8.67065">
        <ele>349.58</ele>
        <time>2019-05-17T06:56:26Z</time>
      </trkpt>
      <trkpt lat="39.62694" lon="-8.67063">
        <ele>349.58</ele>
        <time>2019-05-17T06:56:37Z</time>
      </trkpt>
      <trkpt lat="39.62697" lon="-8.67067">
        <ele>349.58</ele>
        <time>2019-05-17T06:56:49Z</time>
      </trkpt>
      <trkpt lat="39.627" lon="-8.67074">
        <ele>349.1</ele>
        <time>2019-05-17T06:56:58Z</time>
      </trkpt>
      <trkpt lat="39.62698" lon="-8.67079">
        <ele>348.62</ele>
        <time>2019-05-17T06:57:04Z</time>
      </trkpt>
      <trkpt lat="39.62697" lon="-8.67087">
        <ele>348.62</ele>
        <time>2019-05-17T06:57:12Z</time>
      </trkpt>
      <trkpt lat="39.62697" lon="-8.67104">
        <ele>347.65</ele>
        <time>2019-05-17T06:57:26Z</time>
      </trkpt>
      <trkpt lat="39.62697" lon="-8.67121">
        <ele>347.65</ele>
        <time>2019-05-17T06:57:39Z</time>
      </trkpt>
      <trkpt lat="39.62697" lon="-8.67126">
        <ele>347.17</ele>
        <time>2019-05-17T06:57:43Z</time>
      </trkpt>
      <trkpt lat="39.62694" lon="-8.67132">
        <ele>347.17</ele>
        <time>2019-05-17T06:57:49Z</time>
      </trkpt>
      <trkpt lat="39.62688" lon="-8.67146">
        <ele>347.17</ele>
        <time>2019-05-17T06:58:02Z</time>
      </trkpt>
      <trkpt lat="39.62689" lon="-8.67147">
        <ele>347.17</ele>
        <time>2019-05-17T06:58:03Z</time>
      </trkpt>
      <trkpt lat="39.62686" lon="-8.67167">
        <ele>347.65</ele>
        <time>2019-05-17T06:58:19Z</time>
      </trkpt>
      <trkpt lat="39.62683" lon="-8.67184">
        <ele>347.65</ele>
        <time>2019-05-17T06:58:33Z</time>
      </trkpt>
      <trkpt lat="39.6268" lon="-8.67196">
        <ele>348.13</ele>
        <time>2019-05-17T06:58:44Z</time>
      </trkpt>
      <trkpt lat="39.62677" lon="-8.6721">
        <ele>348.62</ele>
        <time>2019-05-17T06:58:59Z</time>
      </trkpt>
      <trkpt lat="39.62673" lon="-8.67224">
        <ele>349.1</ele>
        <time>2019-05-17T06:59:11Z</time>
      </trkpt>
      <trkpt lat="39.62672" lon="-8.67227">
        <ele>349.58</ele>
        <time>2019-05-17T06:59:13Z</time>
      </trkpt>
      <trkpt lat="39.62671" lon="-8.6723">
        <ele>349.58</ele>
        <time>2019-05-17T06:59:15Z</time>
      </trkpt>
      <trkpt lat="39.62667" lon="-8.67245">
        <ele>349.58</ele>
        <time>2019-05-17T06:59:25Z</time>
      </trkpt>
      <trkpt lat="39.62666" lon="-8.67252">
        <ele>349.58</ele>
        <time>2019-05-17T06:59:29Z</time>
      </trkpt>
      <trkpt lat="39.62661" lon="-8.67276">
        <ele>350.54</ele>
        <time>2019-05-17T06:59:44Z</time>
      </trkpt>
      <trkpt lat="39.62656" lon="-8.67293">
        <ele>350.54</ele>
        <time>2019-05-17T06:59:58Z</time>
      </trkpt>
      <trkpt lat="39.62657" lon="-8.673">
        <ele>351.02</ele>
        <time>2019-05-17T07:00:02Z</time>
      </trkpt>
      <trkpt lat="39.6266" lon="-8.67327">
        <ele>351.5</ele>
        <time>2019-05-17T07:00:18Z</time>
      </trkpt>
      <trkpt lat="39.62663" lon="-8.67342">
        <ele>351.98</ele>
        <time>2019-05-17T07:00:26Z</time>
      </trkpt>
      <trkpt lat="39.62665" lon="-8.67345">
        <ele>351.98</ele>
        <time>2019-05-17T07:00:28Z</time>
      </trkpt>
      <trkpt lat="39.62667" lon="-8.6735">
        <ele>351.02</ele>
        <time>2019-05-17T07:00:31Z</time>
      </trkpt>
      <trkpt lat="39.62669" lon="-8.67352">
        <ele>351.5</ele>
        <time>2019-05-17T07:00:33Z</time>
      </trkpt>
      <trkpt lat="39.62676" lon="-8.67373">
        <ele>352.46</ele>
        <time>2019-05-17T07:00:46Z</time>
      </trkpt>
      <trkpt lat="39.62686" lon="-8.67393">
        <ele>352.94</ele>
        <time>2019-05-17T07:00:58Z</time>
      </trkpt>
      <trkpt lat="39.62693" lon="-8.67403">
        <ele>352.94</ele>
        <time>2019-05-17T07:01:11Z</time>
      </trkpt>
      <trkpt lat="39.62696" lon="-8.67407">
        <ele>353.9</ele>
        <time>2019-05-17T07:01:19Z</time>
      </trkpt>
      <trkpt lat="39.62699" lon="-8.67413">
        <ele>353.9</ele>
        <time>2019-05-17T07:01:24Z</time>
      </trkpt>
      <trkpt lat="39.62702" lon="-8.67414">
        <ele>354.38</ele>
        <time>2019-05-17T07:01:27Z</time>
      </trkpt>
      <trkpt lat="39.6271" lon="-8.67426">
        <ele>353.9</ele>
        <time>2019-05-17T07:01:37Z</time>
      </trkpt>
      <trkpt lat="39.62716" lon="-8.67436">
        <ele>354.86</ele>
        <time>2019-05-17T07:01:46Z</time>
      </trkpt>
      <trkpt lat="39.62725" lon="-8.67451">
        <ele>355.34</ele>
        <time>2019-05-17T07:01:58Z</time>
      </trkpt>
      <trkpt lat="39.62731" lon="-8.6746">
        <ele>353.9</ele>
        <time>2019-05-17T07:02:05Z</time>
      </trkpt>
      <trkpt lat="39.62733" lon="-8.67462">
        <ele>353.9</ele>
        <time>2019-05-17T07:02:07Z</time>
      </trkpt>
      <trkpt lat="39.62735" lon="-8.67466">
        <ele>353.9</ele>
        <time>2019-05-17T07:02:10Z</time>
      </trkpt>
      <trkpt lat="39.62741" lon="-8.67476">
        <ele>354.86</ele>
        <time>2019-05-17T07:02:24Z</time>
      </trkpt>
      <trkpt lat="39.62748" lon="-8.6749">
        <ele>354.86</ele>
        <time>2019-05-17T07:02:42Z</time>
      </trkpt>
      <trkpt lat="39.62753" lon="-8.67498">
        <ele>355.83</ele>
        <time>2019-05-17T07:02:48Z</time>
      </trkpt>
      <trkpt lat="39.62764" lon="-8.67508">
        <ele>354.38</ele>
        <time>2019-05-17T07:03:03Z</time>
      </trkpt>
      <trkpt lat="39.6277" lon="-8.67518">
        <ele>354.86</ele>
        <time>2019-05-17T07:03:18Z</time>
      </trkpt>
      <trkpt lat="39.62793" lon="-8.67526">
        <ele>354.38</ele>
        <time>2019-05-17T07:03:31Z</time>
      </trkpt>
      <trkpt lat="39.62801" lon="-8.67541">
        <ele>354.86</ele>
        <time>2019-05-17T07:03:44Z</time>
      </trkpt>
      <trkpt lat="39.62806" lon="-8.67549">
        <ele>354.86</ele>
        <time>2019-05-17T07:03:51Z</time>
      </trkpt>
      <trkpt lat="39.62808" lon="-8.67551">
        <ele>354.38</ele>
        <time>2019-05-17T07:03:53Z</time>
      </trkpt>
      <trkpt lat="39.6282" lon="-8.67546">
        <ele>354.38</ele>
        <time>2019-05-17T07:04:04Z</time>
      </trkpt>
      <trkpt lat="39.62828" lon="-8.67536">
        <ele>354.86</ele>
        <time>2019-05-17T07:04:13Z</time>
      </trkpt>
      <trkpt lat="39.62838" lon="-8.67522">
        <ele>354.86</ele>
        <time>2019-05-17T07:04:26Z</time>
      </trkpt>
      <trkpt lat="39.62856" lon="-8.6752">
        <ele>353.9</ele>
        <time>2019-05-17T07:04:43Z</time>
      </trkpt>
      <trkpt lat="39.6286" lon="-8.67517">
        <ele>352.94</ele>
        <time>2019-05-17T07:04:48Z</time>
      </trkpt>
      <trkpt lat="39.62875" lon="-8.67503">
        <ele>352.94</ele>
        <time>2019-05-17T07:05:03Z</time>
      </trkpt>
      <trkpt lat="39.62883" lon="-8.67493">
        <ele>352.94</ele>
        <time>2019-05-17T07:05:15Z</time>
      </trkpt>
      <trkpt lat="39.62888" lon="-8.67486">
        <ele>352.94</ele>
        <time>2019-05-17T07:05:22Z</time>
      </trkpt>
      <trkpt lat="39.62913" lon="-8.67472">
        <ele>353.42</ele>
        <time>2019-05-17T07:05:36Z</time>
      </trkpt>
      <trkpt lat="39.62934" lon="-8.67458">
        <ele>354.38</ele>
        <time>2019-05-17T07:05:52Z</time>
      </trkpt>
      <trkpt lat="39.62948" lon="-8.67444">
        <ele>355.34</ele>
        <time>2019-05-17T07:06:08Z</time>
      </trkpt>
      <trkpt lat="39.62957" lon="-8.67434">
        <ele>355.83</ele>
        <time>2019-05-17T07:06:20Z</time>
      </trkpt>
      <trkpt lat="39.62966" lon="-8.67427">
        <ele>355.83</ele>
        <time>2019-05-17T07:06:34Z</time>
      </trkpt>
      <trkpt lat="39.6298" lon="-8.67418">
        <ele>356.79</ele>
        <time>2019-05-17T07:06:52Z</time>
      </trkpt>
      <trkpt lat="39.62985" lon="-8.6741">
        <ele>358.71</ele>
        <time>2019-05-17T07:07:08Z</time>
      </trkpt>
      <trkpt lat="39.62989" lon="-8.67408">
        <ele>357.27</ele>
        <time>2019-05-17T07:07:26Z</time>
      </trkpt>
      <trkpt lat="39.62992" lon="-8.67402">
        <ele>355.83</ele>
        <time>2019-05-17T07:07:39Z</time>
      </trkpt>
      <trkpt lat="39.62994" lon="-8.674">
        <ele>356.31</ele>
        <time>2019-05-17T07:07:41Z</time>
      </trkpt>
      <trkpt lat="39.62995" lon="-8.67397">
        <ele>356.31</ele>
        <time>2019-05-17T07:07:43Z</time>
      </trkpt>
      <trkpt lat="39.63002" lon="-8.67385">
        <ele>355.83</ele>
        <time>2019-05-17T07:07:53Z</time>
      </trkpt>
      <trkpt lat="39.63003" lon="-8.67378">
        <ele>355.83</ele>
        <time>2019-05-17T07:08:08Z</time>
      </trkpt>
      <trkpt lat="39.63005" lon="-8.67373">
        <ele>355.83</ele>
        <time>2019-05-17T07:08:12Z</time>
      </trkpt>
      <trkpt lat="39.63016" lon="-8.67354">
        <ele>354.38</ele>
        <time>2019-05-17T07:08:28Z</time>
      </trkpt>
      <trkpt lat="39.6303" lon="-8.67333">
        <ele>353.9</ele>
        <time>2019-05-17T07:08:45Z</time>
      </trkpt>
      <trkpt lat="39.63042" lon="-8.67315">
        <ele>351.98</ele>
        <time>2019-05-17T07:09:00Z</time>
      </trkpt>
      <trkpt lat="39.63048" lon="-8.67305">
        <ele>352.94</ele>
        <time>2019-05-17T07:09:08Z</time>
      </trkpt>
      <trkpt lat="39.63057" lon="-8.6729">
        <ele>351.5</ele>
        <time>2019-05-17T07:09:20Z</time>
      </trkpt>
      <trkpt lat="39.63071" lon="-8.67271">
        <ele>351.5</ele>
        <time>2019-05-17T07:09:35Z</time>
      </trkpt>
      <trkpt lat="39.63075" lon="-8.67265">
        <ele>351.5</ele>
        <time>2019-05-17T07:09:40Z</time>
      </trkpt>
      <trkpt lat="39.63087" lon="-8.67248">
        <ele>351.98</ele>
        <time>2019-05-17T07:09:55Z</time>
      </trkpt>
      <trkpt lat="39.631" lon="-8.67229">
        <ele>351.5</ele>
        <time>2019-05-17T07:10:10Z</time>
      </trkpt>
      <trkpt lat="39.63107" lon="-8.67216">
        <ele>351.5</ele>
        <time>2019-05-17T07:10:21Z</time>
      </trkpt>
      <trkpt lat="39.63109" lon="-8.67213">
        <ele>353.42</ele>
        <time>2019-05-17T07:10:34Z</time>
      </trkpt>
      <trkpt lat="39.63109" lon="-8.67212">
        <ele>351.5</ele>
        <time>2019-05-17T07:10:36Z</time>
      </trkpt>
      <trkpt lat="39.6311" lon="-8.67212">
        <ele>354.38</ele>
        <time>2019-05-17T07:10:37Z</time>
      </trkpt>
      <trkpt lat="39.63107" lon="-8.67207">
        <ele>356.79</ele>
        <time>2019-05-17T07:10:46Z</time>
      </trkpt>
      <trkpt lat="39.63106" lon="-8.67197">
        <ele>356.31</ele>
        <time>2019-05-17T07:10:59Z</time>
      </trkpt>
      <trkpt lat="39.63108" lon="-8.67197">
        <ele>355.34</ele>
        <time>2019-05-17T07:11:02Z</time>
      </trkpt>
      <trkpt lat="39.63109" lon="-8.672">
        <ele>357.27</ele>
        <time>2019-05-17T07:11:07Z</time>
      </trkpt>
      <trkpt lat="39.63111" lon="-8.67198">
        <ele>357.75</ele>
        <time>2019-05-17T07:11:13Z</time>
      </trkpt>
      <trkpt lat="39.63114" lon="-8.67193">
        <ele>355.83</ele>
        <time>2019-05-17T07:11:16Z</time>
      </trkpt>
      <trkpt lat="39.63122" lon="-8.67184">
        <ele>355.83</ele>
        <time>2019-05-17T07:11:28Z</time>
      </trkpt>
      <trkpt lat="39.63139" lon="-8.67183">
        <ele>355.34</ele>
        <time>2019-05-17T07:11:41Z</time>
      </trkpt>
      <trkpt lat="39.6314" lon="-8.67187">
        <ele>355.34</ele>
        <time>2019-05-17T07:11:45Z</time>
      </trkpt>
      <trkpt lat="39.63131" lon="-8.6719">
        <ele>354.38</ele>
        <time>2019-05-17T07:11:51Z</time>
      </trkpt>
      <trkpt lat="39.63122" lon="-8.67193">
        <ele>353.42</ele>
        <time>2019-05-17T07:12:03Z</time>
      </trkpt>
      <trkpt lat="39.63125" lon="-8.67197">
        <ele>352.94</ele>
        <time>2019-05-17T07:12:09Z</time>
      </trkpt>
      <trkpt lat="39.63116" lon="-8.672">
        <ele>352.94</ele>
        <time>2019-05-17T07:12:18Z</time>
      </trkpt>
      <trkpt lat="39.63112" lon="-8.67195">
        <ele>354.86</ele>
        <time>2019-05-17T07:12:23Z</time>
      </trkpt>
      <trkpt lat="39.63109" lon="-8.67188">
        <ele>354.38</ele>
        <time>2019-05-17T07:12:27Z</time>
      </trkpt>
      <trkpt lat="39.63105" lon="-8.6717">
        <ele>354.38</ele>
        <time>2019-05-17T07:12:41Z</time>
      </trkpt>
      <trkpt lat="39.63105" lon="-8.67164">
        <ele>353.9</ele>
        <time>2019-05-17T07:12:47Z</time>
      </trkpt>
      <trkpt lat="39.63116" lon="-8.67151">
        <ele>355.34</ele>
        <time>2019-05-17T07:13:02Z</time>
      </trkpt>
      <trkpt lat="39.63117" lon="-8.6715">
        <ele>355.34</ele>
        <time>2019-05-17T07:13:03Z</time>
      </trkpt>
      <trkpt lat="39.63121" lon="-8.67152">
        <ele>354.86</ele>
        <time>2019-05-17T07:13:16Z</time>
      </trkpt>
      <trkpt lat="39.63106" lon="-8.67165">
        <ele>353.9</ele>
        <time>2019-05-17T07:13:32Z</time>
      </trkpt>
      <trkpt lat="39.63096" lon="-8.67174">
        <ele>354.38</ele>
        <time>2019-05-17T07:13:41Z</time>
      </trkpt>
      <trkpt lat="39.63088" lon="-8.67175">
        <ele>353.9</ele>
        <time>2019-05-17T07:13:46Z</time>
      </trkpt>
      <trkpt lat="39.63088" lon="-8.67154">
        <ele>355.83</ele>
        <time>2019-05-17T07:14:00Z</time>
      </trkpt>
      <trkpt lat="39.63098" lon="-8.67139">
        <ele>356.79</ele>
        <time>2019-05-17T07:14:15Z</time>
      </trkpt>
      <trkpt lat="39.6311" lon="-8.67124">
        <ele>359.67</ele>
        <time>2019-05-17T07:14:32Z</time>
      </trkpt>
      <trkpt lat="39.63116" lon="-8.67115">
        <ele>360.63</ele>
        <time>2019-05-17T07:14:40Z</time>
      </trkpt>
      <trkpt lat="39.63124" lon="-8.67106">
        <ele>361.11</ele>
        <time>2019-05-17T07:14:52Z</time>
      </trkpt>
      <trkpt lat="39.63135" lon="-8.67093">
        <ele>361.59</ele>
        <time>2019-05-17T07:15:06Z</time>
      </trkpt>
      <trkpt lat="39.6314" lon="-8.67088">
        <ele>361.59</ele>
        <time>2019-05-17T07:15:11Z</time>
      </trkpt>
      <trkpt lat="39.63153" lon="-8.67086">
        <ele>361.59</ele>
        <time>2019-05-17T07:15:24Z</time>
      </trkpt>
      <trkpt lat="39.63154" lon="-8.67086">
        <ele>361.59</ele>
        <time>2019-05-17T07:15:25Z</time>
      </trkpt>
      <trkpt lat="39.63171" lon="-8.67084">
        <ele>362.55</ele>
        <time>2019-05-17T07:15:41Z</time>
      </trkpt>
      <trkpt lat="39.63177" lon="-8.67082">
        <ele>363.04</ele>
        <time>2019-05-17T07:15:46Z</time>
      </trkpt>
      <trkpt lat="39.63188" lon="-8.67077">
        <ele>363.04</ele>
        <time>2019-05-17T07:15:54Z</time>
      </trkpt>
      <trkpt lat="39.63191" lon="-8.67074">
        <ele>362.55</ele>
        <time>2019-05-17T07:15:57Z</time>
      </trkpt>
      <trkpt lat="39.63194" lon="-8.67068">
        <ele>363.04</ele>
        <time>2019-05-17T07:16:02Z</time>
      </trkpt>
      <trkpt lat="39.63205" lon="-8.67055">
        <ele>363.52</ele>
        <time>2019-05-17T07:16:15Z</time>
      </trkpt>
      <trkpt lat="39.63215" lon="-8.67044">
        <ele>363.52</ele>
        <time>2019-05-17T07:16:27Z</time>
      </trkpt>
      <trkpt lat="39.63228" lon="-8.67033">
        <ele>364.96</ele>
        <time>2019-05-17T07:16:39Z</time>
      </trkpt>
      <trkpt lat="39.63233" lon="-8.67031">
        <ele>364.96</ele>
        <time>2019-05-17T07:16:43Z</time>
      </trkpt>
      <trkpt lat="39.63249" lon="-8.67025">
        <ele>364.48</ele>
        <time>2019-05-17T07:16:57Z</time>
      </trkpt>
      <trkpt lat="39.63259" lon="-8.67023">
        <ele>365.92</ele>
        <time>2019-05-17T07:17:10Z</time>
      </trkpt>
      <trkpt lat="39.6328" lon="-8.67024">
        <ele>365.92</ele>
        <time>2019-05-17T07:17:27Z</time>
      </trkpt>
      <trkpt lat="39.63285" lon="-8.67025">
        <ele>366.4</ele>
        <time>2019-05-17T07:17:33Z</time>
      </trkpt>
      <trkpt lat="39.633" lon="-8.67034">
        <ele>364.48</ele>
        <time>2019-05-17T07:17:47Z</time>
      </trkpt>
      <trkpt lat="39.63305" lon="-8.67038">
        <ele>364</ele>
        <time>2019-05-17T07:17:53Z</time>
      </trkpt>
      <trkpt lat="39.63322" lon="-8.67027">
        <ele>364</ele>
        <time>2019-05-17T07:18:09Z</time>
      </trkpt>
      <trkpt lat="39.63339" lon="-8.67019">
        <ele>363.52</ele>
        <time>2019-05-17T07:18:23Z</time>
      </trkpt>
      <trkpt lat="39.6334" lon="-8.67019">
        <ele>363.52</ele>
        <time>2019-05-17T07:18:38Z</time>
      </trkpt>
      <trkpt lat="39.63345" lon="-8.67015">
        <ele>363.52</ele>
        <time>2019-05-17T07:18:43Z</time>
      </trkpt>
      <trkpt lat="39.63351" lon="-8.67009">
        <ele>362.55</ele>
        <time>2019-05-17T07:18:48Z</time>
      </trkpt>
      <trkpt lat="39.63361" lon="-8.6699">
        <ele>363.52</ele>
        <time>2019-05-17T07:19:03Z</time>
      </trkpt>
      <trkpt lat="39.63376" lon="-8.66979">
        <ele>362.07</ele>
        <time>2019-05-17T07:19:16Z</time>
      </trkpt>
      <trkpt lat="39.63389" lon="-8.66964">
        <ele>361.59</ele>
        <time>2019-05-17T07:19:32Z</time>
      </trkpt>
      <trkpt lat="39.63404" lon="-8.66944">
        <ele>360.63</ele>
        <time>2019-05-17T07:19:48Z</time>
      </trkpt>
      <trkpt lat="39.63409" lon="-8.66936">
        <ele>360.63</ele>
        <time>2019-05-17T07:19:55Z</time>
      </trkpt>
      <trkpt lat="39.63422" lon="-8.66928">
        <ele>361.11</ele>
        <time>2019-05-17T07:20:06Z</time>
      </trkpt>
      <trkpt lat="39.63432" lon="-8.66916">
        <ele>361.59</ele>
        <time>2019-05-17T07:20:17Z</time>
      </trkpt>
      <trkpt lat="39.63445" lon="-8.66897">
        <ele>361.59</ele>
        <time>2019-05-17T07:20:32Z</time>
      </trkpt>
      <trkpt lat="39.63445" lon="-8.66897">
        <ele>360.63</ele>
        <time>2019-05-17T07:20:34Z</time>
      </trkpt>
      <trkpt lat="39.63453" lon="-8.66885">
        <ele>362.07</ele>
        <time>2019-05-17T07:20:44Z</time>
      </trkpt>
      <trkpt lat="39.6346" lon="-8.66877">
        <ele>361.11</ele>
        <time>2019-05-17T07:20:52Z</time>
      </trkpt>
      <trkpt lat="39.63469" lon="-8.66875">
        <ele>361.59</ele>
        <time>2019-05-17T07:21:04Z</time>
      </trkpt>
      <trkpt lat="39.63477" lon="-8.66869">
        <ele>361.59</ele>
        <time>2019-05-17T07:21:13Z</time>
      </trkpt>
      <trkpt lat="39.63486" lon="-8.66873">
        <ele>361.59</ele>
        <time>2019-05-17T07:21:21Z</time>
      </trkpt>
      <trkpt lat="39.6349" lon="-8.66877">
        <ele>361.59</ele>
        <time>2019-05-17T07:21:27Z</time>
      </trkpt>
      <trkpt lat="39.63492" lon="-8.66879">
        <ele>361.59</ele>
        <time>2019-05-17T07:21:29Z</time>
      </trkpt>
      <trkpt lat="39.63497" lon="-8.66882">
        <ele>361.59</ele>
        <time>2019-05-17T07:21:34Z</time>
      </trkpt>
      <trkpt lat="39.63509" lon="-8.66889">
        <ele>361.59</ele>
        <time>2019-05-17T07:21:46Z</time>
      </trkpt>
      <trkpt lat="39.63515" lon="-8.6689">
        <ele>362.55</ele>
        <time>2019-05-17T07:21:52Z</time>
      </trkpt>
      <trkpt lat="39.63521" lon="-8.66893">
        <ele>363.04</ele>
        <time>2019-05-17T07:21:57Z</time>
      </trkpt>
      <trkpt lat="39.63534" lon="-8.66901">
        <ele>363.52</ele>
        <time>2019-05-17T07:22:10Z</time>
      </trkpt>
      <trkpt lat="39.63539" lon="-8.66905">
        <ele>364</ele>
        <time>2019-05-17T07:22:16Z</time>
      </trkpt>
      <trkpt lat="39.63542" lon="-8.6691">
        <ele>363.52</ele>
        <time>2019-05-17T07:22:19Z</time>
      </trkpt>
      <trkpt lat="39.63552" lon="-8.66929">
        <ele>364.48</ele>
        <time>2019-05-17T07:22:33Z</time>
      </trkpt>
      <trkpt lat="39.63562" lon="-8.66948">
        <ele>364.96</ele>
        <time>2019-05-17T07:22:48Z</time>
      </trkpt>
      <trkpt lat="39.63575" lon="-8.66957">
        <ele>366.4</ele>
        <time>2019-05-17T07:23:03Z</time>
      </trkpt>
      <trkpt lat="39.63577" lon="-8.66959">
        <ele>366.88</ele>
        <time>2019-05-17T07:23:05Z</time>
      </trkpt>
      <trkpt lat="39.63588" lon="-8.66971">
        <ele>367.36</ele>
        <time>2019-05-17T07:23:18Z</time>
      </trkpt>
      <trkpt lat="39.63605" lon="-8.66982">
        <ele>368.8</ele>
        <time>2019-05-17T07:23:35Z</time>
      </trkpt>
      <trkpt lat="39.63619" lon="-8.66991">
        <ele>369.76</ele>
        <time>2019-05-17T07:23:50Z</time>
      </trkpt>
      <trkpt lat="39.63636" lon="-8.67">
        <ele>371.21</ele>
        <time>2019-05-17T07:24:07Z</time>
      </trkpt>
      <trkpt lat="39.63642" lon="-8.67002">
        <ele>372.17</ele>
        <time>2019-05-17T07:24:22Z</time>
      </trkpt>
      <trkpt lat="39.63643" lon="-8.67004">
        <ele>370.73</ele>
        <time>2019-05-17T07:24:24Z</time>
      </trkpt>
      <trkpt lat="39.63641" lon="-8.67003">
        <ele>372.65</ele>
        <time>2019-05-17T07:24:26Z</time>
      </trkpt>
      <trkpt lat="39.63645" lon="-8.67005">
        <ele>371.21</ele>
        <time>2019-05-17T07:24:35Z</time>
      </trkpt>
      <trkpt lat="39.63659" lon="-8.6701">
        <ele>371.21</ele>
        <time>2019-05-17T07:24:50Z</time>
      </trkpt>
      <trkpt lat="39.6366" lon="-8.6701">
        <ele>371.21</ele>
        <time>2019-05-17T07:24:51Z</time>
      </trkpt>
      <trkpt lat="39.6367" lon="-8.67014">
        <ele>373.13</ele>
        <time>2019-05-17T07:25:04Z</time>
      </trkpt>
      <trkpt lat="39.63688" lon="-8.67018">
        <ele>374.09</ele>
        <time>2019-05-17T07:25:20Z</time>
      </trkpt>
      <trkpt lat="39.63708" lon="-8.67021">
        <ele>373.61</ele>
        <time>2019-05-17T07:25:36Z</time>
      </trkpt>
      <trkpt lat="39.63725" lon="-8.67025">
        <ele>376.01</ele>
        <time>2019-05-17T07:25:51Z</time>
      </trkpt>
      <trkpt lat="39.6374" lon="-8.67031">
        <ele>376.49</ele>
        <time>2019-05-17T07:26:06Z</time>
      </trkpt>
      <trkpt lat="39.63743" lon="-8.67033">
        <ele>376.49</ele>
        <time>2019-05-17T07:26:10Z</time>
      </trkpt>
      <trkpt lat="39.63753" lon="-8.67037">
        <ele>376.97</ele>
        <time>2019-05-17T07:26:20Z</time>
      </trkpt>
      <trkpt lat="39.63761" lon="-8.67045">
        <ele>377.45</ele>
        <time>2019-05-17T07:26:28Z</time>
      </trkpt>
      <trkpt lat="39.63764" lon="-8.67048">
        <ele>377.45</ele>
        <time>2019-05-17T07:26:32Z</time>
      </trkpt>
      <trkpt lat="39.63768" lon="-8.67049">
        <ele>378.42</ele>
        <time>2019-05-17T07:26:36Z</time>
      </trkpt>
      <trkpt lat="39.63779" lon="-8.67038">
        <ele>377.94</ele>
        <time>2019-05-17T07:26:44Z</time>
      </trkpt>
      <trkpt lat="39.63793" lon="-8.67049">
        <ele>379.38</ele>
        <time>2019-05-17T07:27:01Z</time>
      </trkpt>
      <trkpt lat="39.63805" lon="-8.67061">
        <ele>379.86</ele>
        <time>2019-05-17T07:27:15Z</time>
      </trkpt>
      <trkpt lat="39.63817" lon="-8.67064">
        <ele>381.3</ele>
        <time>2019-05-17T07:27:27Z</time>
      </trkpt>
      <trkpt lat="39.63822" lon="-8.67068">
        <ele>381.78</ele>
        <time>2019-05-17T07:27:33Z</time>
      </trkpt>
      <trkpt lat="39.63834" lon="-8.67074">
        <ele>382.74</ele>
        <time>2019-05-17T07:27:46Z</time>
      </trkpt>
      <trkpt lat="39.6385" lon="-8.67083">
        <ele>383.7</ele>
        <time>2019-05-17T07:28:01Z</time>
      </trkpt>
      <trkpt lat="39.63851" lon="-8.67083">
        <ele>383.7</ele>
        <time>2019-05-17T07:28:02Z</time>
      </trkpt>
      <trkpt lat="39.63863" lon="-8.67093">
        <ele>384.18</ele>
        <time>2019-05-17T07:28:15Z</time>
      </trkpt>
      <trkpt lat="39.63877" lon="-8.67105">
        <ele>385.15</ele>
        <time>2019-05-17T07:28:31Z</time>
      </trkpt>
      <trkpt lat="39.63878" lon="-8.67105">
        <ele>384.66</ele>
        <time>2019-05-17T07:28:32Z</time>
      </trkpt>
      <trkpt lat="39.63887" lon="-8.6711">
        <ele>387.07</ele>
        <time>2019-05-17T07:28:44Z</time>
      </trkpt>
      <trkpt lat="39.63889" lon="-8.67111">
        <ele>386.59</ele>
        <time>2019-05-17T07:28:46Z</time>
      </trkpt>
      <trkpt lat="39.63906" lon="-8.67124">
        <ele>387.55</ele>
        <time>2019-05-17T07:29:03Z</time>
      </trkpt>
      <trkpt lat="39.6392" lon="-8.67131">
        <ele>388.51</ele>
        <time>2019-05-17T07:29:15Z</time>
      </trkpt>
      <trkpt lat="39.6392" lon="-8.67132">
        <ele>388.03</ele>
        <time>2019-05-17T07:29:16Z</time>
      </trkpt>
      <trkpt lat="39.63931" lon="-8.67139">
        <ele>388.51</ele>
        <time>2019-05-17T07:29:29Z</time>
      </trkpt>
      <trkpt lat="39.63943" lon="-8.67144">
        <ele>387.07</ele>
        <time>2019-05-17T07:29:44Z</time>
      </trkpt>
      <trkpt lat="39.63945" lon="-8.67153">
        <ele>386.59</ele>
        <time>2019-05-17T07:29:56Z</time>
      </trkpt>
      <trkpt lat="39.63949" lon="-8.67171">
        <ele>388.03</ele>
        <time>2019-05-17T07:30:10Z</time>
      </trkpt>
      <trkpt lat="39.63952" lon="-8.67187">
        <ele>388.51</ele>
        <time>2019-05-17T07:30:25Z</time>
      </trkpt>
      <trkpt lat="39.63952" lon="-8.67201">
        <ele>388.03</ele>
        <time>2019-05-17T07:30:38Z</time>
      </trkpt>
      <trkpt lat="39.63955" lon="-8.67213">
        <ele>388.51</ele>
        <time>2019-05-17T07:30:46Z</time>
      </trkpt>
      <trkpt lat="39.63958" lon="-8.6722">
        <ele>388.03</ele>
        <time>2019-05-17T07:30:51Z</time>
      </trkpt>
      <trkpt lat="39.63962" lon="-8.67228">
        <ele>387.07</ele>
        <time>2019-05-17T07:30:57Z</time>
      </trkpt>
      <trkpt lat="39.63962" lon="-8.67229">
        <ele>386.59</ele>
        <time>2019-05-17T07:30:58Z</time>
      </trkpt>
      <trkpt lat="39.63969" lon="-8.67244">
        <ele>387.07</ele>
        <time>2019-05-17T07:31:08Z</time>
      </trkpt>
      <trkpt lat="39.63976" lon="-8.67254">
        <ele>386.59</ele>
        <time>2019-05-17T07:31:17Z</time>
      </trkpt>
      <trkpt lat="39.63984" lon="-8.67268">
        <ele>386.59</ele>
        <time>2019-05-17T07:31:28Z</time>
      </trkpt>
      <trkpt lat="39.6399" lon="-8.67282">
        <ele>385.15</ele>
        <time>2019-05-17T07:31:42Z</time>
      </trkpt>
      <trkpt lat="39.63992" lon="-8.67286">
        <ele>385.15</ele>
        <time>2019-05-17T07:31:59Z</time>
      </trkpt>
      <trkpt lat="39.63995" lon="-8.67288">
        <ele>384.66</ele>
        <time>2019-05-17T07:32:07Z</time>
      </trkpt>
      <trkpt lat="39.64005" lon="-8.67295">
        <ele>383.22</ele>
        <time>2019-05-17T07:32:20Z</time>
      </trkpt>
      <trkpt lat="39.64021" lon="-8.67309">
        <ele>382.74</ele>
        <time>2019-05-17T07:32:36Z</time>
      </trkpt>
      <trkpt lat="39.64034" lon="-8.6731">
        <ele>382.74</ele>
        <time>2019-05-17T07:32:48Z</time>
      </trkpt>
      <trkpt lat="39.6404" lon="-8.67313">
        <ele>380.82</ele>
        <time>2019-05-17T07:33:00Z</time>
      </trkpt>
      <trkpt lat="39.64042" lon="-8.67314">
        <ele>379.38</ele>
        <time>2019-05-17T07:33:02Z</time>
      </trkpt>
      <trkpt lat="39.64046" lon="-8.67315">
        <ele>380.82</ele>
        <time>2019-05-17T07:33:08Z</time>
      </trkpt>
      <trkpt lat="39.64065" lon="-8.67323">
        <ele>381.3</ele>
        <time>2019-05-17T07:33:24Z</time>
      </trkpt>
      <trkpt lat="39.64064" lon="-8.67321">
        <ele>381.3</ele>
        <time>2019-05-17T07:33:40Z</time>
      </trkpt>
      <trkpt lat="39.64064" lon="-8.67323">
        <ele>381.78</ele>
        <time>2019-05-17T07:33:59Z</time>
      </trkpt>
      <trkpt lat="39.64064" lon="-8.67325">
        <ele>381.3</ele>
        <time>2019-05-17T07:34:27Z</time>
      </trkpt>
      <trkpt lat="39.64064" lon="-8.67326">
        <ele>380.82</ele>
        <time>2019-05-17T07:34:35Z</time>
      </trkpt>
      <trkpt lat="39.64065" lon="-8.67324">
        <ele>381.78</ele>
        <time>2019-05-17T07:34:51Z</time>
      </trkpt>
      <trkpt lat="39.64072" lon="-8.67327">
        <ele>381.3</ele>
        <time>2019-05-17T07:35:03Z</time>
      </trkpt>
      <trkpt lat="39.64073" lon="-8.67328">
        <ele>381.3</ele>
        <time>2019-05-17T07:35:08Z</time>
      </trkpt>
      <trkpt lat="39.64088" lon="-8.67335">
        <ele>379.38</ele>
        <time>2019-05-17T07:35:22Z</time>
      </trkpt>
      <trkpt lat="39.6409" lon="-8.67336">
        <ele>380.34</ele>
        <time>2019-05-17T07:35:24Z</time>
      </trkpt>
      <trkpt lat="39.64101" lon="-8.67342">
        <ele>379.86</ele>
        <time>2019-05-17T07:35:37Z</time>
      </trkpt>
      <trkpt lat="39.64121" lon="-8.67354">
        <ele>379.38</ele>
        <time>2019-05-17T07:35:54Z</time>
      </trkpt>
      <trkpt lat="39.64139" lon="-8.67371">
        <ele>379.86</ele>
        <time>2019-05-17T07:36:10Z</time>
      </trkpt>
      <trkpt lat="39.6416" lon="-8.67382">
        <ele>379.86</ele>
        <time>2019-05-17T07:36:29Z</time>
      </trkpt>
      <trkpt lat="39.6417" lon="-8.67391">
        <ele>379.86</ele>
        <time>2019-05-17T07:36:41Z</time>
      </trkpt>
      <trkpt lat="39.64177" lon="-8.67395">
        <ele>379.38</ele>
        <time>2019-05-17T07:36:48Z</time>
      </trkpt>
      <trkpt lat="39.64181" lon="-8.67398">
        <ele>380.34</ele>
        <time>2019-05-17T07:36:52Z</time>
      </trkpt>
      <trkpt lat="39.64193" lon="-8.67407">
        <ele>379.38</ele>
        <time>2019-05-17T07:37:06Z</time>
      </trkpt>
      <trkpt lat="39.6421" lon="-8.67417">
        <ele>379.86</ele>
        <time>2019-05-17T07:37:21Z</time>
      </trkpt>
      <trkpt lat="39.64226" lon="-8.67425">
        <ele>379.86</ele>
        <time>2019-05-17T07:37:35Z</time>
      </trkpt>
      <trkpt lat="39.6424" lon="-8.6743">
        <ele>380.34</ele>
        <time>2019-05-17T07:37:47Z</time>
      </trkpt>
      <trkpt lat="39.64241" lon="-8.67431">
        <ele>380.34</ele>
        <time>2019-05-17T07:37:48Z</time>
      </trkpt>
      <trkpt lat="39.64257" lon="-8.67435">
        <ele>380.34</ele>
        <time>2019-05-17T07:38:04Z</time>
      </trkpt>
      <trkpt lat="39.64278" lon="-8.67443">
        <ele>380.82</ele>
        <time>2019-05-17T07:38:21Z</time>
      </trkpt>
      <trkpt lat="39.64296" lon="-8.67444">
        <ele>381.3</ele>
        <time>2019-05-17T07:38:34Z</time>
      </trkpt>
      <trkpt lat="39.64317" lon="-8.67446">
        <ele>382.26</ele>
        <time>2019-05-17T07:38:51Z</time>
      </trkpt>
      <trkpt lat="39.64333" lon="-8.67448">
        <ele>382.74</ele>
        <time>2019-05-17T07:39:05Z</time>
      </trkpt>
      <trkpt lat="39.64354" lon="-8.67447">
        <ele>381.3</ele>
        <time>2019-05-17T07:39:21Z</time>
      </trkpt>
      <trkpt lat="39.64368" lon="-8.67451">
        <ele>381.3</ele>
        <time>2019-05-17T07:39:35Z</time>
      </trkpt>
      <trkpt lat="39.64391" lon="-8.67455">
        <ele>380.82</ele>
        <time>2019-05-17T07:39:52Z</time>
      </trkpt>
      <trkpt lat="39.64409" lon="-8.6746">
        <ele>380.82</ele>
        <time>2019-05-17T07:40:08Z</time>
      </trkpt>
      <trkpt lat="39.64411" lon="-8.67461">
        <ele>381.3</ele>
        <time>2019-05-17T07:40:15Z</time>
      </trkpt>
      <trkpt lat="39.64416" lon="-8.67466">
        <ele>380.34</ele>
        <time>2019-05-17T07:40:22Z</time>
      </trkpt>
      <trkpt lat="39.64417" lon="-8.67466">
        <ele>380.82</ele>
        <time>2019-05-17T07:40:23Z</time>
      </trkpt>
      <trkpt lat="39.6443" lon="-8.67471">
        <ele>381.78</ele>
        <time>2019-05-17T07:40:33Z</time>
      </trkpt>
      <trkpt lat="39.64444" lon="-8.67475">
        <ele>382.26</ele>
        <time>2019-05-17T07:40:47Z</time>
      </trkpt>
      <trkpt lat="39.64461" lon="-8.67479">
        <ele>382.26</ele>
        <time>2019-05-17T07:41:01Z</time>
      </trkpt>
      <trkpt lat="39.64475" lon="-8.6748">
        <ele>380.34</ele>
        <time>2019-05-17T07:41:13Z</time>
      </trkpt>
      <trkpt lat="39.64494" lon="-8.67482">
        <ele>379.86</ele>
        <time>2019-05-17T07:41:29Z</time>
      </trkpt>
      <trkpt lat="39.64505" lon="-8.67484">
        <ele>378.42</ele>
        <time>2019-05-17T07:41:38Z</time>
      </trkpt>
      <trkpt lat="39.6451" lon="-8.67484">
        <ele>377.94</ele>
        <time>2019-05-17T07:41:42Z</time>
      </trkpt>
      <trkpt lat="39.6452" lon="-8.67485">
        <ele>378.42</ele>
        <time>2019-05-17T07:41:50Z</time>
      </trkpt>
      <trkpt lat="39.64524" lon="-8.67484">
        <ele>377.94</ele>
        <time>2019-05-17T07:41:53Z</time>
      </trkpt>
      <trkpt lat="39.64543" lon="-8.67484">
        <ele>376.01</ele>
        <time>2019-05-17T07:42:08Z</time>
      </trkpt>
      <trkpt lat="39.64557" lon="-8.67483">
        <ele>376.49</ele>
        <time>2019-05-17T07:42:19Z</time>
      </trkpt>
      <trkpt lat="39.64578" lon="-8.67482">
        <ele>376.49</ele>
        <time>2019-05-17T07:42:36Z</time>
      </trkpt>
      <trkpt lat="39.64596" lon="-8.67474">
        <ele>376.01</ele>
        <time>2019-05-17T07:42:51Z</time>
      </trkpt>
      <trkpt lat="39.64603" lon="-8.67468">
        <ele>375.05</ele>
        <time>2019-05-17T07:42:59Z</time>
      </trkpt>
      <trkpt lat="39.64607" lon="-8.67467">
        <ele>374.57</ele>
        <time>2019-05-17T07:43:02Z</time>
      </trkpt>
      <trkpt lat="39.64619" lon="-8.67456">
        <ele>373.61</ele>
        <time>2019-05-17T07:43:13Z</time>
      </trkpt>
      <trkpt lat="39.64626" lon="-8.67446">
        <ele>374.09</ele>
        <time>2019-05-17T07:43:24Z</time>
      </trkpt>
      <trkpt lat="39.64626" lon="-8.67444">
        <ele>373.13</ele>
        <time>2019-05-17T07:43:25Z</time>
      </trkpt>
      <trkpt lat="39.64637" lon="-8.67425">
        <ele>371.69</ele>
        <time>2019-05-17T07:43:40Z</time>
      </trkpt>
      <trkpt lat="39.64645" lon="-8.67404">
        <ele>370.73</ele>
        <time>2019-05-17T07:43:55Z</time>
      </trkpt>
      <trkpt lat="39.64648" lon="-8.67393">
        <ele>370.24</ele>
        <time>2019-05-17T07:44:02Z</time>
      </trkpt>
      <trkpt lat="39.64657" lon="-8.67364">
        <ele>369.28</ele>
        <time>2019-05-17T07:44:21Z</time>
      </trkpt>
      <trkpt lat="39.64666" lon="-8.67343">
        <ele>368.32</ele>
        <time>2019-05-17T07:44:36Z</time>
      </trkpt>
      <trkpt lat="39.6468" lon="-8.67324">
        <ele>366.4</ele>
        <time>2019-05-17T07:44:51Z</time>
      </trkpt>
      <trkpt lat="39.64696" lon="-8.67321">
        <ele>366.4</ele>
        <time>2019-05-17T07:45:03Z</time>
      </trkpt>
      <trkpt lat="39.64708" lon="-8.67323">
        <ele>364.96</ele>
        <time>2019-05-17T07:45:14Z</time>
      </trkpt>
      <trkpt lat="39.6471" lon="-8.67323">
        <ele>364.96</ele>
        <time>2019-05-17T07:45:16Z</time>
      </trkpt>
      <trkpt lat="39.64722" lon="-8.67327">
        <ele>363.52</ele>
        <time>2019-05-17T07:45:31Z</time>
      </trkpt>
      <trkpt lat="39.64745" lon="-8.67329">
        <ele>360.15</ele>
        <time>2019-05-17T07:45:47Z</time>
      </trkpt>
      <trkpt lat="39.64746" lon="-8.67329">
        <ele>360.15</ele>
        <time>2019-05-17T07:45:48Z</time>
      </trkpt>
      <trkpt lat="39.64768" lon="-8.67327">
        <ele>359.67</ele>
        <time>2019-05-17T07:46:04Z</time>
      </trkpt>
      <trkpt lat="39.64773" lon="-8.67326">
        <ele>359.19</ele>
        <time>2019-05-17T07:46:08Z</time>
      </trkpt>
      <trkpt lat="39.6479" lon="-8.67312">
        <ele>357.75</ele>
        <time>2019-05-17T07:46:24Z</time>
      </trkpt>
      <trkpt lat="39.64797" lon="-8.67304">
        <ele>356.31</ele>
        <time>2019-05-17T07:46:31Z</time>
      </trkpt>
      <trkpt lat="39.64811" lon="-8.67287">
        <ele>354.86</ele>
        <time>2019-05-17T07:46:47Z</time>
      </trkpt>
      <trkpt lat="39.64821" lon="-8.67277">
        <ele>354.38</ele>
        <time>2019-05-17T07:46:59Z</time>
      </trkpt>
      <trkpt lat="39.64823" lon="-8.67275">
        <ele>353.9</ele>
        <time>2019-05-17T07:47:14Z</time>
      </trkpt>
      <trkpt lat="39.64833" lon="-8.67267">
        <ele>353.42</ele>
        <time>2019-05-17T07:47:25Z</time>
      </trkpt>
      <trkpt lat="39.64835" lon="-8.67266">
        <ele>353.42</ele>
        <time>2019-05-17T07:47:27Z</time>
      </trkpt>
      <trkpt lat="39.64838" lon="-8.67265">
        <ele>353.42</ele>
        <time>2019-05-17T07:47:29Z</time>
      </trkpt>
      <trkpt lat="39.64852" lon="-8.67247">
        <ele>351.5</ele>
        <time>2019-05-17T07:47:45Z</time>
      </trkpt>
      <trkpt lat="39.64855" lon="-8.67244">
        <ele>351.5</ele>
        <time>2019-05-17T07:47:48Z</time>
      </trkpt>
      <trkpt lat="39.64865" lon="-8.67231">
        <ele>350.54</ele>
        <time>2019-05-17T07:48:02Z</time>
      </trkpt>
      <trkpt lat="39.64865" lon="-8.67231">
        <ele>350.06</ele>
        <time>2019-05-17T07:48:19Z</time>
      </trkpt>
      <trkpt lat="39.64871" lon="-8.67223">
        <ele>350.06</ele>
        <time>2019-05-17T07:48:36Z</time>
      </trkpt>
      <trkpt lat="39.64875" lon="-8.67211">
        <ele>349.1</ele>
        <time>2019-05-17T07:48:52Z</time>
      </trkpt>
      <trkpt lat="39.64875" lon="-8.67211">
        <ele>349.1</ele>
        <time>2019-05-17T07:49:16Z</time>
      </trkpt>
      <trkpt lat="39.64876" lon="-8.67211">
        <ele>349.1</ele>
        <time>2019-05-17T07:49:17Z</time>
      </trkpt>
      <trkpt lat="39.64881" lon="-8.67189">
        <ele>348.13</ele>
        <time>2019-05-17T07:49:33Z</time>
      </trkpt>
      <trkpt lat="39.64885" lon="-8.67165">
        <ele>347.17</ele>
        <time>2019-05-17T07:49:48Z</time>
      </trkpt>
      <trkpt lat="39.64885" lon="-8.67163">
        <ele>347.17</ele>
        <time>2019-05-17T07:49:49Z</time>
      </trkpt>
      <trkpt lat="39.64889" lon="-8.67143">
        <ele>347.65</ele>
        <time>2019-05-17T07:50:02Z</time>
      </trkpt>
      <trkpt lat="39.64891" lon="-8.67122">
        <ele>347.17</ele>
        <time>2019-05-17T07:50:15Z</time>
      </trkpt>
      <trkpt lat="39.64893" lon="-8.67098">
        <ele>347.17</ele>
        <time>2019-05-17T07:50:30Z</time>
      </trkpt>
      <trkpt lat="39.64895" lon="-8.67073">
        <ele>346.69</ele>
        <time>2019-05-17T07:50:45Z</time>
      </trkpt>
      <trkpt lat="39.64895" lon="-8.67059">
        <ele>346.21</ele>
        <time>2019-05-17T07:51:00Z</time>
      </trkpt>
      <trkpt lat="39.64897" lon="-8.67061">
        <ele>346.69</ele>
        <time>2019-05-17T07:51:13Z</time>
      </trkpt>
      <trkpt lat="39.64897" lon="-8.67054">
        <ele>345.25</ele>
        <time>2019-05-17T07:51:21Z</time>
      </trkpt>
      <trkpt lat="39.64898" lon="-8.67026">
        <ele>345.73</ele>
        <time>2019-05-17T07:51:39Z</time>
      </trkpt>
      <trkpt lat="39.64898" lon="-8.67004">
        <ele>344.77</ele>
        <time>2019-05-17T07:51:54Z</time>
      </trkpt>
      <trkpt lat="39.649" lon="-8.66979">
        <ele>342.85</ele>
        <time>2019-05-17T07:52:11Z</time>
      </trkpt>
      <trkpt lat="39.64902" lon="-8.6696">
        <ele>342.37</ele>
        <time>2019-05-17T07:52:24Z</time>
      </trkpt>
      <trkpt lat="39.64902" lon="-8.66936">
        <ele>340.44</ele>
        <time>2019-05-17T07:52:39Z</time>
      </trkpt>
      <trkpt lat="39.64904" lon="-8.66912">
        <ele>338.04</ele>
        <time>2019-05-17T07:52:55Z</time>
      </trkpt>
      <trkpt lat="39.64905" lon="-8.66888">
        <ele>337.56</ele>
        <time>2019-05-17T07:53:10Z</time>
      </trkpt>
      <trkpt lat="39.64906" lon="-8.66878">
        <ele>336.6</ele>
        <time>2019-05-17T07:53:16Z</time>
      </trkpt>
      <trkpt lat="39.64906" lon="-8.66865">
        <ele>334.68</ele>
        <time>2019-05-17T07:53:30Z</time>
      </trkpt>
      <trkpt lat="39.64907" lon="-8.6686">
        <ele>334.2</ele>
        <time>2019-05-17T07:53:34Z</time>
      </trkpt>
      <trkpt lat="39.64908" lon="-8.66854">
        <ele>334.2</ele>
        <time>2019-05-17T07:53:36Z</time>
      </trkpt>
      <trkpt lat="39.64913" lon="-8.6683">
        <ele>332.27</ele>
        <time>2019-05-17T07:53:50Z</time>
      </trkpt>
      <trkpt lat="39.64914" lon="-8.66828">
        <ele>333.23</ele>
        <time>2019-05-17T07:54:09Z</time>
      </trkpt>
      <trkpt lat="39.64916" lon="-8.66826">
        <ele>332.27</ele>
        <time>2019-05-17T07:54:23Z</time>
      </trkpt>
      <trkpt lat="39.64928" lon="-8.66806">
        <ele>330.35</ele>
        <time>2019-05-17T07:54:40Z</time>
      </trkpt>
      <trkpt lat="39.64932" lon="-8.66802">
        <ele>329.87</ele>
        <time>2019-05-17T07:54:44Z</time>
      </trkpt>
      <trkpt lat="39.64943" lon="-8.66795">
        <ele>328.91</ele>
        <time>2019-05-17T07:54:53Z</time>
      </trkpt>
      <trkpt lat="39.64956" lon="-8.66782">
        <ele>326.99</ele>
        <time>2019-05-17T07:55:06Z</time>
      </trkpt>
      <trkpt lat="39.64975" lon="-8.66777">
        <ele>327.47</ele>
        <time>2019-05-17T07:55:20Z</time>
      </trkpt>
      <trkpt lat="39.64994" lon="-8.66767">
        <ele>326.99</ele>
        <time>2019-05-17T07:55:37Z</time>
      </trkpt>
      <trkpt lat="39.65012" lon="-8.66755">
        <ele>326.99</ele>
        <time>2019-05-17T07:55:53Z</time>
      </trkpt>
      <trkpt lat="39.65023" lon="-8.66746">
        <ele>326.99</ele>
        <time>2019-05-17T07:56:04Z</time>
      </trkpt>
      <trkpt lat="39.65026" lon="-8.66741">
        <ele>327.47</ele>
        <time>2019-05-17T07:56:08Z</time>
      </trkpt>
      <trkpt lat="39.6503" lon="-8.66736">
        <ele>326.99</ele>
        <time>2019-05-17T07:56:12Z</time>
      </trkpt>
      <trkpt lat="39.65039" lon="-8.66713">
        <ele>326.5</ele>
        <time>2019-05-17T07:56:28Z</time>
      </trkpt>
      <trkpt lat="39.65042" lon="-8.66689">
        <ele>326.99</ele>
        <time>2019-05-17T07:56:43Z</time>
      </trkpt>
      <trkpt lat="39.65047" lon="-8.66664">
        <ele>326.99</ele>
        <time>2019-05-17T07:56:59Z</time>
      </trkpt>
      <trkpt lat="39.65051" lon="-8.66641">
        <ele>327.95</ele>
        <time>2019-05-17T07:57:13Z</time>
      </trkpt>
      <trkpt lat="39.65054" lon="-8.66614">
        <ele>326.5</ele>
        <time>2019-05-17T07:57:29Z</time>
      </trkpt>
      <trkpt lat="39.65052" lon="-8.66585">
        <ele>326.5</ele>
        <time>2019-05-17T07:57:46Z</time>
      </trkpt>
      <trkpt lat="39.65051" lon="-8.6656">
        <ele>326.5</ele>
        <time>2019-05-17T07:58:01Z</time>
      </trkpt>
      <trkpt lat="39.65049" lon="-8.66531">
        <ele>326.02</ele>
        <time>2019-05-17T07:58:18Z</time>
      </trkpt>
      <trkpt lat="39.65049" lon="-8.66507">
        <ele>325.54</ele>
        <time>2019-05-17T07:58:33Z</time>
      </trkpt>
      <trkpt lat="39.6505" lon="-8.66479">
        <ele>323.62</ele>
        <time>2019-05-17T07:58:49Z</time>
      </trkpt>
      <trkpt lat="39.65049" lon="-8.66449">
        <ele>321.7</ele>
        <time>2019-05-17T07:59:06Z</time>
      </trkpt>
      <trkpt lat="39.6505" lon="-8.66423">
        <ele>319.3</ele>
        <time>2019-05-17T07:59:21Z</time>
      </trkpt>
      <trkpt lat="39.65051" lon="-8.66396">
        <ele>318.33</ele>
        <time>2019-05-17T07:59:37Z</time>
      </trkpt>
      <trkpt lat="39.65055" lon="-8.66373">
        <ele>317.85</ele>
        <time>2019-05-17T07:59:53Z</time>
      </trkpt>
      <trkpt lat="39.65054" lon="-8.66371">
        <ele>317.37</ele>
        <time>2019-05-17T08:00:16Z</time>
      </trkpt>
      <trkpt lat="39.65052" lon="-8.66374">
        <ele>317.85</ele>
        <time>2019-05-17T08:00:34Z</time>
      </trkpt>
      <trkpt lat="39.65053" lon="-8.66375">
        <ele>317.37</ele>
        <time>2019-05-17T08:00:52Z</time>
      </trkpt>
      <trkpt lat="39.65053" lon="-8.66373">
        <ele>317.37</ele>
        <time>2019-05-17T08:01:20Z</time>
      </trkpt>
      <trkpt lat="39.65054" lon="-8.66373">
        <ele>317.85</ele>
        <time>2019-05-17T08:01:45Z</time>
      </trkpt>
      <trkpt lat="39.65052" lon="-8.66374">
        <ele>317.85</ele>
        <time>2019-05-17T08:02:05Z</time>
      </trkpt>
      <trkpt lat="39.65052" lon="-8.66374">
        <ele>317.37</ele>
        <time>2019-05-17T08:02:20Z</time>
      </trkpt>
      <trkpt lat="39.65054" lon="-8.66373">
        <ele>316.89</ele>
        <time>2019-05-17T08:02:41Z</time>
      </trkpt>
      <trkpt lat="39.6506" lon="-8.66362">
        <ele>316.41</ele>
        <time>2019-05-17T08:02:49Z</time>
      </trkpt>
      <trkpt lat="39.65074" lon="-8.66341">
        <ele>314.97</ele>
        <time>2019-05-17T08:03:05Z</time>
      </trkpt>
      <trkpt lat="39.65089" lon="-8.66323">
        <ele>313.53</ele>
        <time>2019-05-17T08:03:20Z</time>
      </trkpt>
      <trkpt lat="39.65101" lon="-8.6631">
        <ele>313.05</ele>
        <time>2019-05-17T08:03:31Z</time>
      </trkpt>
      <trkpt lat="39.65118" lon="-8.66289">
        <ele>311.6</ele>
        <time>2019-05-17T08:03:48Z</time>
      </trkpt>
      <trkpt lat="39.65129" lon="-8.66265">
        <ele>309.2</ele>
        <time>2019-05-17T08:04:04Z</time>
      </trkpt>
      <trkpt lat="39.65132" lon="-8.66237">
        <ele>308.24</ele>
        <time>2019-05-17T08:04:19Z</time>
      </trkpt>
      <trkpt lat="39.65129" lon="-8.66208">
        <ele>307.76</ele>
        <time>2019-05-17T08:04:36Z</time>
      </trkpt>
      <trkpt lat="39.65127" lon="-8.66194">
        <ele>306.8</ele>
        <time>2019-05-17T08:04:48Z</time>
      </trkpt>
      <trkpt lat="39.65128" lon="-8.66189">
        <ele>306.8</ele>
        <time>2019-05-17T08:05:01Z</time>
      </trkpt>
      <trkpt lat="39.65124" lon="-8.66173">
        <ele>305.36</ele>
        <time>2019-05-17T08:05:11Z</time>
      </trkpt>
      <trkpt lat="39.65118" lon="-8.66147">
        <ele>303.91</ele>
        <time>2019-05-17T08:05:27Z</time>
      </trkpt>
      <trkpt lat="39.65118" lon="-8.66142">
        <ele>304.39</ele>
        <time>2019-05-17T08:05:30Z</time>
      </trkpt>
      <trkpt lat="39.65117" lon="-8.66133">
        <ele>304.39</ele>
        <time>2019-05-17T08:05:35Z</time>
      </trkpt>
      <trkpt lat="39.65112" lon="-8.66105">
        <ele>303.43</ele>
        <time>2019-05-17T08:05:52Z</time>
      </trkpt>
      <trkpt lat="39.65107" lon="-8.6608">
        <ele>303.43</ele>
        <time>2019-05-17T08:06:07Z</time>
      </trkpt>
      <trkpt lat="39.65103" lon="-8.66055">
        <ele>303.91</ele>
        <time>2019-05-17T08:06:22Z</time>
      </trkpt>
      <trkpt lat="39.65099" lon="-8.66027">
        <ele>303.43</ele>
        <time>2019-05-17T08:06:38Z</time>
      </trkpt>
      <trkpt lat="39.65096" lon="-8.66013">
        <ele>302.95</ele>
        <time>2019-05-17T08:06:47Z</time>
      </trkpt>
      <trkpt lat="39.65093" lon="-8.65985">
        <ele>302.47</ele>
        <time>2019-05-17T08:07:04Z</time>
      </trkpt>
      <trkpt lat="39.65088" lon="-8.65957">
        <ele>302.47</ele>
        <time>2019-05-17T08:07:20Z</time>
      </trkpt>
      <trkpt lat="39.65085" lon="-8.65937">
        <ele>302.47</ele>
        <time>2019-05-17T08:07:33Z</time>
      </trkpt>
      <trkpt lat="39.6508" lon="-8.65912">
        <ele>302.95</ele>
        <time>2019-05-17T08:07:48Z</time>
      </trkpt>
      <trkpt lat="39.65077" lon="-8.65891">
        <ele>303.43</ele>
        <time>2019-05-17T08:08:02Z</time>
      </trkpt>
      <trkpt lat="39.65072" lon="-8.65868">
        <ele>302.47</ele>
        <time>2019-05-17T08:08:16Z</time>
      </trkpt>
      <trkpt lat="39.6507" lon="-8.65844">
        <ele>302.47</ele>
        <time>2019-05-17T08:08:30Z</time>
      </trkpt>
      <trkpt lat="39.65067" lon="-8.65821">
        <ele>301.99</ele>
        <time>2019-05-17T08:08:45Z</time>
      </trkpt>
      <trkpt lat="39.65063" lon="-8.65793">
        <ele>300.55</ele>
        <time>2019-05-17T08:09:02Z</time>
      </trkpt>
      <trkpt lat="39.65067" lon="-8.65774">
        <ele>299.59</ele>
        <time>2019-05-17T08:09:16Z</time>
      </trkpt>
      <trkpt lat="39.65079" lon="-8.65748">
        <ele>297.67</ele>
        <time>2019-05-17T08:09:34Z</time>
      </trkpt>
      <trkpt lat="39.65089" lon="-8.65727">
        <ele>296.7</ele>
        <time>2019-05-17T08:09:48Z</time>
      </trkpt>
      <trkpt lat="39.65096" lon="-8.65713">
        <ele>296.22</ele>
        <time>2019-05-17T08:09:58Z</time>
      </trkpt>
      <trkpt lat="39.65105" lon="-8.65692">
        <ele>296.22</ele>
        <time>2019-05-17T08:10:13Z</time>
      </trkpt>
      <trkpt lat="39.65113" lon="-8.65669">
        <ele>296.22</ele>
        <time>2019-05-17T08:10:28Z</time>
      </trkpt>
      <trkpt lat="39.65121" lon="-8.65644">
        <ele>295.74</ele>
        <time>2019-05-17T08:10:44Z</time>
      </trkpt>
      <trkpt lat="39.65127" lon="-8.65624">
        <ele>295.74</ele>
        <time>2019-05-17T08:10:59Z</time>
      </trkpt>
      <trkpt lat="39.65129" lon="-8.65618">
        <ele>295.26</ele>
        <time>2019-05-17T08:11:11Z</time>
      </trkpt>
      <trkpt lat="39.65129" lon="-8.65614">
        <ele>295.26</ele>
        <time>2019-05-17T08:11:23Z</time>
      </trkpt>
      <trkpt lat="39.65131" lon="-8.65605">
        <ele>294.3</ele>
        <time>2019-05-17T08:11:29Z</time>
      </trkpt>
      <trkpt lat="39.65136" lon="-8.65582">
        <ele>295.26</ele>
        <time>2019-05-17T08:11:44Z</time>
      </trkpt>
      <trkpt lat="39.65134" lon="-8.65554">
        <ele>295.26</ele>
        <time>2019-05-17T08:12:02Z</time>
      </trkpt>
      <trkpt lat="39.65134" lon="-8.65551">
        <ele>295.26</ele>
        <time>2019-05-17T08:12:05Z</time>
      </trkpt>
      <trkpt lat="39.6513" lon="-8.65541">
        <ele>295.74</ele>
        <time>2019-05-17T08:12:15Z</time>
      </trkpt>
      <trkpt lat="39.65133" lon="-8.65536">
        <ele>295.26</ele>
        <time>2019-05-17T08:12:19Z</time>
      </trkpt>
      <trkpt lat="39.65135" lon="-8.65529">
        <ele>296.22</ele>
        <time>2019-05-17T08:12:25Z</time>
      </trkpt>
      <trkpt lat="39.65136" lon="-8.65525">
        <ele>295.74</ele>
        <time>2019-05-17T08:12:28Z</time>
      </trkpt>
      <trkpt lat="39.65138" lon="-8.65522">
        <ele>296.22</ele>
        <time>2019-05-17T08:12:30Z</time>
      </trkpt>
      <trkpt lat="39.6514" lon="-8.65514">
        <ele>297.18</ele>
        <time>2019-05-17T08:12:36Z</time>
      </trkpt>
      <trkpt lat="39.65141" lon="-8.65493">
        <ele>297.67</ele>
        <time>2019-05-17T08:12:51Z</time>
      </trkpt>
      <trkpt lat="39.65135" lon="-8.65473">
        <ele>299.59</ele>
        <time>2019-05-17T08:13:05Z</time>
      </trkpt>
      <trkpt lat="39.65131" lon="-8.65453">
        <ele>300.07</ele>
        <time>2019-05-17T08:13:18Z</time>
      </trkpt>
      <trkpt lat="39.65131" lon="-8.65442">
        <ele>300.55</ele>
        <time>2019-05-17T08:13:26Z</time>
      </trkpt>
      <trkpt lat="39.65136" lon="-8.65427">
        <ele>301.03</ele>
        <time>2019-05-17T08:13:37Z</time>
      </trkpt>
      <trkpt lat="39.6514" lon="-8.65418">
        <ele>301.51</ele>
        <time>2019-05-17T08:13:52Z</time>
      </trkpt>
      <trkpt lat="39.65155" lon="-8.65405">
        <ele>298.63</ele>
        <time>2019-05-17T08:14:06Z</time>
      </trkpt>
      <trkpt lat="39.65171" lon="-8.65393">
        <ele>297.18</ele>
        <time>2019-05-17T08:14:21Z</time>
      </trkpt>
      <trkpt lat="39.65183" lon="-8.65385">
        <ele>296.22</ele>
        <time>2019-05-17T08:14:32Z</time>
      </trkpt>
      <trkpt lat="39.65195" lon="-8.65373">
        <ele>295.26</ele>
        <time>2019-05-17T08:14:45Z</time>
      </trkpt>
      <trkpt lat="39.65196" lon="-8.65373">
        <ele>294.3</ele>
        <time>2019-05-17T08:14:53Z</time>
      </trkpt>
      <trkpt lat="39.65204" lon="-8.65344">
        <ele>292.38</ele>
        <time>2019-05-17T08:15:12Z</time>
      </trkpt>
      <trkpt lat="39.65211" lon="-8.6532">
        <ele>291.42</ele>
        <time>2019-05-17T08:15:27Z</time>
      </trkpt>
      <trkpt lat="39.6522" lon="-8.65294">
        <ele>288.53</ele>
        <time>2019-05-17T08:15:44Z</time>
      </trkpt>
      <trkpt lat="39.65223" lon="-8.6529">
        <ele>289.01</ele>
        <time>2019-05-17T08:15:47Z</time>
      </trkpt>
      <trkpt lat="39.65225" lon="-8.65284">
        <ele>287.09</ele>
        <time>2019-05-17T08:15:51Z</time>
      </trkpt>
      <trkpt lat="39.65235" lon="-8.65275">
        <ele>287.09</ele>
        <time>2019-05-17T08:16:07Z</time>
      </trkpt>
      <trkpt lat="39.65236" lon="-8.65274">
        <ele>287.57</ele>
        <time>2019-05-17T08:16:08Z</time>
      </trkpt>
      <trkpt lat="39.65241" lon="-8.65272">
        <ele>287.09</ele>
        <time>2019-05-17T08:16:12Z</time>
      </trkpt>
      <trkpt lat="39.65245" lon="-8.6527">
        <ele>288.53</ele>
        <time>2019-05-17T08:16:16Z</time>
      </trkpt>
      <trkpt lat="39.65264" lon="-8.65263">
        <ele>287.57</ele>
        <time>2019-05-17T08:16:31Z</time>
      </trkpt>
      <trkpt lat="39.65282" lon="-8.65248">
        <ele>286.13</ele>
        <time>2019-05-17T08:16:48Z</time>
      </trkpt>
      <trkpt lat="39.65293" lon="-8.65239">
        <ele>285.65</ele>
        <time>2019-05-17T08:17:02Z</time>
      </trkpt>
      <trkpt lat="39.65308" lon="-8.65227">
        <ele>285.17</ele>
        <time>2019-05-17T08:17:16Z</time>
      </trkpt>
      <trkpt lat="39.65328" lon="-8.65218">
        <ele>284.21</ele>
        <time>2019-05-17T08:17:32Z</time>
      </trkpt>
      <trkpt lat="39.65349" lon="-8.65216">
        <ele>281.32</ele>
        <time>2019-05-17T08:17:48Z</time>
      </trkpt>
      <trkpt lat="39.65353" lon="-8.65216">
        <ele>282.28</ele>
        <time>2019-05-17T08:17:53Z</time>
      </trkpt>
      <trkpt lat="39.65365" lon="-8.65216">
        <ele>279.88</ele>
        <time>2019-05-17T08:18:05Z</time>
      </trkpt>
      <trkpt lat="39.65371" lon="-8.65216">
        <ele>279.88</ele>
        <time>2019-05-17T08:18:11Z</time>
      </trkpt>
      <trkpt lat="39.65377" lon="-8.65217">
        <ele>280.36</ele>
        <time>2019-05-17T08:18:16Z</time>
      </trkpt>
      <trkpt lat="39.65397" lon="-8.65219">
        <ele>279.4</ele>
        <time>2019-05-17T08:18:31Z</time>
      </trkpt>
      <trkpt lat="39.65413" lon="-8.65219">
        <ele>278.44</ele>
        <time>2019-05-17T08:18:42Z</time>
      </trkpt>
      <trkpt lat="39.65432" lon="-8.65218">
        <ele>277.96</ele>
        <time>2019-05-17T08:18:56Z</time>
      </trkpt>
      <trkpt lat="39.6545" lon="-8.65212">
        <ele>275.07</ele>
        <time>2019-05-17T08:19:10Z</time>
      </trkpt>
      <trkpt lat="39.65454" lon="-8.6521">
        <ele>275.07</ele>
        <time>2019-05-17T08:19:18Z</time>
      </trkpt>
      <trkpt lat="39.65473" lon="-8.65201">
        <ele>273.63</ele>
        <time>2019-05-17T08:19:34Z</time>
      </trkpt>
      <trkpt lat="39.65481" lon="-8.65197">
        <ele>273.15</ele>
        <time>2019-05-17T08:19:45Z</time>
      </trkpt>
      <trkpt lat="39.65485" lon="-8.65196">
        <ele>273.63</ele>
        <time>2019-05-17T08:19:48Z</time>
      </trkpt>
      <trkpt lat="39.65493" lon="-8.65189">
        <ele>272.67</ele>
        <time>2019-05-17T08:19:56Z</time>
      </trkpt>
      <trkpt lat="39.65511" lon="-8.6518">
        <ele>272.67</ele>
        <time>2019-05-17T08:20:11Z</time>
      </trkpt>
      <trkpt lat="39.65527" lon="-8.6517">
        <ele>271.71</ele>
        <time>2019-05-17T08:20:25Z</time>
      </trkpt>
      <trkpt lat="39.6553" lon="-8.65169">
        <ele>271.23</ele>
        <time>2019-05-17T08:20:28Z</time>
      </trkpt>
      <trkpt lat="39.65534" lon="-8.65167">
        <ele>270.27</ele>
        <time>2019-05-17T08:20:31Z</time>
      </trkpt>
      <trkpt lat="39.65554" lon="-8.65163">
        <ele>270.27</ele>
        <time>2019-05-17T08:20:47Z</time>
      </trkpt>
      <trkpt lat="39.6557" lon="-8.65159">
        <ele>268.35</ele>
        <time>2019-05-17T08:21:00Z</time>
      </trkpt>
      <trkpt lat="39.65589" lon="-8.65154">
        <ele>267.86</ele>
        <time>2019-05-17T08:21:15Z</time>
      </trkpt>
      <trkpt lat="39.65597" lon="-8.65152">
        <ele>266.9</ele>
        <time>2019-05-17T08:21:21Z</time>
      </trkpt>
      <trkpt lat="39.65602" lon="-8.65151">
        <ele>265.94</ele>
        <time>2019-05-17T08:21:25Z</time>
      </trkpt>
      <trkpt lat="39.65624" lon="-8.65148">
        <ele>265.46</ele>
        <time>2019-05-17T08:21:43Z</time>
      </trkpt>
      <trkpt lat="39.65628" lon="-8.6515">
        <ele>264.5</ele>
        <time>2019-05-17T08:21:46Z</time>
      </trkpt>
      <trkpt lat="39.65643" lon="-8.65154">
        <ele>264.98</ele>
        <time>2019-05-17T08:21:57Z</time>
      </trkpt>
      <trkpt lat="39.65661" lon="-8.6516">
        <ele>263.54</ele>
        <time>2019-05-17T08:22:12Z</time>
      </trkpt>
      <trkpt lat="39.65662" lon="-8.65161">
        <ele>265.46</ele>
        <time>2019-05-17T08:22:16Z</time>
      </trkpt>
      <trkpt lat="39.65669" lon="-8.65161">
        <ele>264.5</ele>
        <time>2019-05-17T08:22:35Z</time>
      </trkpt>
      <trkpt lat="39.65687" lon="-8.6516">
        <ele>264.02</ele>
        <time>2019-05-17T08:22:48Z</time>
      </trkpt>
      <trkpt lat="39.65703" lon="-8.65156">
        <ele>263.06</ele>
        <time>2019-05-17T08:23:01Z</time>
      </trkpt>
      <trkpt lat="39.65721" lon="-8.65154">
        <ele>262.1</ele>
        <time>2019-05-17T08:23:16Z</time>
      </trkpt>
      <trkpt lat="39.65733" lon="-8.65154">
        <ele>261.14</ele>
        <time>2019-05-17T08:23:29Z</time>
      </trkpt>
      <trkpt lat="39.65733" lon="-8.65155">
        <ele>260.65</ele>
        <time>2019-05-17T08:23:33Z</time>
      </trkpt>
      <trkpt lat="39.6575" lon="-8.65156">
        <ele>260.17</ele>
        <time>2019-05-17T08:23:47Z</time>
      </trkpt>
      <trkpt lat="39.65769" lon="-8.65155">
        <ele>258.25</ele>
        <time>2019-05-17T08:24:02Z</time>
      </trkpt>
      <trkpt lat="39.65787" lon="-8.6515">
        <ele>257.77</ele>
        <time>2019-05-17T08:24:16Z</time>
      </trkpt>
      <trkpt lat="39.658" lon="-8.65143">
        <ele>256.33</ele>
        <time>2019-05-17T08:24:29Z</time>
      </trkpt>
      <trkpt lat="39.658" lon="-8.65143">
        <ele>256.33</ele>
        <time>2019-05-17T08:24:30Z</time>
      </trkpt>
      <trkpt lat="39.65806" lon="-8.65141">
        <ele>256.81</ele>
        <time>2019-05-17T08:24:35Z</time>
      </trkpt>
      <trkpt lat="39.65809" lon="-8.6514">
        <ele>255.37</ele>
        <time>2019-05-17T08:24:38Z</time>
      </trkpt>
      <trkpt lat="39.65827" lon="-8.65132">
        <ele>253.44</ele>
        <time>2019-05-17T08:24:53Z</time>
      </trkpt>
      <trkpt lat="39.6583" lon="-8.65131">
        <ele>252.96</ele>
        <time>2019-05-17T08:24:56Z</time>
      </trkpt>
      <trkpt lat="39.65846" lon="-8.65121">
        <ele>251.04</ele>
        <time>2019-05-17T08:25:11Z</time>
      </trkpt>
      <trkpt lat="39.65854" lon="-8.65117">
        <ele>250.56</ele>
        <time>2019-05-17T08:25:17Z</time>
      </trkpt>
      <trkpt lat="39.6587" lon="-8.65105">
        <ele>248.16</ele>
        <time>2019-05-17T08:25:32Z</time>
      </trkpt>
      <trkpt lat="39.65879" lon="-8.65096">
        <ele>246.23</ele>
        <time>2019-05-17T08:25:41Z</time>
      </trkpt>
      <trkpt lat="39.65892" lon="-8.65082">
        <ele>243.83</ele>
        <time>2019-05-17T08:25:55Z</time>
      </trkpt>
      <trkpt lat="39.65909" lon="-8.65068">
        <ele>242.39</ele>
        <time>2019-05-17T08:26:10Z</time>
      </trkpt>
      <trkpt lat="39.65916" lon="-8.65064">
        <ele>242.87</ele>
        <time>2019-05-17T08:26:23Z</time>
      </trkpt>
      <trkpt lat="39.65923" lon="-8.65059">
        <ele>242.39</ele>
        <time>2019-05-17T08:26:36Z</time>
      </trkpt>
      <trkpt lat="39.65934" lon="-8.65051">
        <ele>241.43</ele>
        <time>2019-05-17T08:26:49Z</time>
      </trkpt>
      <trkpt lat="39.6594" lon="-8.65047">
        <ele>241.43</ele>
        <time>2019-05-17T08:26:54Z</time>
      </trkpt>
      <trkpt lat="39.65942" lon="-8.65043">
        <ele>240.95</ele>
        <time>2019-05-17T08:26:57Z</time>
      </trkpt>
      <trkpt lat="39.65948" lon="-8.65038">
        <ele>240.47</ele>
        <time>2019-05-17T08:27:03Z</time>
      </trkpt>
      <trkpt lat="39.65954" lon="-8.65033">
        <ele>240.47</ele>
        <time>2019-05-17T08:27:09Z</time>
      </trkpt>
      <trkpt lat="39.65968" lon="-8.65014">
        <ele>240.95</ele>
        <time>2019-05-17T08:27:25Z</time>
      </trkpt>
      <trkpt lat="39.65981" lon="-8.64993">
        <ele>239.51</ele>
        <time>2019-05-17T08:27:40Z</time>
      </trkpt>
      <trkpt lat="39.65993" lon="-8.6497">
        <ele>239.02</ele>
        <time>2019-05-17T08:27:57Z</time>
      </trkpt>
      <trkpt lat="39.66003" lon="-8.64947">
        <ele>239.02</ele>
        <time>2019-05-17T08:28:13Z</time>
      </trkpt>
      <trkpt lat="39.66007" lon="-8.6494">
        <ele>240.47</ele>
        <time>2019-05-17T08:28:19Z</time>
      </trkpt>
      <trkpt lat="39.66018" lon="-8.64918">
        <ele>240.47</ele>
        <time>2019-05-17T08:28:36Z</time>
      </trkpt>
      <trkpt lat="39.66032" lon="-8.64898">
        <ele>239.99</ele>
        <time>2019-05-17T08:28:52Z</time>
      </trkpt>
      <trkpt lat="39.66047" lon="-8.64882">
        <ele>239.51</ele>
        <time>2019-05-17T08:29:07Z</time>
      </trkpt>
      <trkpt lat="39.66055" lon="-8.64872">
        <ele>239.51</ele>
        <time>2019-05-17T08:29:21Z</time>
      </trkpt>
      <trkpt lat="39.66056" lon="-8.64872">
        <ele>239.02</ele>
        <time>2019-05-17T08:29:42Z</time>
      </trkpt>
      <trkpt lat="39.66056" lon="-8.64874">
        <ele>239.02</ele>
        <time>2019-05-17T08:30:00Z</time>
      </trkpt>
      <trkpt lat="39.66055" lon="-8.64871">
        <ele>238.06</ele>
        <time>2019-05-17T08:30:26Z</time>
      </trkpt>
      <trkpt lat="39.66054" lon="-8.64869">
        <ele>238.54</ele>
        <time>2019-05-17T08:30:40Z</time>
      </trkpt>
      <trkpt lat="39.66053" lon="-8.6487">
        <ele>239.02</ele>
        <time>2019-05-17T08:31:04Z</time>
      </trkpt>
      <trkpt lat="39.66059" lon="-8.6487">
        <ele>238.54</ele>
        <time>2019-05-17T08:31:13Z</time>
      </trkpt>
      <trkpt lat="39.66074" lon="-8.64861">
        <ele>237.58</ele>
        <time>2019-05-17T08:31:26Z</time>
      </trkpt>
      <trkpt lat="39.66076" lon="-8.64859">
        <ele>236.62</ele>
        <time>2019-05-17T08:31:28Z</time>
      </trkpt>
      <trkpt lat="39.66091" lon="-8.64849">
        <ele>234.7</ele>
        <time>2019-05-17T08:31:43Z</time>
      </trkpt>
      <trkpt lat="39.66093" lon="-8.64847">
        <ele>233.74</ele>
        <time>2019-05-17T08:31:46Z</time>
      </trkpt>
      <trkpt lat="39.66102" lon="-8.64843">
        <ele>232.3</ele>
        <time>2019-05-17T08:31:53Z</time>
      </trkpt>
      <trkpt lat="39.66119" lon="-8.64833">
        <ele>229.41</ele>
        <time>2019-05-17T08:32:07Z</time>
      </trkpt>
      <trkpt lat="39.66126" lon="-8.64828">
        <ele>228.45</ele>
        <time>2019-05-17T08:32:13Z</time>
      </trkpt>
      <trkpt lat="39.66138" lon="-8.64821">
        <ele>226.05</ele>
        <time>2019-05-17T08:32:23Z</time>
      </trkpt>
      <trkpt lat="39.6615" lon="-8.64815">
        <ele>226.05</ele>
        <time>2019-05-17T08:32:32Z</time>
      </trkpt>
      <trkpt lat="39.66153" lon="-8.64813">
        <ele>223.64</ele>
        <time>2019-05-17T08:32:35Z</time>
      </trkpt>
      <trkpt lat="39.66158" lon="-8.64813">
        <ele>225.09</ele>
        <time>2019-05-17T08:32:39Z</time>
      </trkpt>
      <trkpt lat="39.66161" lon="-8.64811">
        <ele>221.72</ele>
        <time>2019-05-17T08:32:47Z</time>
      </trkpt>
      <trkpt lat="39.66161" lon="-8.6481">
        <ele>225.57</ele>
        <time>2019-05-17T08:32:48Z</time>
      </trkpt>
      <trkpt lat="39.66163" lon="-8.6481">
        <ele>224.12</ele>
        <time>2019-05-17T08:32:52Z</time>
      </trkpt>
      <trkpt lat="39.66183" lon="-8.64798">
        <ele>222.68</ele>
        <time>2019-05-17T08:33:10Z</time>
      </trkpt>
      <trkpt lat="39.662" lon="-8.6479">
        <ele>222.2</ele>
        <time>2019-05-17T08:33:25Z</time>
      </trkpt>
      <trkpt lat="39.66218" lon="-8.6478">
        <ele>220.28</ele>
        <time>2019-05-17T08:33:40Z</time>
      </trkpt>
      <trkpt lat="39.66236" lon="-8.64765">
        <ele>216.91</ele>
        <time>2019-05-17T08:33:57Z</time>
      </trkpt>
      <trkpt lat="39.66249" lon="-8.64752">
        <ele>214.99</ele>
        <time>2019-05-17T08:34:11Z</time>
      </trkpt>
      <trkpt lat="39.66264" lon="-8.64732">
        <ele>213.07</ele>
        <time>2019-05-17T08:34:27Z</time>
      </trkpt>
      <trkpt lat="39.66276" lon="-8.64712">
        <ele>210.67</ele>
        <time>2019-05-17T08:34:43Z</time>
      </trkpt>
      <trkpt lat="39.66282" lon="-8.64703">
        <ele>209.22</ele>
        <time>2019-05-17T08:35:00Z</time>
      </trkpt>
      <trkpt lat="39.66295" lon="-8.64682">
        <ele>206.82</ele>
        <time>2019-05-17T08:35:16Z</time>
      </trkpt>
      <trkpt lat="39.6631" lon="-8.64662">
        <ele>204.9</ele>
        <time>2019-05-17T08:35:32Z</time>
      </trkpt>
      <trkpt lat="39.66324" lon="-8.64639">
        <ele>202.49</ele>
        <time>2019-05-17T08:35:49Z</time>
      </trkpt>
      <trkpt lat="39.66338" lon="-8.64614">
        <ele>200.57</ele>
        <time>2019-05-17T08:36:07Z</time>
      </trkpt>
      <trkpt lat="39.66344" lon="-8.64585">
        <ele>196.73</ele>
        <time>2019-05-17T08:36:25Z</time>
      </trkpt>
      <trkpt lat="39.66342" lon="-8.64581">
        <ele>197.69</ele>
        <time>2019-05-17T08:36:37Z</time>
      </trkpt>
      <trkpt lat="39.66343" lon="-8.64582">
        <ele>195.77</ele>
        <time>2019-05-17T08:36:51Z</time>
      </trkpt>
      <trkpt lat="39.66343" lon="-8.64581">
        <ele>196.25</ele>
        <time>2019-05-17T08:37:22Z</time>
      </trkpt>
      <trkpt lat="39.66343" lon="-8.64579">
        <ele>196.25</ele>
        <time>2019-05-17T08:37:56Z</time>
      </trkpt>
      <trkpt lat="39.66343" lon="-8.64579">
        <ele>196.25</ele>
        <time>2019-05-17T08:38:30Z</time>
      </trkpt>
      <trkpt lat="39.66343" lon="-8.6458">
        <ele>198.17</ele>
        <time>2019-05-17T08:38:35Z</time>
      </trkpt>
      <trkpt lat="39.66343" lon="-8.64579">
        <ele>196.73</ele>
        <time>2019-05-17T08:38:48Z</time>
      </trkpt>
      <trkpt lat="39.66343" lon="-8.64581">
        <ele>197.69</ele>
        <time>2019-05-17T08:39:03Z</time>
      </trkpt>
      <trkpt lat="39.66342" lon="-8.64581">
        <ele>197.69</ele>
        <time>2019-05-17T08:39:24Z</time>
      </trkpt>
      <trkpt lat="39.66342" lon="-8.64581">
        <ele>195.28</ele>
        <time>2019-05-17T08:39:53Z</time>
      </trkpt>
      <trkpt lat="39.66342" lon="-8.64581">
        <ele>199.13</ele>
        <time>2019-05-17T08:39:54Z</time>
      </trkpt>
      <trkpt lat="39.66341" lon="-8.64577">
        <ele>197.69</ele>
        <time>2019-05-17T08:40:05Z</time>
      </trkpt>
      <trkpt lat="39.66336" lon="-8.64565">
        <ele>197.21</ele>
        <time>2019-05-17T08:40:16Z</time>
      </trkpt>
      <trkpt lat="39.66317" lon="-8.64546">
        <ele>196.25</ele>
        <time>2019-05-17T08:40:35Z</time>
      </trkpt>
      <trkpt lat="39.66313" lon="-8.64543">
        <ele>196.73</ele>
        <time>2019-05-17T08:40:39Z</time>
      </trkpt>
      <trkpt lat="39.66296" lon="-8.64532">
        <ele>196.73</ele>
        <time>2019-05-17T08:40:54Z</time>
      </trkpt>
      <trkpt lat="39.66293" lon="-8.64531">
        <ele>196.73</ele>
        <time>2019-05-17T08:40:56Z</time>
      </trkpt>
      <trkpt lat="39.66278" lon="-8.6452">
        <ele>196.25</ele>
        <time>2019-05-17T08:41:10Z</time>
      </trkpt>
      <trkpt lat="39.66272" lon="-8.64514">
        <ele>203.94</ele>
        <time>2019-05-17T08:41:21Z</time>
      </trkpt>
      <trkpt lat="39.6627" lon="-8.64513">
        <ele>195.77</ele>
        <time>2019-05-17T08:41:23Z</time>
      </trkpt>
      <trkpt lat="39.66254" lon="-8.64493">
        <ele>195.77</ele>
        <time>2019-05-17T08:41:39Z</time>
      </trkpt>
      <trkpt lat="39.66242" lon="-8.64473">
        <ele>195.28</ele>
        <time>2019-05-17T08:41:54Z</time>
      </trkpt>
      <trkpt lat="39.66245" lon="-8.64446">
        <ele>194.32</ele>
        <time>2019-05-17T08:42:11Z</time>
      </trkpt>
      <trkpt lat="39.66251" lon="-8.64429">
        <ele>194.32</ele>
        <time>2019-05-17T08:42:24Z</time>
      </trkpt>
      <trkpt lat="39.66256" lon="-8.64407">
        <ele>194.32</ele>
        <time>2019-05-17T08:42:39Z</time>
      </trkpt>
      <trkpt lat="39.66264" lon="-8.64385">
        <ele>195.28</ele>
        <time>2019-05-17T08:42:54Z</time>
      </trkpt>
      <trkpt lat="39.66274" lon="-8.64377">
        <ele>196.73</ele>
        <time>2019-05-17T08:43:06Z</time>
      </trkpt>
      <trkpt lat="39.6629" lon="-8.64371">
        <ele>198.65</ele>
        <time>2019-05-17T08:43:23Z</time>
      </trkpt>
      <trkpt lat="39.66301" lon="-8.64357">
        <ele>199.61</ele>
        <time>2019-05-17T08:43:40Z</time>
      </trkpt>
      <trkpt lat="39.66309" lon="-8.64342">
        <ele>202.01</ele>
        <time>2019-05-17T08:43:56Z</time>
      </trkpt>
      <trkpt lat="39.66315" lon="-8.64328">
        <ele>203.46</ele>
        <time>2019-05-17T08:44:11Z</time>
      </trkpt>
      <trkpt lat="39.66321" lon="-8.64316">
        <ele>205.38</ele>
        <time>2019-05-17T08:44:25Z</time>
      </trkpt>
      <trkpt lat="39.66322" lon="-8.64315">
        <ele>205.38</ele>
        <time>2019-05-17T08:44:26Z</time>
      </trkpt>
      <trkpt lat="39.66323" lon="-8.6431">
        <ele>206.34</ele>
        <time>2019-05-17T08:44:41Z</time>
      </trkpt>
      <trkpt lat="39.66324" lon="-8.64309">
        <ele>206.34</ele>
        <time>2019-05-17T08:44:42Z</time>
      </trkpt>
      <trkpt lat="39.66325" lon="-8.64306">
        <ele>205.86</ele>
        <time>2019-05-17T08:44:45Z</time>
      </trkpt>
      <trkpt lat="39.6633" lon="-8.64292">
        <ele>206.82</ele>
        <time>2019-05-17T08:44:58Z</time>
      </trkpt>
      <trkpt lat="39.66337" lon="-8.64274">
        <ele>208.26</ele>
        <time>2019-05-17T08:45:13Z</time>
      </trkpt>
      <trkpt lat="39.66339" lon="-8.64264">
        <ele>208.74</ele>
        <time>2019-05-17T08:45:21Z</time>
      </trkpt>
      <trkpt lat="39.66345" lon="-8.64251">
        <ele>209.22</ele>
        <time>2019-05-17T08:45:34Z</time>
      </trkpt>
      <trkpt lat="39.66349" lon="-8.64237">
        <ele>210.67</ele>
        <time>2019-05-17T08:45:45Z</time>
      </trkpt>
      <trkpt lat="39.66359" lon="-8.6422">
        <ele>212.11</ele>
        <time>2019-05-17T08:46:00Z</time>
      </trkpt>
      <trkpt lat="39.66367" lon="-8.6421">
        <ele>212.59</ele>
        <time>2019-05-17T08:46:13Z</time>
      </trkpt>
      <trkpt lat="39.66374" lon="-8.64203">
        <ele>214.03</ele>
        <time>2019-05-17T08:46:24Z</time>
      </trkpt>
      <trkpt lat="39.66379" lon="-8.64197">
        <ele>215.47</ele>
        <time>2019-05-17T08:46:36Z</time>
      </trkpt>
      <trkpt lat="39.66393" lon="-8.64195">
        <ele>215.47</ele>
        <time>2019-05-17T08:46:49Z</time>
      </trkpt>
      <trkpt lat="39.664" lon="-8.64198">
        <ele>215.47</ele>
        <time>2019-05-17T08:46:55Z</time>
      </trkpt>
      <trkpt lat="39.66421" lon="-8.64201">
        <ele>216.43</ele>
        <time>2019-05-17T08:47:10Z</time>
      </trkpt>
      <trkpt lat="39.6643" lon="-8.64202">
        <ele>217.4</ele>
        <time>2019-05-17T08:47:22Z</time>
      </trkpt>
      <trkpt lat="39.66445" lon="-8.64195">
        <ele>218.36</ele>
        <time>2019-05-17T08:47:38Z</time>
      </trkpt>
      <trkpt lat="39.66458" lon="-8.64192">
        <ele>218.84</ele>
        <time>2019-05-17T08:47:50Z</time>
      </trkpt>
      <trkpt lat="39.66474" lon="-8.64188">
        <ele>220.28</ele>
        <time>2019-05-17T08:48:05Z</time>
      </trkpt>
      <trkpt lat="39.66488" lon="-8.64186">
        <ele>221.24</ele>
        <time>2019-05-17T08:48:19Z</time>
      </trkpt>
      <trkpt lat="39.66501" lon="-8.64188">
        <ele>221.24</ele>
        <time>2019-05-17T08:48:33Z</time>
      </trkpt>
      <trkpt lat="39.66515" lon="-8.6419">
        <ele>222.68</ele>
        <time>2019-05-17T08:48:46Z</time>
      </trkpt>
      <trkpt lat="39.66529" lon="-8.64185">
        <ele>225.09</ele>
        <time>2019-05-17T08:49:01Z</time>
      </trkpt>
      <trkpt lat="39.66538" lon="-8.64178">
        <ele>226.05</ele>
        <time>2019-05-17T08:49:11Z</time>
      </trkpt>
      <trkpt lat="39.66555" lon="-8.64168">
        <ele>227.01</ele>
        <time>2019-05-17T08:49:24Z</time>
      </trkpt>
      <trkpt lat="39.66566" lon="-8.64158">
        <ele>227.49</ele>
        <time>2019-05-17T08:49:35Z</time>
      </trkpt>
      <trkpt lat="39.66575" lon="-8.64149">
        <ele>228.45</ele>
        <time>2019-05-17T08:49:48Z</time>
      </trkpt>
      <trkpt lat="39.66583" lon="-8.64144">
        <ele>229.41</ele>
        <time>2019-05-17T08:49:56Z</time>
      </trkpt>
      <trkpt lat="39.66599" lon="-8.64134">
        <ele>230.85</ele>
        <time>2019-05-17T08:50:14Z</time>
      </trkpt>
      <trkpt lat="39.66605" lon="-8.64129">
        <ele>230.85</ele>
        <time>2019-05-17T08:50:26Z</time>
      </trkpt>
      <trkpt lat="39.66605" lon="-8.64128">
        <ele>230.85</ele>
        <time>2019-05-17T08:50:27Z</time>
      </trkpt>
      <trkpt lat="39.66607" lon="-8.64125">
        <ele>230.85</ele>
        <time>2019-05-17T08:50:30Z</time>
      </trkpt>
      <trkpt lat="39.66618" lon="-8.64106">
        <ele>228.93</ele>
        <time>2019-05-17T08:50:45Z</time>
      </trkpt>
      <trkpt lat="39.66624" lon="-8.64088">
        <ele>227.97</ele>
        <time>2019-05-17T08:50:58Z</time>
      </trkpt>
      <trkpt lat="39.66627" lon="-8.64083">
        <ele>227.97</ele>
        <time>2019-05-17T08:51:02Z</time>
      </trkpt>
      <trkpt lat="39.66639" lon="-8.64059">
        <ele>227.01</ele>
        <time>2019-05-17T08:51:19Z</time>
      </trkpt>
      <trkpt lat="39.66645" lon="-8.64043">
        <ele>227.01</ele>
        <time>2019-05-17T08:51:35Z</time>
      </trkpt>
      <trkpt lat="39.66644" lon="-8.64042">
        <ele>227.01</ele>
        <time>2019-05-17T08:51:42Z</time>
      </trkpt>
      <trkpt lat="39.66635" lon="-8.64015">
        <ele>227.49</ele>
        <time>2019-05-17T08:52:00Z</time>
      </trkpt>
      <trkpt lat="39.66632" lon="-8.64008">
        <ele>226.53</ele>
        <time>2019-05-17T08:52:05Z</time>
      </trkpt>
      <trkpt lat="39.6662" lon="-8.63989">
        <ele>226.53</ele>
        <time>2019-05-17T08:52:20Z</time>
      </trkpt>
      <trkpt lat="39.66611" lon="-8.63972">
        <ele>226.53</ele>
        <time>2019-05-17T08:52:34Z</time>
      </trkpt>
      <trkpt lat="39.66602" lon="-8.63952">
        <ele>225.09</ele>
        <time>2019-05-17T08:52:49Z</time>
      </trkpt>
      <trkpt lat="39.66591" lon="-8.63932">
        <ele>223.16</ele>
        <time>2019-05-17T08:53:04Z</time>
      </trkpt>
      <trkpt lat="39.66584" lon="-8.63918">
        <ele>222.2</ele>
        <time>2019-05-17T08:53:13Z</time>
      </trkpt>
      <trkpt lat="39.66578" lon="-8.6391">
        <ele>222.2</ele>
        <time>2019-05-17T08:53:19Z</time>
      </trkpt>
      <trkpt lat="39.66576" lon="-8.63909">
        <ele>221.72</ele>
        <time>2019-05-17T08:53:21Z</time>
      </trkpt>
      <trkpt lat="39.66573" lon="-8.63906">
        <ele>222.68</ele>
        <time>2019-05-17T08:53:24Z</time>
      </trkpt>
      <trkpt lat="39.6657" lon="-8.63898">
        <ele>222.68</ele>
        <time>2019-05-17T08:53:29Z</time>
      </trkpt>
      <trkpt lat="39.66557" lon="-8.63881">
        <ele>222.2</ele>
        <time>2019-05-17T08:53:43Z</time>
      </trkpt>
      <trkpt lat="39.66545" lon="-8.63872">
        <ele>222.68</ele>
        <time>2019-05-17T08:53:53Z</time>
      </trkpt>
      <trkpt lat="39.66539" lon="-8.63863">
        <ele>222.68</ele>
        <time>2019-05-17T08:54:00Z</time>
      </trkpt>
      <trkpt lat="39.66536" lon="-8.63859">
        <ele>222.68</ele>
        <time>2019-05-17T08:54:03Z</time>
      </trkpt>
      <trkpt lat="39.66527" lon="-8.63843">
        <ele>223.16</ele>
        <time>2019-05-17T08:54:16Z</time>
      </trkpt>
      <trkpt lat="39.6652" lon="-8.63822">
        <ele>222.2</ele>
        <time>2019-05-17T08:54:31Z</time>
      </trkpt>
      <trkpt lat="39.66514" lon="-8.63799">
        <ele>222.68</ele>
        <time>2019-05-17T08:54:45Z</time>
      </trkpt>
      <trkpt lat="39.66509" lon="-8.63779">
        <ele>222.68</ele>
        <time>2019-05-17T08:54:57Z</time>
      </trkpt>
      <trkpt lat="39.66507" lon="-8.63769">
        <ele>223.16</ele>
        <time>2019-05-17T08:55:03Z</time>
      </trkpt>
      <trkpt lat="39.66506" lon="-8.63754">
        <ele>222.68</ele>
        <time>2019-05-17T08:55:17Z</time>
      </trkpt>
      <trkpt lat="39.66506" lon="-8.63753">
        <ele>222.68</ele>
        <time>2019-05-17T08:55:18Z</time>
      </trkpt>
      <trkpt lat="39.66502" lon="-8.63754">
        <ele>222.68</ele>
        <time>2019-05-17T08:55:31Z</time>
      </trkpt>
      <trkpt lat="39.66504" lon="-8.63754">
        <ele>222.2</ele>
        <time>2019-05-17T08:55:56Z</time>
      </trkpt>
      <trkpt lat="39.66505" lon="-8.63759">
        <ele>221.72</ele>
        <time>2019-05-17T08:56:28Z</time>
      </trkpt>
      <trkpt lat="39.66507" lon="-8.63759">
        <ele>221.72</ele>
        <time>2019-05-17T08:57:02Z</time>
      </trkpt>
      <trkpt lat="39.66507" lon="-8.63759">
        <ele>221.72</ele>
        <time>2019-05-17T08:57:37Z</time>
      </trkpt>
      <trkpt lat="39.66507" lon="-8.6376">
        <ele>223.16</ele>
        <time>2019-05-17T08:58:16Z</time>
      </trkpt>
      <trkpt lat="39.66505" lon="-8.63755">
        <ele>224.61</ele>
        <time>2019-05-17T08:58:32Z</time>
      </trkpt>
      <trkpt lat="39.66502" lon="-8.63753">
        <ele>223.64</ele>
        <time>2019-05-17T08:58:52Z</time>
      </trkpt>
      <trkpt lat="39.66503" lon="-8.6375">
        <ele>223.64</ele>
        <time>2019-05-17T08:58:55Z</time>
      </trkpt>
      <trkpt lat="39.66503" lon="-8.63739">
        <ele>223.16</ele>
        <time>2019-05-17T08:59:02Z</time>
      </trkpt>
      <trkpt lat="39.66514" lon="-8.63719">
        <ele>224.61</ele>
        <time>2019-05-17T08:59:19Z</time>
      </trkpt>
      <trkpt lat="39.66518" lon="-8.63722">
        <ele>224.12</ele>
        <time>2019-05-17T08:59:35Z</time>
      </trkpt>
      <trkpt lat="39.6652" lon="-8.63725">
        <ele>224.61</ele>
        <time>2019-05-17T09:00:05Z</time>
      </trkpt>
      <trkpt lat="39.66518" lon="-8.63723">
        <ele>224.61</ele>
        <time>2019-05-17T09:00:23Z</time>
      </trkpt>
      <trkpt lat="39.66519" lon="-8.63722">
        <ele>224.61</ele>
        <time>2019-05-17T09:00:50Z</time>
      </trkpt>
      <trkpt lat="39.6652" lon="-8.63724">
        <ele>224.61</ele>
        <time>2019-05-17T09:01:20Z</time>
      </trkpt>
      <trkpt lat="39.6652" lon="-8.63722">
        <ele>224.61</ele>
        <time>2019-05-17T09:01:56Z</time>
      </trkpt>
      <trkpt lat="39.66522" lon="-8.63723">
        <ele>224.61</ele>
        <time>2019-05-17T09:02:18Z</time>
      </trkpt>
      <trkpt lat="39.66523" lon="-8.63724">
        <ele>224.61</ele>
        <time>2019-05-17T09:02:41Z</time>
      </trkpt>
      <trkpt lat="39.66526" lon="-8.63722">
        <ele>224.12</ele>
        <time>2019-05-17T09:03:03Z</time>
      </trkpt>
      <trkpt lat="39.66526" lon="-8.63722">
        <ele>224.61</ele>
        <time>2019-05-17T09:03:32Z</time>
      </trkpt>
      <trkpt lat="39.66525" lon="-8.63721">
        <ele>224.61</ele>
        <time>2019-05-17T09:04:02Z</time>
      </trkpt>
      <trkpt lat="39.66526" lon="-8.6372">
        <ele>224.61</ele>
        <time>2019-05-17T09:04:32Z</time>
      </trkpt>
      <trkpt lat="39.66525" lon="-8.63721">
        <ele>224.61</ele>
        <time>2019-05-17T09:05:06Z</time>
      </trkpt>
      <trkpt lat="39.66523" lon="-8.63719">
        <ele>224.12</ele>
        <time>2019-05-17T09:05:39Z</time>
      </trkpt>
      <trkpt lat="39.66522" lon="-8.63718">
        <ele>224.12</ele>
        <time>2019-05-17T09:06:13Z</time>
      </trkpt>
      <trkpt lat="39.66524" lon="-8.6372">
        <ele>224.61</ele>
        <time>2019-05-17T09:06:38Z</time>
      </trkpt>
      <trkpt lat="39.66522" lon="-8.6372">
        <ele>225.09</ele>
        <time>2019-05-17T09:07:09Z</time>
      </trkpt>
      <trkpt lat="39.66521" lon="-8.63717">
        <ele>224.12</ele>
        <time>2019-05-17T09:07:31Z</time>
      </trkpt>
      <trkpt lat="39.66521" lon="-8.63716">
        <ele>225.09</ele>
        <time>2019-05-17T09:07:52Z</time>
      </trkpt>
      <trkpt lat="39.66521" lon="-8.63718">
        <ele>224.61</ele>
        <time>2019-05-17T09:08:28Z</time>
      </trkpt>
      <trkpt lat="39.66522" lon="-8.63716">
        <ele>224.61</ele>
        <time>2019-05-17T09:08:44Z</time>
      </trkpt>
      <trkpt lat="39.66524" lon="-8.6372">
        <ele>225.09</ele>
        <time>2019-05-17T09:09:19Z</time>
      </trkpt>
      <trkpt lat="39.66525" lon="-8.63723">
        <ele>224.61</ele>
        <time>2019-05-17T09:09:47Z</time>
      </trkpt>
      <trkpt lat="39.66526" lon="-8.63719">
        <ele>224.12</ele>
        <time>2019-05-17T09:10:10Z</time>
      </trkpt>
      <trkpt lat="39.66527" lon="-8.63702">
        <ele>225.57</ele>
        <time>2019-05-17T09:10:23Z</time>
      </trkpt>
      <trkpt lat="39.66533" lon="-8.6368">
        <ele>226.53</ele>
        <time>2019-05-17T09:10:40Z</time>
      </trkpt>
      <trkpt lat="39.66534" lon="-8.63677">
        <ele>227.01</ele>
        <time>2019-05-17T09:10:43Z</time>
      </trkpt>
      <trkpt lat="39.6654" lon="-8.6366">
        <ele>227.97</ele>
        <time>2019-05-17T09:10:57Z</time>
      </trkpt>
      <trkpt lat="39.66547" lon="-8.63649">
        <ele>229.41</ele>
        <time>2019-05-17T09:11:10Z</time>
      </trkpt>
      <trkpt lat="39.66555" lon="-8.63643">
        <ele>229.89</ele>
        <time>2019-05-17T09:11:19Z</time>
      </trkpt>
      <trkpt lat="39.66568" lon="-8.63635">
        <ele>231.81</ele>
        <time>2019-05-17T09:11:33Z</time>
      </trkpt>
      <trkpt lat="39.6658" lon="-8.63629">
        <ele>232.3</ele>
        <time>2019-05-17T09:11:47Z</time>
      </trkpt>
      <trkpt lat="39.66595" lon="-8.63622">
        <ele>231.81</ele>
        <time>2019-05-17T09:12:01Z</time>
      </trkpt>
      <trkpt lat="39.66611" lon="-8.63613">
        <ele>231.33</ele>
        <time>2019-05-17T09:12:16Z</time>
      </trkpt>
      <trkpt lat="39.66616" lon="-8.63612">
        <ele>231.33</ele>
        <time>2019-05-17T09:12:20Z</time>
      </trkpt>
      <trkpt lat="39.66635" lon="-8.63603">
        <ele>229.41</ele>
        <time>2019-05-17T09:12:37Z</time>
      </trkpt>
      <trkpt lat="39.66654" lon="-8.63596">
        <ele>226.05</ele>
        <time>2019-05-17T09:12:52Z</time>
      </trkpt>
      <trkpt lat="39.66673" lon="-8.63586">
        <ele>225.09</ele>
        <time>2019-05-17T09:13:09Z</time>
      </trkpt>
      <trkpt lat="39.6669" lon="-8.63573">
        <ele>224.12</ele>
        <time>2019-05-17T09:13:24Z</time>
      </trkpt>
      <trkpt lat="39.667" lon="-8.63563">
        <ele>222.2</ele>
        <time>2019-05-17T09:13:35Z</time>
      </trkpt>
      <trkpt lat="39.66715" lon="-8.63548">
        <ele>221.24</ele>
        <time>2019-05-17T09:13:50Z</time>
      </trkpt>
      <trkpt lat="39.66725" lon="-8.63534">
        <ele>216.43</ele>
        <time>2019-05-17T09:14:04Z</time>
      </trkpt>
      <trkpt lat="39.66725" lon="-8.63535">
        <ele>225.09</ele>
        <time>2019-05-17T09:14:05Z</time>
      </trkpt>
      <trkpt lat="39.66727" lon="-8.63525">
        <ele>218.84</ele>
        <time>2019-05-17T09:14:12Z</time>
      </trkpt>
      <trkpt lat="39.6673" lon="-8.63497">
        <ele>215.95</ele>
        <time>2019-05-17T09:14:31Z</time>
      </trkpt>
      <trkpt lat="39.66736" lon="-8.63472">
        <ele>214.51</ele>
        <time>2019-05-17T09:14:48Z</time>
      </trkpt>
      <trkpt lat="39.6674" lon="-8.63451">
        <ele>213.07</ele>
        <time>2019-05-17T09:15:04Z</time>
      </trkpt>
      <trkpt lat="39.66742" lon="-8.63446">
        <ele>212.11</ele>
        <time>2019-05-17T09:15:07Z</time>
      </trkpt>
      <trkpt lat="39.66748" lon="-8.63426">
        <ele>210.19</ele>
        <time>2019-05-17T09:15:21Z</time>
      </trkpt>
      <trkpt lat="39.66754" lon="-8.63406">
        <ele>207.78</ele>
        <time>2019-05-17T09:15:35Z</time>
      </trkpt>
      <trkpt lat="39.66759" lon="-8.63388">
        <ele>206.82</ele>
        <time>2019-05-17T09:15:49Z</time>
      </trkpt>
      <trkpt lat="39.66769" lon="-8.63367">
        <ele>206.34</ele>
        <time>2019-05-17T09:16:04Z</time>
      </trkpt>
      <trkpt lat="39.66775" lon="-8.63349">
        <ele>207.78</ele>
        <time>2019-05-17T09:16:16Z</time>
      </trkpt>
      <trkpt lat="39.66776" lon="-8.63346">
        <ele>208.26</ele>
        <time>2019-05-17T09:16:19Z</time>
      </trkpt>
      <trkpt lat="39.66774" lon="-8.63343">
        <ele>208.26</ele>
        <time>2019-05-17T09:16:24Z</time>
      </trkpt>
      <trkpt lat="39.66778" lon="-8.63328">
        <ele>207.3</ele>
        <time>2019-05-17T09:16:38Z</time>
      </trkpt>
      <trkpt lat="39.66784" lon="-8.63324">
        <ele>207.78</ele>
        <time>2019-05-17T09:16:51Z</time>
      </trkpt>
      <trkpt lat="39.66788" lon="-8.6332">
        <ele>208.26</ele>
        <time>2019-05-17T09:16:58Z</time>
      </trkpt>
      <trkpt lat="39.66796" lon="-8.63314">
        <ele>208.26</ele>
        <time>2019-05-17T09:17:06Z</time>
      </trkpt>
      <trkpt lat="39.66813" lon="-8.63311">
        <ele>208.74</ele>
        <time>2019-05-17T09:17:22Z</time>
      </trkpt>
      <trkpt lat="39.6682" lon="-8.63312">
        <ele>208.26</ele>
        <time>2019-05-17T09:17:34Z</time>
      </trkpt>
      <trkpt lat="39.66827" lon="-8.63305">
        <ele>208.26</ele>
        <time>2019-05-17T09:17:48Z</time>
      </trkpt>
      <trkpt lat="39.66829" lon="-8.63305">
        <ele>208.26</ele>
        <time>2019-05-17T09:17:50Z</time>
      </trkpt>
      <trkpt lat="39.66833" lon="-8.63305">
        <ele>208.26</ele>
        <time>2019-05-17T09:17:54Z</time>
      </trkpt>
      <trkpt lat="39.66839" lon="-8.63306">
        <ele>207.78</ele>
        <time>2019-05-17T09:17:59Z</time>
      </trkpt>
      <trkpt lat="39.66846" lon="-8.63301">
        <ele>208.26</ele>
        <time>2019-05-17T09:18:12Z</time>
      </trkpt>
      <trkpt lat="39.6684" lon="-8.63301">
        <ele>207.78</ele>
        <time>2019-05-17T09:18:29Z</time>
      </trkpt>
      <trkpt lat="39.66833" lon="-8.63303">
        <ele>207.3</ele>
        <time>2019-05-17T09:18:59Z</time>
      </trkpt>
      <trkpt lat="39.66831" lon="-8.63303">
        <ele>207.78</ele>
        <time>2019-05-17T09:19:01Z</time>
      </trkpt>
      <trkpt lat="39.66817" lon="-8.63308">
        <ele>208.74</ele>
        <time>2019-05-17T09:19:16Z</time>
      </trkpt>
      <trkpt lat="39.66815" lon="-8.63309">
        <ele>208.26</ele>
        <time>2019-05-17T09:19:17Z</time>
      </trkpt>
      <trkpt lat="39.66798" lon="-8.63318">
        <ele>207.78</ele>
        <time>2019-05-17T09:19:31Z</time>
      </trkpt>
      <trkpt lat="39.66796" lon="-8.6332">
        <ele>207.78</ele>
        <time>2019-05-17T09:19:33Z</time>
      </trkpt>
      <trkpt lat="39.66792" lon="-8.63328">
        <ele>208.74</ele>
        <time>2019-05-17T09:19:40Z</time>
      </trkpt>
      <trkpt lat="39.66802" lon="-8.63341">
        <ele>209.7</ele>
        <time>2019-05-17T09:19:56Z</time>
      </trkpt>
      <trkpt lat="39.66804" lon="-8.63343">
        <ele>209.7</ele>
        <time>2019-05-17T09:19:59Z</time>
      </trkpt>
      <trkpt lat="39.66813" lon="-8.63352">
        <ele>211.63</ele>
        <time>2019-05-17T09:20:17Z</time>
      </trkpt>
      <trkpt lat="39.66816" lon="-8.63354">
        <ele>212.59</ele>
        <time>2019-05-17T09:20:21Z</time>
      </trkpt>
      <trkpt lat="39.66818" lon="-8.63356">
        <ele>213.07</ele>
        <time>2019-05-17T09:20:24Z</time>
      </trkpt>
      <trkpt lat="39.6682" lon="-8.63358">
        <ele>213.55</ele>
        <time>2019-05-17T09:20:27Z</time>
      </trkpt>
      <trkpt lat="39.66824" lon="-8.63364">
        <ele>214.03</ele>
        <time>2019-05-17T09:20:34Z</time>
      </trkpt>
      <trkpt lat="39.66829" lon="-8.6337">
        <ele>215.47</ele>
        <time>2019-05-17T09:20:41Z</time>
      </trkpt>
      <trkpt lat="39.66833" lon="-8.63376">
        <ele>215.47</ele>
        <time>2019-05-17T09:20:47Z</time>
      </trkpt>
      <trkpt lat="39.66835" lon="-8.63377">
        <ele>215.95</ele>
        <time>2019-05-17T09:20:49Z</time>
      </trkpt>
      <trkpt lat="39.66847" lon="-8.63394">
        <ele>216.91</ele>
        <time>2019-05-17T09:21:06Z</time>
      </trkpt>
      <trkpt lat="39.66855" lon="-8.63407">
        <ele>218.84</ele>
        <time>2019-05-17T09:21:17Z</time>
      </trkpt>
      <trkpt lat="39.66866" lon="-8.63423">
        <ele>218.84</ele>
        <time>2019-05-17T09:21:32Z</time>
      </trkpt>
      <trkpt lat="39.66874" lon="-8.63437">
        <ele>217.88</ele>
        <time>2019-05-17T09:21:44Z</time>
      </trkpt>
      <trkpt lat="39.66885" lon="-8.6345">
        <ele>220.76</ele>
        <time>2019-05-17T09:21:57Z</time>
      </trkpt>
      <trkpt lat="39.6689" lon="-8.63457">
        <ele>219.8</ele>
        <time>2019-05-17T09:22:04Z</time>
      </trkpt>
      <trkpt lat="39.66902" lon="-8.63472">
        <ele>222.68</ele>
        <time>2019-05-17T09:22:20Z</time>
      </trkpt>
      <trkpt lat="39.66907" lon="-8.63479">
        <ele>223.16</ele>
        <time>2019-05-17T09:22:27Z</time>
      </trkpt>
      <trkpt lat="39.66918" lon="-8.63499">
        <ele>225.09</ele>
        <time>2019-05-17T09:22:44Z</time>
      </trkpt>
      <trkpt lat="39.66922" lon="-8.63505">
        <ele>225.09</ele>
        <time>2019-05-17T09:22:50Z</time>
      </trkpt>
      <trkpt lat="39.66925" lon="-8.63509">
        <ele>225.57</ele>
        <time>2019-05-17T09:22:54Z</time>
      </trkpt>
      <trkpt lat="39.66931" lon="-8.63518">
        <ele>225.57</ele>
        <time>2019-05-17T09:23:03Z</time>
      </trkpt>
      <trkpt lat="39.6694" lon="-8.63534">
        <ele>227.01</ele>
        <time>2019-05-17T09:23:18Z</time>
      </trkpt>
      <trkpt lat="39.66943" lon="-8.63541">
        <ele>227.49</ele>
        <time>2019-05-17T09:23:24Z</time>
      </trkpt>
      <trkpt lat="39.66953" lon="-8.63563">
        <ele>228.93</ele>
        <time>2019-05-17T09:23:42Z</time>
      </trkpt>
      <trkpt lat="39.66961" lon="-8.63581">
        <ele>230.37</ele>
        <time>2019-05-17T09:23:58Z</time>
      </trkpt>
      <trkpt lat="39.66966" lon="-8.63593">
        <ele>231.81</ele>
        <time>2019-05-17T09:24:08Z</time>
      </trkpt>
      <trkpt lat="39.66972" lon="-8.63593">
        <ele>225.57</ele>
        <time>2019-05-17T09:24:15Z</time>
      </trkpt>
      <trkpt lat="39.66971" lon="-8.63593">
        <ele>236.14</ele>
        <time>2019-05-17T09:24:16Z</time>
      </trkpt>
      <trkpt lat="39.66971" lon="-8.63594">
        <ele>231.81</ele>
        <time>2019-05-17T09:24:17Z</time>
      </trkpt>
      <trkpt lat="39.66972" lon="-8.63601">
        <ele>231.81</ele>
        <time>2019-05-17T09:24:24Z</time>
      </trkpt>
      <trkpt lat="39.6698" lon="-8.63618">
        <ele>232.78</ele>
        <time>2019-05-17T09:24:41Z</time>
      </trkpt>
      <trkpt lat="39.66985" lon="-8.63633">
        <ele>232.78</ele>
        <time>2019-05-17T09:24:53Z</time>
      </trkpt>
      <trkpt lat="39.66991" lon="-8.63645">
        <ele>233.26</ele>
        <time>2019-05-17T09:25:03Z</time>
      </trkpt>
      <trkpt lat="39.66998" lon="-8.63662">
        <ele>233.74</ele>
        <time>2019-05-17T09:25:17Z</time>
      </trkpt>
      <trkpt lat="39.67" lon="-8.63664">
        <ele>234.22</ele>
        <time>2019-05-17T09:25:19Z</time>
      </trkpt>
      <trkpt lat="39.67008" lon="-8.63683">
        <ele>234.7</ele>
        <time>2019-05-17T09:25:36Z</time>
      </trkpt>
      <trkpt lat="39.67016" lon="-8.63697">
        <ele>235.66</ele>
        <time>2019-05-17T09:25:49Z</time>
      </trkpt>
      <trkpt lat="39.67024" lon="-8.63713">
        <ele>237.58</ele>
        <time>2019-05-17T09:26:04Z</time>
      </trkpt>
      <trkpt lat="39.6703" lon="-8.63722">
        <ele>238.54</ele>
        <time>2019-05-17T09:26:14Z</time>
      </trkpt>
      <trkpt lat="39.67042" lon="-8.63736">
        <ele>239.99</ele>
        <time>2019-05-17T09:26:29Z</time>
      </trkpt>
      <trkpt lat="39.67051" lon="-8.63752">
        <ele>240.95</ele>
        <time>2019-05-17T09:26:47Z</time>
      </trkpt>
      <trkpt lat="39.67053" lon="-8.63754">
        <ele>240.95</ele>
        <time>2019-05-17T09:26:51Z</time>
      </trkpt>
      <trkpt lat="39.67057" lon="-8.63755">
        <ele>241.43</ele>
        <time>2019-05-17T09:26:55Z</time>
      </trkpt>
      <trkpt lat="39.67066" lon="-8.63774">
        <ele>242.87</ele>
        <time>2019-05-17T09:27:11Z</time>
      </trkpt>
      <trkpt lat="39.67078" lon="-8.63791">
        <ele>243.83</ele>
        <time>2019-05-17T09:27:26Z</time>
      </trkpt>
      <trkpt lat="39.67089" lon="-8.63808">
        <ele>246.23</ele>
        <time>2019-05-17T09:27:42Z</time>
      </trkpt>
      <trkpt lat="39.67097" lon="-8.63824">
        <ele>247.2</ele>
        <time>2019-05-17T09:27:57Z</time>
      </trkpt>
      <trkpt lat="39.67106" lon="-8.63837">
        <ele>248.64</ele>
        <time>2019-05-17T09:28:11Z</time>
      </trkpt>
      <trkpt lat="39.67115" lon="-8.63851">
        <ele>248.16</ele>
        <time>2019-05-17T09:28:25Z</time>
      </trkpt>
      <trkpt lat="39.67125" lon="-8.63862">
        <ele>251.04</ele>
        <time>2019-05-17T09:28:37Z</time>
      </trkpt>
      <trkpt lat="39.67136" lon="-8.63877">
        <ele>252</ele>
        <time>2019-05-17T09:28:53Z</time>
      </trkpt>
      <trkpt lat="39.67149" lon="-8.63894">
        <ele>253.44</ele>
        <time>2019-05-17T09:29:08Z</time>
      </trkpt>
      <trkpt lat="39.6715" lon="-8.63896">
        <ele>252</ele>
        <time>2019-05-17T09:29:10Z</time>
      </trkpt>
      <trkpt lat="39.67155" lon="-8.63904">
        <ele>253.44</ele>
        <time>2019-05-17T09:29:17Z</time>
      </trkpt>
      <trkpt lat="39.67177" lon="-8.63914">
        <ele>252.96</ele>
        <time>2019-05-17T09:29:37Z</time>
      </trkpt>
      <trkpt lat="39.67195" lon="-8.6391">
        <ele>252.96</ele>
        <time>2019-05-17T09:29:53Z</time>
      </trkpt>
      <trkpt lat="39.67215" lon="-8.63905">
        <ele>252.48</ele>
        <time>2019-05-17T09:30:10Z</time>
      </trkpt>
      <trkpt lat="39.67233" lon="-8.63897">
        <ele>252.48</ele>
        <time>2019-05-17T09:30:26Z</time>
      </trkpt>
      <trkpt lat="39.67251" lon="-8.63892">
        <ele>251.52</ele>
        <time>2019-05-17T09:30:40Z</time>
      </trkpt>
      <trkpt lat="39.6727" lon="-8.63883">
        <ele>250.56</ele>
        <time>2019-05-17T09:30:56Z</time>
      </trkpt>
      <trkpt lat="39.67272" lon="-8.63886">
        <ele>249.6</ele>
        <time>2019-05-17T09:31:12Z</time>
      </trkpt>
      <trkpt lat="39.67279" lon="-8.63886">
        <ele>249.6</ele>
        <time>2019-05-17T09:31:29Z</time>
      </trkpt>
      <trkpt lat="39.67283" lon="-8.63879">
        <ele>248.64</ele>
        <time>2019-05-17T09:31:36Z</time>
      </trkpt>
      <trkpt lat="39.67285" lon="-8.63875">
        <ele>248.16</ele>
        <time>2019-05-17T09:31:39Z</time>
      </trkpt>
      <trkpt lat="39.67306" lon="-8.63856">
        <ele>247.2</ele>
        <time>2019-05-17T09:31:58Z</time>
      </trkpt>
      <trkpt lat="39.67321" lon="-8.63843">
        <ele>246.72</ele>
        <time>2019-05-17T09:32:12Z</time>
      </trkpt>
      <trkpt lat="39.67336" lon="-8.63828">
        <ele>244.79</ele>
        <time>2019-05-17T09:32:28Z</time>
      </trkpt>
      <trkpt lat="39.67352" lon="-8.63817">
        <ele>244.31</ele>
        <time>2019-05-17T09:32:41Z</time>
      </trkpt>
      <trkpt lat="39.6737" lon="-8.63804">
        <ele>242.39</ele>
        <time>2019-05-17T09:32:56Z</time>
      </trkpt>
      <trkpt lat="39.67393" lon="-8.6379">
        <ele>240.47</ele>
        <time>2019-05-17T09:33:14Z</time>
      </trkpt>
      <trkpt lat="39.67409" lon="-8.63775">
        <ele>239.51</ele>
        <time>2019-05-17T09:33:29Z</time>
      </trkpt>
      <trkpt lat="39.67422" lon="-8.63768">
        <ele>239.02</ele>
        <time>2019-05-17T09:33:41Z</time>
      </trkpt>
      <trkpt lat="39.67435" lon="-8.6376">
        <ele>238.06</ele>
        <time>2019-05-17T09:33:53Z</time>
      </trkpt>
      <trkpt lat="39.67449" lon="-8.63754">
        <ele>237.58</ele>
        <time>2019-05-17T09:34:04Z</time>
      </trkpt>
      <trkpt lat="39.67456" lon="-8.63752">
        <ele>237.58</ele>
        <time>2019-05-17T09:34:09Z</time>
      </trkpt>
      <trkpt lat="39.67478" lon="-8.63752">
        <ele>237.1</ele>
        <time>2019-05-17T09:34:27Z</time>
      </trkpt>
      <trkpt lat="39.67485" lon="-8.63752">
        <ele>237.58</ele>
        <time>2019-05-17T09:34:33Z</time>
      </trkpt>
      <trkpt lat="39.675" lon="-8.63759">
        <ele>237.1</ele>
        <time>2019-05-17T09:34:52Z</time>
      </trkpt>
      <trkpt lat="39.67564" lon="-8.63741">
        <ele>238.54</ele>
        <time>2019-05-17T09:35:16Z</time>
      </trkpt>
      <trkpt lat="39.67563" lon="-8.63752">
        <ele>237.1</ele>
        <time>2019-05-17T09:35:33Z</time>
      </trkpt>
      <trkpt lat="39.67578" lon="-8.63751">
        <ele>237.1</ele>
        <time>2019-05-17T09:35:46Z</time>
      </trkpt>
      <trkpt lat="39.67588" lon="-8.63749">
        <ele>235.18</ele>
        <time>2019-05-17T09:35:55Z</time>
      </trkpt>
      <trkpt lat="39.67604" lon="-8.63747">
        <ele>237.1</ele>
        <time>2019-05-17T09:36:09Z</time>
      </trkpt>
      <trkpt lat="39.67621" lon="-8.63745">
        <ele>236.62</ele>
        <time>2019-05-17T09:36:22Z</time>
      </trkpt>
      <trkpt lat="39.67644" lon="-8.63742">
        <ele>237.58</ele>
        <time>2019-05-17T09:36:40Z</time>
      </trkpt>
      <trkpt lat="39.67654" lon="-8.63742">
        <ele>239.02</ele>
        <time>2019-05-17T09:36:49Z</time>
      </trkpt>
      <trkpt lat="39.67659" lon="-8.63742">
        <ele>239.02</ele>
        <time>2019-05-17T09:36:53Z</time>
      </trkpt>
      <trkpt lat="39.67677" lon="-8.63742">
        <ele>239.02</ele>
        <time>2019-05-17T09:37:08Z</time>
      </trkpt>
      <trkpt lat="39.67679" lon="-8.63742">
        <ele>239.02</ele>
        <time>2019-05-17T09:37:10Z</time>
      </trkpt>
      <trkpt lat="39.67692" lon="-8.63741">
        <ele>241.43</ele>
        <time>2019-05-17T09:37:22Z</time>
      </trkpt>
      <trkpt lat="39.67694" lon="-8.63741">
        <ele>241.43</ele>
        <time>2019-05-17T09:37:24Z</time>
      </trkpt>
      <trkpt lat="39.67696" lon="-8.6374">
        <ele>241.91</ele>
        <time>2019-05-17T09:37:26Z</time>
      </trkpt>
      <trkpt lat="39.677" lon="-8.6374">
        <ele>242.39</ele>
        <time>2019-05-17T09:37:30Z</time>
      </trkpt>
      <trkpt lat="39.67704" lon="-8.63739">
        <ele>242.87</ele>
        <time>2019-05-17T09:37:34Z</time>
      </trkpt>
      <trkpt lat="39.67723" lon="-8.63739">
        <ele>243.35</ele>
        <time>2019-05-17T09:37:51Z</time>
      </trkpt>
      <trkpt lat="39.67735" lon="-8.6374">
        <ele>245.27</ele>
        <time>2019-05-17T09:38:02Z</time>
      </trkpt>
      <trkpt lat="39.67747" lon="-8.63741">
        <ele>245.75</ele>
        <time>2019-05-17T09:38:14Z</time>
      </trkpt>
      <trkpt lat="39.6776" lon="-8.63741">
        <ele>246.72</ele>
        <time>2019-05-17T09:38:26Z</time>
      </trkpt>
      <trkpt lat="39.67774" lon="-8.6374">
        <ele>248.64</ele>
        <time>2019-05-17T09:38:39Z</time>
      </trkpt>
      <trkpt lat="39.67787" lon="-8.63742">
        <ele>250.56</ele>
        <time>2019-05-17T09:38:52Z</time>
      </trkpt>
      <trkpt lat="39.67801" lon="-8.6374">
        <ele>251.52</ele>
        <time>2019-05-17T09:39:05Z</time>
      </trkpt>
      <trkpt lat="39.67814" lon="-8.6374">
        <ele>252</ele>
        <time>2019-05-17T09:39:18Z</time>
      </trkpt>
      <trkpt lat="39.67827" lon="-8.6374">
        <ele>253.44</ele>
        <time>2019-05-17T09:39:30Z</time>
      </trkpt>
      <trkpt lat="39.67838" lon="-8.6374">
        <ele>254.41</ele>
        <time>2019-05-17T09:39:42Z</time>
      </trkpt>
      <trkpt lat="39.67852" lon="-8.63739">
        <ele>255.85</ele>
        <time>2019-05-17T09:39:56Z</time>
      </trkpt>
      <trkpt lat="39.67866" lon="-8.63738">
        <ele>256.81</ele>
        <time>2019-05-17T09:40:08Z</time>
      </trkpt>
      <trkpt lat="39.6788" lon="-8.63741">
        <ele>258.25</ele>
        <time>2019-05-17T09:40:22Z</time>
      </trkpt>
      <trkpt lat="39.67895" lon="-8.63742">
        <ele>260.65</ele>
        <time>2019-05-17T09:40:38Z</time>
      </trkpt>
      <trkpt lat="39.67906" lon="-8.63742">
        <ele>261.62</ele>
        <time>2019-05-17T09:40:50Z</time>
      </trkpt>
      <trkpt lat="39.67914" lon="-8.63747">
        <ele>263.06</ele>
        <time>2019-05-17T09:40:59Z</time>
      </trkpt>
      <trkpt lat="39.67924" lon="-8.63758">
        <ele>263.54</ele>
        <time>2019-05-17T09:41:13Z</time>
      </trkpt>
      <trkpt lat="39.67932" lon="-8.63765">
        <ele>264.02</ele>
        <time>2019-05-17T09:41:22Z</time>
      </trkpt>
      <trkpt lat="39.67937" lon="-8.63767">
        <ele>264.02</ele>
        <time>2019-05-17T09:41:27Z</time>
      </trkpt>
      <trkpt lat="39.67941" lon="-8.63765">
        <ele>262.58</ele>
        <time>2019-05-17T09:41:31Z</time>
      </trkpt>
      <trkpt lat="39.67948" lon="-8.63762">
        <ele>261.62</ele>
        <time>2019-05-17T09:41:41Z</time>
      </trkpt>
      <trkpt lat="39.67951" lon="-8.6376">
        <ele>262.58</ele>
        <time>2019-05-17T09:41:46Z</time>
      </trkpt>
      <trkpt lat="39.67957" lon="-8.63756">
        <ele>262.58</ele>
        <time>2019-05-17T09:42:10Z</time>
      </trkpt>
      <trkpt lat="39.67964" lon="-8.63756">
        <ele>263.54</ele>
        <time>2019-05-17T09:42:22Z</time>
      </trkpt>
      <trkpt lat="39.67974" lon="-8.63754">
        <ele>260.65</ele>
        <time>2019-05-17T09:42:35Z</time>
      </trkpt>
      <trkpt lat="39.67977" lon="-8.63752">
        <ele>260.65</ele>
        <time>2019-05-17T09:42:40Z</time>
      </trkpt>
      <trkpt lat="39.67986" lon="-8.63747">
        <ele>261.62</ele>
        <time>2019-05-17T09:42:49Z</time>
      </trkpt>
      <trkpt lat="39.68007" lon="-8.63742">
        <ele>262.1</ele>
        <time>2019-05-17T09:43:05Z</time>
      </trkpt>
      <trkpt lat="39.68024" lon="-8.63738">
        <ele>262.58</ele>
        <time>2019-05-17T09:43:17Z</time>
      </trkpt>
      <trkpt lat="39.6804" lon="-8.63736">
        <ele>262.58</ele>
        <time>2019-05-17T09:43:31Z</time>
      </trkpt>
      <trkpt lat="39.68041" lon="-8.63736">
        <ele>262.58</ele>
        <time>2019-05-17T09:43:32Z</time>
      </trkpt>
      <trkpt lat="39.68043" lon="-8.63736">
        <ele>263.06</ele>
        <time>2019-05-17T09:43:34Z</time>
      </trkpt>
      <trkpt lat="39.68049" lon="-8.63736">
        <ele>262.58</ele>
        <time>2019-05-17T09:43:38Z</time>
      </trkpt>
      <trkpt lat="39.68069" lon="-8.63733">
        <ele>263.54</ele>
        <time>2019-05-17T09:43:54Z</time>
      </trkpt>
      <trkpt lat="39.68091" lon="-8.63723">
        <ele>262.1</ele>
        <time>2019-05-17T09:44:11Z</time>
      </trkpt>
      <trkpt lat="39.68107" lon="-8.63711">
        <ele>262.1</ele>
        <time>2019-05-17T09:44:26Z</time>
      </trkpt>
      <trkpt lat="39.68124" lon="-8.63696">
        <ele>260.17</ele>
        <time>2019-05-17T09:44:42Z</time>
      </trkpt>
      <trkpt lat="39.68141" lon="-8.6368">
        <ele>258.25</ele>
        <time>2019-05-17T09:44:59Z</time>
      </trkpt>
      <trkpt lat="39.68145" lon="-8.63675">
        <ele>257.29</ele>
        <time>2019-05-17T09:45:05Z</time>
      </trkpt>
      <trkpt lat="39.68157" lon="-8.63661">
        <ele>256.33</ele>
        <time>2019-05-17T09:45:19Z</time>
      </trkpt>
      <trkpt lat="39.68161" lon="-8.63657">
        <ele>254.89</ele>
        <time>2019-05-17T09:45:23Z</time>
      </trkpt>
      <trkpt lat="39.68177" lon="-8.63641">
        <ele>254.41</ele>
        <time>2019-05-17T09:45:38Z</time>
      </trkpt>
      <trkpt lat="39.68187" lon="-8.63633">
        <ele>253.44</ele>
        <time>2019-05-17T09:45:51Z</time>
      </trkpt>
      <trkpt lat="39.68188" lon="-8.63632">
        <ele>253.44</ele>
        <time>2019-05-17T09:45:53Z</time>
      </trkpt>
      <trkpt lat="39.682" lon="-8.63619">
        <ele>251.04</ele>
        <time>2019-05-17T09:46:07Z</time>
      </trkpt>
      <trkpt lat="39.68213" lon="-8.63609">
        <ele>249.6</ele>
        <time>2019-05-17T09:46:23Z</time>
      </trkpt>
      <trkpt lat="39.68226" lon="-8.63605">
        <ele>248.16</ele>
        <time>2019-05-17T09:46:35Z</time>
      </trkpt>
      <trkpt lat="39.68238" lon="-8.63601">
        <ele>247.2</ele>
        <time>2019-05-17T09:46:49Z</time>
      </trkpt>
      <trkpt lat="39.68242" lon="-8.63604">
        <ele>246.72</ele>
        <time>2019-05-17T09:47:02Z</time>
      </trkpt>
      <trkpt lat="39.68244" lon="-8.63599">
        <ele>245.75</ele>
        <time>2019-05-17T09:47:20Z</time>
      </trkpt>
      <trkpt lat="39.68245" lon="-8.636">
        <ele>246.23</ele>
        <time>2019-05-17T09:47:50Z</time>
      </trkpt>
      <trkpt lat="39.68246" lon="-8.636">
        <ele>244.31</ele>
        <time>2019-05-17T09:48:06Z</time>
      </trkpt>
      <trkpt lat="39.68246" lon="-8.636">
        <ele>247.2</ele>
        <time>2019-05-17T09:48:08Z</time>
      </trkpt>
      <trkpt lat="39.68251" lon="-8.63598">
        <ele>245.27</ele>
        <time>2019-05-17T09:48:42Z</time>
      </trkpt>
      <trkpt lat="39.6824" lon="-8.63606">
        <ele>247.2</ele>
        <time>2019-05-17T09:49:16Z</time>
      </trkpt>
      <trkpt lat="39.68244" lon="-8.63607">
        <ele>247.68</ele>
        <time>2019-05-17T09:49:51Z</time>
      </trkpt>
      <trkpt lat="39.68246" lon="-8.63599">
        <ele>246.72</ele>
        <time>2019-05-17T09:50:16Z</time>
      </trkpt>
      <trkpt lat="39.68246" lon="-8.63599">
        <ele>247.68</ele>
        <time>2019-05-17T09:50:44Z</time>
      </trkpt>
      <trkpt lat="39.68245" lon="-8.63598">
        <ele>247.2</ele>
        <time>2019-05-17T09:51:13Z</time>
      </trkpt>
      <trkpt lat="39.68246" lon="-8.63598">
        <ele>247.68</ele>
        <time>2019-05-17T09:51:40Z</time>
      </trkpt>
      <trkpt lat="39.68248" lon="-8.63601">
        <ele>247.68</ele>
        <time>2019-05-17T09:52:07Z</time>
      </trkpt>
      <trkpt lat="39.68248" lon="-8.63596">
        <ele>248.16</ele>
        <time>2019-05-17T09:52:46Z</time>
      </trkpt>
      <trkpt lat="39.68251" lon="-8.63597">
        <ele>247.68</ele>
        <time>2019-05-17T09:53:25Z</time>
      </trkpt>
      <trkpt lat="39.68248" lon="-8.636">
        <ele>248.64</ele>
        <time>2019-05-17T09:53:58Z</time>
      </trkpt>
      <trkpt lat="39.68242" lon="-8.636">
        <ele>249.12</ele>
        <time>2019-05-17T09:54:31Z</time>
      </trkpt>
      <trkpt lat="39.68243" lon="-8.63599">
        <ele>249.12</ele>
        <time>2019-05-17T09:54:55Z</time>
      </trkpt>
      <trkpt lat="39.68243" lon="-8.636">
        <ele>249.6</ele>
        <time>2019-05-17T09:55:20Z</time>
      </trkpt>
      <trkpt lat="39.68247" lon="-8.63596">
        <ele>249.12</ele>
        <time>2019-05-17T09:55:58Z</time>
      </trkpt>
      <trkpt lat="39.68252" lon="-8.63607">
        <ele>249.12</ele>
        <time>2019-05-17T09:56:32Z</time>
      </trkpt>
      <trkpt lat="39.68242" lon="-8.63602">
        <ele>249.12</ele>
        <time>2019-05-17T09:57:03Z</time>
      </trkpt>
      <trkpt lat="39.68247" lon="-8.63602">
        <ele>249.12</ele>
        <time>2019-05-17T09:57:31Z</time>
      </trkpt>
      <trkpt lat="39.68248" lon="-8.63603">
        <ele>250.08</ele>
        <time>2019-05-17T09:58:01Z</time>
      </trkpt>
      <trkpt lat="39.68249" lon="-8.63604">
        <ele>250.08</ele>
        <time>2019-05-17T09:58:36Z</time>
      </trkpt>
      <trkpt lat="39.68249" lon="-8.636">
        <ele>251.04</ele>
        <time>2019-05-17T09:59:15Z</time>
      </trkpt>
      <trkpt lat="39.68252" lon="-8.6359">
        <ele>250.56</ele>
        <time>2019-05-17T09:59:51Z</time>
      </trkpt>
      <trkpt lat="39.68247" lon="-8.63593">
        <ele>251.04</ele>
        <time>2019-05-17T10:00:30Z</time>
      </trkpt>
      <trkpt lat="39.6824" lon="-8.63606">
        <ele>251.52</ele>
        <time>2019-05-17T10:01:02Z</time>
      </trkpt>
      <trkpt lat="39.68247" lon="-8.63597">
        <ele>252.48</ele>
        <time>2019-05-17T10:01:31Z</time>
      </trkpt>
      <trkpt lat="39.6824" lon="-8.63597">
        <ele>252</ele>
        <time>2019-05-17T10:01:55Z</time>
      </trkpt>
      <trkpt lat="39.68242" lon="-8.63594">
        <ele>252.48</ele>
        <time>2019-05-17T10:02:18Z</time>
      </trkpt>
      <trkpt lat="39.68237" lon="-8.63597">
        <ele>252.48</ele>
        <time>2019-05-17T10:02:49Z</time>
      </trkpt>
      <trkpt lat="39.68235" lon="-8.63592">
        <ele>252</ele>
        <time>2019-05-17T10:03:14Z</time>
      </trkpt>
      <trkpt lat="39.68233" lon="-8.63594">
        <ele>252</ele>
        <time>2019-05-17T10:03:50Z</time>
      </trkpt>
      <trkpt lat="39.68234" lon="-8.63593">
        <ele>252.48</ele>
        <time>2019-05-17T10:04:22Z</time>
      </trkpt>
      <trkpt lat="39.68236" lon="-8.63593">
        <ele>254.89</ele>
        <time>2019-05-17T10:04:53Z</time>
      </trkpt>
      <trkpt lat="39.68239" lon="-8.63595">
        <ele>253.44</ele>
        <time>2019-05-17T10:05:21Z</time>
      </trkpt>
      <trkpt lat="39.68243" lon="-8.63599">
        <ele>254.89</ele>
        <time>2019-05-17T10:05:49Z</time>
      </trkpt>
      <trkpt lat="39.68242" lon="-8.63604">
        <ele>254.89</ele>
        <time>2019-05-17T10:06:16Z</time>
      </trkpt>
      <trkpt lat="39.68242" lon="-8.63603">
        <ele>254.41</ele>
        <time>2019-05-17T10:06:45Z</time>
      </trkpt>
      <trkpt lat="39.68245" lon="-8.63598">
        <ele>254.41</ele>
        <time>2019-05-17T10:07:12Z</time>
      </trkpt>
      <trkpt lat="39.68244" lon="-8.63598">
        <ele>254.89</ele>
        <time>2019-05-17T10:07:34Z</time>
      </trkpt>
      <trkpt lat="39.6824" lon="-8.636">
        <ele>254.89</ele>
        <time>2019-05-17T10:08:12Z</time>
      </trkpt>
      <trkpt lat="39.68242" lon="-8.63601">
        <ele>255.37</ele>
        <time>2019-05-17T10:08:39Z</time>
      </trkpt>
      <trkpt lat="39.68243" lon="-8.63596">
        <ele>256.33</ele>
        <time>2019-05-17T10:08:51Z</time>
      </trkpt>
      <trkpt lat="39.68243" lon="-8.63595">
        <ele>256.33</ele>
        <time>2019-05-17T10:08:55Z</time>
      </trkpt>
      <trkpt lat="39.68243" lon="-8.63596">
        <ele>255.85</ele>
        <time>2019-05-17T10:09:09Z</time>
      </trkpt>
      <trkpt lat="39.68245" lon="-8.63591">
        <ele>255.85</ele>
        <time>2019-05-17T10:09:21Z</time>
      </trkpt>
      <trkpt lat="39.68245" lon="-8.6359">
        <ele>255.85</ele>
        <time>2019-05-17T10:09:22Z</time>
      </trkpt>
      <trkpt lat="39.68251" lon="-8.63579">
        <ele>253.44</ele>
        <time>2019-05-17T10:09:33Z</time>
      </trkpt>
      <trkpt lat="39.68257" lon="-8.63565">
        <ele>253.44</ele>
        <time>2019-05-17T10:09:45Z</time>
      </trkpt>
      <trkpt lat="39.68268" lon="-8.63552">
        <ele>254.41</ele>
        <time>2019-05-17T10:09:58Z</time>
      </trkpt>
      <trkpt lat="39.6827" lon="-8.63549">
        <ele>252.96</ele>
        <time>2019-05-17T10:10:01Z</time>
      </trkpt>
      <trkpt lat="39.68271" lon="-8.63546">
        <ele>252.96</ele>
        <time>2019-05-17T10:10:03Z</time>
      </trkpt>
      <trkpt lat="39.68283" lon="-8.63531">
        <ele>251.52</ele>
        <time>2019-05-17T10:10:16Z</time>
      </trkpt>
      <trkpt lat="39.6829" lon="-8.63524">
        <ele>251.04</ele>
        <time>2019-05-17T10:10:24Z</time>
      </trkpt>
      <trkpt lat="39.68304" lon="-8.6351">
        <ele>249.12</ele>
        <time>2019-05-17T10:10:38Z</time>
      </trkpt>
      <trkpt lat="39.68311" lon="-8.63503">
        <ele>248.16</ele>
        <time>2019-05-17T10:10:50Z</time>
      </trkpt>
      <trkpt lat="39.68323" lon="-8.63489">
        <ele>247.2</ele>
        <time>2019-05-17T10:11:03Z</time>
      </trkpt>
      <trkpt lat="39.68338" lon="-8.63474">
        <ele>246.72</ele>
        <time>2019-05-17T10:11:18Z</time>
      </trkpt>
      <trkpt lat="39.68355" lon="-8.63458">
        <ele>244.79</ele>
        <time>2019-05-17T10:11:35Z</time>
      </trkpt>
      <trkpt lat="39.68373" lon="-8.63439">
        <ele>242.39</ele>
        <time>2019-05-17T10:11:52Z</time>
      </trkpt>
      <trkpt lat="39.68376" lon="-8.63435">
        <ele>241.91</ele>
        <time>2019-05-17T10:12:05Z</time>
      </trkpt>
      <trkpt lat="39.68382" lon="-8.63419">
        <ele>241.91</ele>
        <time>2019-05-17T10:12:18Z</time>
      </trkpt>
      <trkpt lat="39.68387" lon="-8.63394">
        <ele>240.95</ele>
        <time>2019-05-17T10:12:33Z</time>
      </trkpt>
      <trkpt lat="39.6839" lon="-8.63381">
        <ele>239.99</ele>
        <time>2019-05-17T10:12:41Z</time>
      </trkpt>
      <trkpt lat="39.68391" lon="-8.63377">
        <ele>239.51</ele>
        <time>2019-05-17T10:12:44Z</time>
      </trkpt>
      <trkpt lat="39.68394" lon="-8.63369">
        <ele>239.99</ele>
        <time>2019-05-17T10:12:50Z</time>
      </trkpt>
      <trkpt lat="39.68401" lon="-8.63354">
        <ele>239.51</ele>
        <time>2019-05-17T10:13:04Z</time>
      </trkpt>
      <trkpt lat="39.68401" lon="-8.63353">
        <ele>239.51</ele>
        <time>2019-05-17T10:13:05Z</time>
      </trkpt>
      <trkpt lat="39.68403" lon="-8.63347">
        <ele>237.58</ele>
        <time>2019-05-17T10:13:09Z</time>
      </trkpt>
      <trkpt lat="39.68403" lon="-8.63346">
        <ele>238.06</ele>
        <time>2019-05-17T10:13:10Z</time>
      </trkpt>
      <trkpt lat="39.68403" lon="-8.6334">
        <ele>236.62</ele>
        <time>2019-05-17T10:13:12Z</time>
      </trkpt>
      <trkpt lat="39.68405" lon="-8.63331">
        <ele>236.62</ele>
        <time>2019-05-17T10:13:17Z</time>
      </trkpt>
      <trkpt lat="39.68414" lon="-8.63302">
        <ele>237.58</ele>
        <time>2019-05-17T10:13:33Z</time>
      </trkpt>
      <trkpt lat="39.68422" lon="-8.63281">
        <ele>236.14</ele>
        <time>2019-05-17T10:13:48Z</time>
      </trkpt>
      <trkpt lat="39.68427" lon="-8.63266">
        <ele>236.14</ele>
        <time>2019-05-17T10:14:01Z</time>
      </trkpt>
      <trkpt lat="39.68437" lon="-8.63247">
        <ele>235.18</ele>
        <time>2019-05-17T10:14:14Z</time>
      </trkpt>
      <trkpt lat="39.68441" lon="-8.63236">
        <ele>234.7</ele>
        <time>2019-05-17T10:14:27Z</time>
      </trkpt>
      <trkpt lat="39.6845" lon="-8.63217">
        <ele>234.22</ele>
        <time>2019-05-17T10:14:41Z</time>
      </trkpt>
      <trkpt lat="39.68458" lon="-8.63201">
        <ele>233.26</ele>
        <time>2019-05-17T10:14:53Z</time>
      </trkpt>
      <trkpt lat="39.68471" lon="-8.63189">
        <ele>232.78</ele>
        <time>2019-05-17T10:15:05Z</time>
      </trkpt>
      <trkpt lat="39.68477" lon="-8.63185">
        <ele>232.3</ele>
        <time>2019-05-17T10:15:11Z</time>
      </trkpt>
      <trkpt lat="39.68487" lon="-8.63168">
        <ele>231.81</ele>
        <time>2019-05-17T10:15:22Z</time>
      </trkpt>
      <trkpt lat="39.68503" lon="-8.63148">
        <ele>232.3</ele>
        <time>2019-05-17T10:15:38Z</time>
      </trkpt>
      <trkpt lat="39.68508" lon="-8.63143">
        <ele>231.81</ele>
        <time>2019-05-17T10:15:43Z</time>
      </trkpt>
      <trkpt lat="39.68511" lon="-8.63138">
        <ele>231.33</ele>
        <time>2019-05-17T10:15:48Z</time>
      </trkpt>
      <trkpt lat="39.68519" lon="-8.6312">
        <ele>230.85</ele>
        <time>2019-05-17T10:16:01Z</time>
      </trkpt>
      <trkpt lat="39.68521" lon="-8.63115">
        <ele>231.33</ele>
        <time>2019-05-17T10:16:07Z</time>
      </trkpt>
      <trkpt lat="39.68526" lon="-8.63097">
        <ele>231.33</ele>
        <time>2019-05-17T10:16:20Z</time>
      </trkpt>
      <trkpt lat="39.68528" lon="-8.6309">
        <ele>230.85</ele>
        <time>2019-05-17T10:16:25Z</time>
      </trkpt>
      <trkpt lat="39.68531" lon="-8.63081">
        <ele>230.37</ele>
        <time>2019-05-17T10:16:32Z</time>
      </trkpt>
      <trkpt lat="39.68532" lon="-8.63076">
        <ele>230.85</ele>
        <time>2019-05-17T10:16:37Z</time>
      </trkpt>
      <trkpt lat="39.68533" lon="-8.63073">
        <ele>230.37</ele>
        <time>2019-05-17T10:16:39Z</time>
      </trkpt>
      <trkpt lat="39.6854" lon="-8.63054">
        <ele>229.89</ele>
        <time>2019-05-17T10:16:53Z</time>
      </trkpt>
      <trkpt lat="39.68548" lon="-8.63035">
        <ele>229.41</ele>
        <time>2019-05-17T10:17:06Z</time>
      </trkpt>
      <trkpt lat="39.68545" lon="-8.63037">
        <ele>229.41</ele>
        <time>2019-05-17T10:17:21Z</time>
      </trkpt>
      <trkpt lat="39.6855" lon="-8.63023">
        <ele>228.93</ele>
        <time>2019-05-17T10:17:35Z</time>
      </trkpt>
      <trkpt lat="39.68556" lon="-8.63019">
        <ele>228.45</ele>
        <time>2019-05-17T10:17:48Z</time>
      </trkpt>
      <trkpt lat="39.68569" lon="-8.63013">
        <ele>228.93</ele>
        <time>2019-05-17T10:17:59Z</time>
      </trkpt>
      <trkpt lat="39.68586" lon="-8.63006">
        <ele>228.93</ele>
        <time>2019-05-17T10:18:13Z</time>
      </trkpt>
      <trkpt lat="39.68601" lon="-8.62999">
        <ele>230.37</ele>
        <time>2019-05-17T10:18:27Z</time>
      </trkpt>
      <trkpt lat="39.68615" lon="-8.62989">
        <ele>231.33</ele>
        <time>2019-05-17T10:18:41Z</time>
      </trkpt>
      <trkpt lat="39.6863" lon="-8.62981">
        <ele>231.81</ele>
        <time>2019-05-17T10:18:56Z</time>
      </trkpt>
      <trkpt lat="39.68634" lon="-8.62978">
        <ele>232.78</ele>
        <time>2019-05-17T10:19:00Z</time>
      </trkpt>
      <trkpt lat="39.68647" lon="-8.62969">
        <ele>233.74</ele>
        <time>2019-05-17T10:19:14Z</time>
      </trkpt>
      <trkpt lat="39.6866" lon="-8.62961">
        <ele>234.7</ele>
        <time>2019-05-17T10:19:28Z</time>
      </trkpt>
      <trkpt lat="39.68662" lon="-8.6296">
        <ele>235.18</ele>
        <time>2019-05-17T10:19:30Z</time>
      </trkpt>
      <trkpt lat="39.68679" lon="-8.62951">
        <ele>236.14</ele>
        <time>2019-05-17T10:19:46Z</time>
      </trkpt>
      <trkpt lat="39.68694" lon="-8.6294">
        <ele>237.1</ele>
        <time>2019-05-17T10:20:02Z</time>
      </trkpt>
      <trkpt lat="39.68707" lon="-8.62929">
        <ele>237.58</ele>
        <time>2019-05-17T10:20:16Z</time>
      </trkpt>
      <trkpt lat="39.68718" lon="-8.62922">
        <ele>239.51</ele>
        <time>2019-05-17T10:20:30Z</time>
      </trkpt>
      <trkpt lat="39.68721" lon="-8.62919">
        <ele>239.99</ele>
        <time>2019-05-17T10:20:33Z</time>
      </trkpt>
      <trkpt lat="39.68733" lon="-8.62906">
        <ele>239.99</ele>
        <time>2019-05-17T10:20:49Z</time>
      </trkpt>
      <trkpt lat="39.68738" lon="-8.62902">
        <ele>240.95</ele>
        <time>2019-05-17T10:20:54Z</time>
      </trkpt>
      <trkpt lat="39.68749" lon="-8.62893">
        <ele>241.91</ele>
        <time>2019-05-17T10:21:06Z</time>
      </trkpt>
      <trkpt lat="39.68751" lon="-8.6289">
        <ele>241.43</ele>
        <time>2019-05-17T10:21:09Z</time>
      </trkpt>
      <trkpt lat="39.68764" lon="-8.62875">
        <ele>243.35</ele>
        <time>2019-05-17T10:21:25Z</time>
      </trkpt>
      <trkpt lat="39.68767" lon="-8.6287">
        <ele>244.31</ele>
        <time>2019-05-17T10:21:31Z</time>
      </trkpt>
      <trkpt lat="39.68776" lon="-8.62847">
        <ele>244.31</ele>
        <time>2019-05-17T10:21:47Z</time>
      </trkpt>
      <trkpt lat="39.68781" lon="-8.6283">
        <ele>244.79</ele>
        <time>2019-05-17T10:22:00Z</time>
      </trkpt>
      <trkpt lat="39.68789" lon="-8.62812">
        <ele>245.75</ele>
        <time>2019-05-17T10:22:14Z</time>
      </trkpt>
      <trkpt lat="39.68791" lon="-8.62803">
        <ele>245.75</ele>
        <time>2019-05-17T10:22:20Z</time>
      </trkpt>
      <trkpt lat="39.68792" lon="-8.62797">
        <ele>246.23</ele>
        <time>2019-05-17T10:22:24Z</time>
      </trkpt>
      <trkpt lat="39.688" lon="-8.62776">
        <ele>246.72</ele>
        <time>2019-05-17T10:22:39Z</time>
      </trkpt>
      <trkpt lat="39.688" lon="-8.62767">
        <ele>246.72</ele>
        <time>2019-05-17T10:22:51Z</time>
      </trkpt>
      <trkpt lat="39.688" lon="-8.62757">
        <ele>245.75</ele>
        <time>2019-05-17T10:23:06Z</time>
      </trkpt>
      <trkpt lat="39.688" lon="-8.62754">
        <ele>245.75</ele>
        <time>2019-05-17T10:23:08Z</time>
      </trkpt>
      <trkpt lat="39.688" lon="-8.62732">
        <ele>245.27</ele>
        <time>2019-05-17T10:23:21Z</time>
      </trkpt>
      <trkpt lat="39.688" lon="-8.62709">
        <ele>244.31</ele>
        <time>2019-05-17T10:23:36Z</time>
      </trkpt>
      <trkpt lat="39.68798" lon="-8.62691">
        <ele>243.35</ele>
        <time>2019-05-17T10:23:47Z</time>
      </trkpt>
      <trkpt lat="39.68802" lon="-8.62681">
        <ele>242.39</ele>
        <time>2019-05-17T10:23:55Z</time>
      </trkpt>
      <trkpt lat="39.68799" lon="-8.6266">
        <ele>242.39</ele>
        <time>2019-05-17T10:24:09Z</time>
      </trkpt>
      <trkpt lat="39.68799" lon="-8.62653">
        <ele>243.35</ele>
        <time>2019-05-17T10:24:14Z</time>
      </trkpt>
      <trkpt lat="39.68796" lon="-8.62629">
        <ele>242.39</ele>
        <time>2019-05-17T10:24:29Z</time>
      </trkpt>
      <trkpt lat="39.68796" lon="-8.6262">
        <ele>241.91</ele>
        <time>2019-05-17T10:24:34Z</time>
      </trkpt>
      <trkpt lat="39.68793" lon="-8.62599">
        <ele>239.99</ele>
        <time>2019-05-17T10:24:48Z</time>
      </trkpt>
      <trkpt lat="39.6879" lon="-8.62577">
        <ele>237.58</ele>
        <time>2019-05-17T10:25:02Z</time>
      </trkpt>
      <trkpt lat="39.6879" lon="-8.62568">
        <ele>238.06</ele>
        <time>2019-05-17T10:25:08Z</time>
      </trkpt>
      <trkpt lat="39.68792" lon="-8.62554">
        <ele>237.1</ele>
        <time>2019-05-17T10:25:21Z</time>
      </trkpt>
      <trkpt lat="39.68793" lon="-8.62543">
        <ele>236.14</ele>
        <time>2019-05-17T10:25:30Z</time>
      </trkpt>
      <trkpt lat="39.68792" lon="-8.62533">
        <ele>235.66</ele>
        <time>2019-05-17T10:25:38Z</time>
      </trkpt>
      <trkpt lat="39.68787" lon="-8.62516">
        <ele>233.74</ele>
        <time>2019-05-17T10:25:51Z</time>
      </trkpt>
      <trkpt lat="39.68787" lon="-8.62515">
        <ele>233.74</ele>
        <time>2019-05-17T10:25:52Z</time>
      </trkpt>
      <trkpt lat="39.68784" lon="-8.62496">
        <ele>233.26</ele>
        <time>2019-05-17T10:26:03Z</time>
      </trkpt>
      <trkpt lat="39.68783" lon="-8.62485">
        <ele>232.78</ele>
        <time>2019-05-17T10:26:08Z</time>
      </trkpt>
      <trkpt lat="39.68782" lon="-8.62476">
        <ele>232.78</ele>
        <time>2019-05-17T10:26:15Z</time>
      </trkpt>
      <trkpt lat="39.68783" lon="-8.62469">
        <ele>232.3</ele>
        <time>2019-05-17T10:26:25Z</time>
      </trkpt>
      <trkpt lat="39.68782" lon="-8.62447">
        <ele>231.81</ele>
        <time>2019-05-17T10:26:37Z</time>
      </trkpt>
      <trkpt lat="39.68781" lon="-8.62434">
        <ele>230.85</ele>
        <time>2019-05-17T10:26:49Z</time>
      </trkpt>
      <trkpt lat="39.68781" lon="-8.62432">
        <ele>231.33</ele>
        <time>2019-05-17T10:26:50Z</time>
      </trkpt>
      <trkpt lat="39.68783" lon="-8.62421">
        <ele>230.85</ele>
        <time>2019-05-17T10:27:02Z</time>
      </trkpt>
      <trkpt lat="39.68786" lon="-8.62422">
        <ele>231.33</ele>
        <time>2019-05-17T10:27:20Z</time>
      </trkpt>
      <trkpt lat="39.68786" lon="-8.62421">
        <ele>230.85</ele>
        <time>2019-05-17T10:27:21Z</time>
      </trkpt>
      <trkpt lat="39.68775" lon="-8.62421">
        <ele>230.85</ele>
        <time>2019-05-17T10:27:35Z</time>
      </trkpt>
      <trkpt lat="39.68775" lon="-8.62422">
        <ele>230.37</ele>
        <time>2019-05-17T10:27:56Z</time>
      </trkpt>
      <trkpt lat="39.68779" lon="-8.62422">
        <ele>230.37</ele>
        <time>2019-05-17T10:28:14Z</time>
      </trkpt>
      <trkpt lat="39.68782" lon="-8.62405">
        <ele>229.89</ele>
        <time>2019-05-17T10:28:28Z</time>
      </trkpt>
      <trkpt lat="39.68781" lon="-8.62393">
        <ele>229.41</ele>
        <time>2019-05-17T10:28:39Z</time>
      </trkpt>
      <trkpt lat="39.68781" lon="-8.62391">
        <ele>229.41</ele>
        <time>2019-05-17T10:28:41Z</time>
      </trkpt>
      <trkpt lat="39.6878" lon="-8.62387">
        <ele>229.41</ele>
        <time>2019-05-17T10:28:44Z</time>
      </trkpt>
      <trkpt lat="39.6878" lon="-8.62386">
        <ele>229.89</ele>
        <time>2019-05-17T10:28:45Z</time>
      </trkpt>
      <trkpt lat="39.68774" lon="-8.62361">
        <ele>228.45</ele>
        <time>2019-05-17T10:29:00Z</time>
      </trkpt>
      <trkpt lat="39.68769" lon="-8.62339">
        <ele>227.49</ele>
        <time>2019-05-17T10:29:15Z</time>
      </trkpt>
      <trkpt lat="39.68767" lon="-8.62337">
        <ele>227.97</ele>
        <time>2019-05-17T10:29:22Z</time>
      </trkpt>
      <trkpt lat="39.68762" lon="-8.6232">
        <ele>226.53</ele>
        <time>2019-05-17T10:29:35Z</time>
      </trkpt>
      <trkpt lat="39.68759" lon="-8.62306">
        <ele>226.53</ele>
        <time>2019-05-17T10:29:45Z</time>
      </trkpt>
      <trkpt lat="39.68755" lon="-8.623">
        <ele>225.57</ele>
        <time>2019-05-17T10:29:51Z</time>
      </trkpt>
      <trkpt lat="39.68753" lon="-8.62288">
        <ele>225.09</ele>
        <time>2019-05-17T10:30:03Z</time>
      </trkpt>
      <trkpt lat="39.68753" lon="-8.62281">
        <ele>225.09</ele>
        <time>2019-05-17T10:30:16Z</time>
      </trkpt>
      <trkpt lat="39.68752" lon="-8.62274">
        <ele>224.12</ele>
        <time>2019-05-17T10:30:34Z</time>
      </trkpt>
      <trkpt lat="39.68753" lon="-8.62265">
        <ele>223.64</ele>
        <time>2019-05-17T10:30:40Z</time>
      </trkpt>
      <trkpt lat="39.68752" lon="-8.62249">
        <ele>221.72</ele>
        <time>2019-05-17T10:30:50Z</time>
      </trkpt>
      <trkpt lat="39.68752" lon="-8.62237">
        <ele>221.24</ele>
        <time>2019-05-17T10:30:58Z</time>
      </trkpt>
      <trkpt lat="39.6875" lon="-8.62225">
        <ele>221.72</ele>
        <time>2019-05-17T10:31:06Z</time>
      </trkpt>
      <trkpt lat="39.68751" lon="-8.6222">
        <ele>220.28</ele>
        <time>2019-05-17T10:31:09Z</time>
      </trkpt>
      <trkpt lat="39.68753" lon="-8.62214">
        <ele>221.24</ele>
        <time>2019-05-17T10:31:13Z</time>
      </trkpt>
      <trkpt lat="39.68756" lon="-8.62207">
        <ele>221.24</ele>
        <time>2019-05-17T10:31:17Z</time>
      </trkpt>
      <trkpt lat="39.68753" lon="-8.62185">
        <ele>219.8</ele>
        <time>2019-05-17T10:31:31Z</time>
      </trkpt>
      <trkpt lat="39.68747" lon="-8.62164">
        <ele>218.84</ele>
        <time>2019-05-17T10:31:45Z</time>
      </trkpt>
      <trkpt lat="39.68747" lon="-8.62156">
        <ele>217.88</ele>
        <time>2019-05-17T10:31:53Z</time>
      </trkpt>
      <trkpt lat="39.68751" lon="-8.62148">
        <ele>215.95</ele>
        <time>2019-05-17T10:32:05Z</time>
      </trkpt>
      <trkpt lat="39.68748" lon="-8.62149">
        <ele>216.91</ele>
        <time>2019-05-17T10:32:19Z</time>
      </trkpt>
      <trkpt lat="39.6875" lon="-8.62149">
        <ele>216.91</ele>
        <time>2019-05-17T10:32:44Z</time>
      </trkpt>
      <trkpt lat="39.68742" lon="-8.62148">
        <ele>217.4</ele>
        <time>2019-05-17T10:32:58Z</time>
      </trkpt>
      <trkpt lat="39.68745" lon="-8.62149">
        <ele>217.4</ele>
        <time>2019-05-17T10:33:11Z</time>
      </trkpt>
      <trkpt lat="39.68749" lon="-8.62148">
        <ele>216.91</ele>
        <time>2019-05-17T10:33:29Z</time>
      </trkpt>
      <trkpt lat="39.68766" lon="-8.62144">
        <ele>214.99</ele>
        <time>2019-05-17T10:33:42Z</time>
      </trkpt>
      <trkpt lat="39.68775" lon="-8.62139">
        <ele>213.55</ele>
        <time>2019-05-17T10:33:49Z</time>
      </trkpt>
      <trkpt lat="39.68779" lon="-8.62135">
        <ele>213.07</ele>
        <time>2019-05-17T10:33:53Z</time>
      </trkpt>
      <trkpt lat="39.68782" lon="-8.6213">
        <ele>211.15</ele>
        <time>2019-05-17T10:33:59Z</time>
      </trkpt>
      <trkpt lat="39.68786" lon="-8.62127">
        <ele>211.15</ele>
        <time>2019-05-17T10:34:02Z</time>
      </trkpt>
      <trkpt lat="39.68792" lon="-8.62106">
        <ele>208.26</ele>
        <time>2019-05-17T10:34:16Z</time>
      </trkpt>
      <trkpt lat="39.68794" lon="-8.62102">
        <ele>206.82</ele>
        <time>2019-05-17T10:34:20Z</time>
      </trkpt>
      <trkpt lat="39.688" lon="-8.62087">
        <ele>205.38</ele>
        <time>2019-05-17T10:34:31Z</time>
      </trkpt>
      <trkpt lat="39.68808" lon="-8.62069">
        <ele>203.94</ele>
        <time>2019-05-17T10:34:44Z</time>
      </trkpt>
      <trkpt lat="39.68814" lon="-8.6206">
        <ele>203.46</ele>
        <time>2019-05-17T10:34:51Z</time>
      </trkpt>
      <trkpt lat="39.68823" lon="-8.62047">
        <ele>202.49</ele>
        <time>2019-05-17T10:35:06Z</time>
      </trkpt>
      <trkpt lat="39.68824" lon="-8.62047">
        <ele>202.01</ele>
        <time>2019-05-17T10:35:13Z</time>
      </trkpt>
      <trkpt lat="39.68826" lon="-8.62045">
        <ele>202.49</ele>
        <time>2019-05-17T10:35:15Z</time>
      </trkpt>
      <trkpt lat="39.68838" lon="-8.62025">
        <ele>200.57</ele>
        <time>2019-05-17T10:35:32Z</time>
      </trkpt>
      <trkpt lat="39.68851" lon="-8.62004">
        <ele>201.05</ele>
        <time>2019-05-17T10:35:48Z</time>
      </trkpt>
      <trkpt lat="39.68852" lon="-8.62001">
        <ele>200.57</ele>
        <time>2019-05-17T10:35:50Z</time>
      </trkpt>
      <trkpt lat="39.68868" lon="-8.61989">
        <ele>200.57</ele>
        <time>2019-05-17T10:36:06Z</time>
      </trkpt>
      <trkpt lat="39.6888" lon="-8.61977">
        <ele>200.57</ele>
        <time>2019-05-17T10:36:18Z</time>
      </trkpt>
      <trkpt lat="39.68887" lon="-8.61967">
        <ele>202.01</ele>
        <time>2019-05-17T10:36:27Z</time>
      </trkpt>
      <trkpt lat="39.68901" lon="-8.61953">
        <ele>202.01</ele>
        <time>2019-05-17T10:36:41Z</time>
      </trkpt>
      <trkpt lat="39.68911" lon="-8.61943">
        <ele>202.98</ele>
        <time>2019-05-17T10:36:54Z</time>
      </trkpt>
      <trkpt lat="39.68911" lon="-8.61943">
        <ele>202.98</ele>
        <time>2019-05-17T10:36:55Z</time>
      </trkpt>
      <trkpt lat="39.68917" lon="-8.61938">
        <ele>203.46</ele>
        <time>2019-05-17T10:37:01Z</time>
      </trkpt>
      <trkpt lat="39.68926" lon="-8.61927">
        <ele>203.94</ele>
        <time>2019-05-17T10:37:11Z</time>
      </trkpt>
      <trkpt lat="39.68934" lon="-8.61914">
        <ele>204.42</ele>
        <time>2019-05-17T10:37:24Z</time>
      </trkpt>
      <trkpt lat="39.68942" lon="-8.61896">
        <ele>205.86</ele>
        <time>2019-05-17T10:37:39Z</time>
      </trkpt>
      <trkpt lat="39.68946" lon="-8.61884">
        <ele>205.86</ele>
        <time>2019-05-17T10:37:51Z</time>
      </trkpt>
      <trkpt lat="39.68949" lon="-8.61879">
        <ele>205.38</ele>
        <time>2019-05-17T10:37:58Z</time>
      </trkpt>
      <trkpt lat="39.68953" lon="-8.61881">
        <ele>205.86</ele>
        <time>2019-05-17T10:38:03Z</time>
      </trkpt>
      <trkpt lat="39.68954" lon="-8.61882">
        <ele>205.38</ele>
        <time>2019-05-17T10:38:05Z</time>
      </trkpt>
      <trkpt lat="39.68958" lon="-8.61887">
        <ele>206.82</ele>
        <time>2019-05-17T10:38:11Z</time>
      </trkpt>
      <trkpt lat="39.68963" lon="-8.61892">
        <ele>207.3</ele>
        <time>2019-05-17T10:38:16Z</time>
      </trkpt>
      <trkpt lat="39.68965" lon="-8.61893">
        <ele>207.3</ele>
        <time>2019-05-17T10:38:18Z</time>
      </trkpt>
      <trkpt lat="39.68967" lon="-8.61895">
        <ele>207.3</ele>
        <time>2019-05-17T10:38:20Z</time>
      </trkpt>
      <trkpt lat="39.68983" lon="-8.619">
        <ele>209.22</ele>
        <time>2019-05-17T10:38:36Z</time>
      </trkpt>
      <trkpt lat="39.68999" lon="-8.61903">
        <ele>210.67</ele>
        <time>2019-05-17T10:38:52Z</time>
      </trkpt>
      <trkpt lat="39.69007" lon="-8.61905">
        <ele>212.11</ele>
        <time>2019-05-17T10:39:04Z</time>
      </trkpt>
      <trkpt lat="39.69012" lon="-8.61907">
        <ele>213.55</ele>
        <time>2019-05-17T10:39:19Z</time>
      </trkpt>
      <trkpt lat="39.69023" lon="-8.6191">
        <ele>214.99</ele>
        <time>2019-05-17T10:39:32Z</time>
      </trkpt>
      <trkpt lat="39.69038" lon="-8.61911">
        <ele>216.43</ele>
        <time>2019-05-17T10:39:47Z</time>
      </trkpt>
      <trkpt lat="39.6905" lon="-8.61905">
        <ele>217.4</ele>
        <time>2019-05-17T10:40:00Z</time>
      </trkpt>
      <trkpt lat="39.69062" lon="-8.61894">
        <ele>218.36</ele>
        <time>2019-05-17T10:40:15Z</time>
      </trkpt>
      <trkpt lat="39.69075" lon="-8.61883">
        <ele>219.32</ele>
        <time>2019-05-17T10:40:31Z</time>
      </trkpt>
      <trkpt lat="39.6909" lon="-8.61875">
        <ele>222.2</ele>
        <time>2019-05-17T10:40:48Z</time>
      </trkpt>
      <trkpt lat="39.69102" lon="-8.61872">
        <ele>222.68</ele>
        <time>2019-05-17T10:41:01Z</time>
      </trkpt>
      <trkpt lat="39.6911" lon="-8.6187">
        <ele>223.64</ele>
        <time>2019-05-17T10:41:10Z</time>
      </trkpt>
      <trkpt lat="39.69124" lon="-8.61868">
        <ele>226.05</ele>
        <time>2019-05-17T10:41:24Z</time>
      </trkpt>
      <trkpt lat="39.69134" lon="-8.61862">
        <ele>226.53</ele>
        <time>2019-05-17T10:41:35Z</time>
      </trkpt>
      <trkpt lat="39.69144" lon="-8.61846">
        <ele>226.05</ele>
        <time>2019-05-17T10:41:51Z</time>
      </trkpt>
      <trkpt lat="39.69156" lon="-8.61833">
        <ele>224.12</ele>
        <time>2019-05-17T10:42:05Z</time>
      </trkpt>
      <trkpt lat="39.6917" lon="-8.61842">
        <ele>222.2</ele>
        <time>2019-05-17T10:42:19Z</time>
      </trkpt>
      <trkpt lat="39.69174" lon="-8.61847">
        <ele>223.16</ele>
        <time>2019-05-17T10:42:32Z</time>
      </trkpt>
      <trkpt lat="39.69178" lon="-8.61847">
        <ele>222.68</ele>
        <time>2019-05-17T10:42:39Z</time>
      </trkpt>
      <trkpt lat="39.69188" lon="-8.61842">
        <ele>220.76</ele>
        <time>2019-05-17T10:42:47Z</time>
      </trkpt>
      <trkpt lat="39.69206" lon="-8.61838">
        <ele>219.32</ele>
        <time>2019-05-17T10:43:03Z</time>
      </trkpt>
      <trkpt lat="39.69214" lon="-8.61842">
        <ele>218.36</ele>
        <time>2019-05-17T10:43:10Z</time>
      </trkpt>
      <trkpt lat="39.69231" lon="-8.61853">
        <ele>215.95</ele>
        <time>2019-05-17T10:43:25Z</time>
      </trkpt>
      <trkpt lat="39.69245" lon="-8.61851">
        <ele>214.99</ele>
        <time>2019-05-17T10:43:36Z</time>
      </trkpt>
      <trkpt lat="39.69249" lon="-8.6185">
        <ele>214.51</ele>
        <time>2019-05-17T10:43:40Z</time>
      </trkpt>
      <trkpt lat="39.69255" lon="-8.61852">
        <ele>214.03</ele>
        <time>2019-05-17T10:43:46Z</time>
      </trkpt>
      <trkpt lat="39.69267" lon="-8.61851">
        <ele>213.55</ele>
        <time>2019-05-17T10:43:57Z</time>
      </trkpt>
      <trkpt lat="39.6928" lon="-8.61843">
        <ele>211.63</ele>
        <time>2019-05-17T10:44:10Z</time>
      </trkpt>
      <trkpt lat="39.69294" lon="-8.61821">
        <ele>208.74</ele>
        <time>2019-05-17T10:44:27Z</time>
      </trkpt>
      <trkpt lat="39.69305" lon="-8.61802">
        <ele>207.3</ele>
        <time>2019-05-17T10:44:42Z</time>
      </trkpt>
      <trkpt lat="39.69318" lon="-8.61784">
        <ele>206.34</ele>
        <time>2019-05-17T10:44:57Z</time>
      </trkpt>
      <trkpt lat="39.69322" lon="-8.61775">
        <ele>205.86</ele>
        <time>2019-05-17T10:45:04Z</time>
      </trkpt>
      <trkpt lat="39.69325" lon="-8.61764">
        <ele>205.38</ele>
        <time>2019-05-17T10:45:10Z</time>
      </trkpt>
      <trkpt lat="39.69324" lon="-8.61737">
        <ele>204.42</ele>
        <time>2019-05-17T10:45:27Z</time>
      </trkpt>
      <trkpt lat="39.69336" lon="-8.61721">
        <ele>204.42</ele>
        <time>2019-05-17T10:45:41Z</time>
      </trkpt>
      <trkpt lat="39.69352" lon="-8.61714">
        <ele>204.9</ele>
        <time>2019-05-17T10:45:55Z</time>
      </trkpt>
      <trkpt lat="39.69367" lon="-8.61708">
        <ele>205.38</ele>
        <time>2019-05-17T10:46:09Z</time>
      </trkpt>
      <trkpt lat="39.69384" lon="-8.61699">
        <ele>207.3</ele>
        <time>2019-05-17T10:46:24Z</time>
      </trkpt>
      <trkpt lat="39.69397" lon="-8.61693">
        <ele>208.26</ele>
        <time>2019-05-17T10:46:38Z</time>
      </trkpt>
      <trkpt lat="39.69409" lon="-8.61686">
        <ele>210.19</ele>
        <time>2019-05-17T10:46:54Z</time>
      </trkpt>
      <trkpt lat="39.69422" lon="-8.61674">
        <ele>213.07</ele>
        <time>2019-05-17T10:47:11Z</time>
      </trkpt>
      <trkpt lat="39.69424" lon="-8.61673">
        <ele>212.59</ele>
        <time>2019-05-17T10:47:13Z</time>
      </trkpt>
      <trkpt lat="39.69436" lon="-8.6167">
        <ele>214.03</ele>
        <time>2019-05-17T10:47:27Z</time>
      </trkpt>
      <trkpt lat="39.69447" lon="-8.61666">
        <ele>214.99</ele>
        <time>2019-05-17T10:47:40Z</time>
      </trkpt>
      <trkpt lat="39.69457" lon="-8.61669">
        <ele>215.95</ele>
        <time>2019-05-17T10:47:53Z</time>
      </trkpt>
      <trkpt lat="39.6947" lon="-8.61677">
        <ele>217.4</ele>
        <time>2019-05-17T10:48:10Z</time>
      </trkpt>
      <trkpt lat="39.69477" lon="-8.61681">
        <ele>218.36</ele>
        <time>2019-05-17T10:48:21Z</time>
      </trkpt>
      <trkpt lat="39.69491" lon="-8.61687">
        <ele>220.28</ele>
        <time>2019-05-17T10:48:36Z</time>
      </trkpt>
      <trkpt lat="39.69503" lon="-8.61691">
        <ele>221.24</ele>
        <time>2019-05-17T10:48:50Z</time>
      </trkpt>
      <trkpt lat="39.69513" lon="-8.61694">
        <ele>222.2</ele>
        <time>2019-05-17T10:49:03Z</time>
      </trkpt>
      <trkpt lat="39.69525" lon="-8.61697">
        <ele>223.64</ele>
        <time>2019-05-17T10:49:17Z</time>
      </trkpt>
      <trkpt lat="39.69537" lon="-8.61694">
        <ele>225.57</ele>
        <time>2019-05-17T10:49:32Z</time>
      </trkpt>
      <trkpt lat="39.69545" lon="-8.61695">
        <ele>226.05</ele>
        <time>2019-05-17T10:49:46Z</time>
      </trkpt>
      <trkpt lat="39.69555" lon="-8.61693">
        <ele>228.45</ele>
        <time>2019-05-17T10:50:00Z</time>
      </trkpt>
      <trkpt lat="39.69567" lon="-8.6169">
        <ele>230.85</ele>
        <time>2019-05-17T10:50:15Z</time>
      </trkpt>
      <trkpt lat="39.69579" lon="-8.61689">
        <ele>231.81</ele>
        <time>2019-05-17T10:50:31Z</time>
      </trkpt>
      <trkpt lat="39.69591" lon="-8.6169">
        <ele>234.22</ele>
        <time>2019-05-17T10:50:46Z</time>
      </trkpt>
      <trkpt lat="39.69603" lon="-8.61693">
        <ele>236.14</ele>
        <time>2019-05-17T10:51:00Z</time>
      </trkpt>
      <trkpt lat="39.69616" lon="-8.61697">
        <ele>237.58</ele>
        <time>2019-05-17T10:51:16Z</time>
      </trkpt>
      <trkpt lat="39.69625" lon="-8.617">
        <ele>238.54</ele>
        <time>2019-05-17T10:51:30Z</time>
      </trkpt>
      <trkpt lat="39.69634" lon="-8.61704">
        <ele>239.99</ele>
        <time>2019-05-17T10:51:47Z</time>
      </trkpt>
      <trkpt lat="39.69648" lon="-8.61705">
        <ele>241.91</ele>
        <time>2019-05-17T10:52:01Z</time>
      </trkpt>
      <trkpt lat="39.69656" lon="-8.61704">
        <ele>241.91</ele>
        <time>2019-05-17T10:52:09Z</time>
      </trkpt>
      <trkpt lat="39.69673" lon="-8.617">
        <ele>243.83</ele>
        <time>2019-05-17T10:52:26Z</time>
      </trkpt>
      <trkpt lat="39.6969" lon="-8.61697">
        <ele>245.75</ele>
        <time>2019-05-17T10:52:43Z</time>
      </trkpt>
      <trkpt lat="39.69695" lon="-8.61696">
        <ele>248.16</ele>
        <time>2019-05-17T10:52:49Z</time>
      </trkpt>
      <trkpt lat="39.6971" lon="-8.617">
        <ele>247.2</ele>
        <time>2019-05-17T10:53:05Z</time>
      </trkpt>
      <trkpt lat="39.69723" lon="-8.61696">
        <ele>250.56</ele>
        <time>2019-05-17T10:53:21Z</time>
      </trkpt>
      <trkpt lat="39.6973" lon="-8.61688">
        <ele>251.04</ele>
        <time>2019-05-17T10:53:32Z</time>
      </trkpt>
      <trkpt lat="39.69731" lon="-8.61686">
        <ele>251.52</ele>
        <time>2019-05-17T10:53:34Z</time>
      </trkpt>
      <trkpt lat="39.69742" lon="-8.61666">
        <ele>252.48</ele>
        <time>2019-05-17T10:53:50Z</time>
      </trkpt>
      <trkpt lat="39.69744" lon="-8.61661">
        <ele>252.96</ele>
        <time>2019-05-17T10:53:54Z</time>
      </trkpt>
      <trkpt lat="39.69751" lon="-8.61637">
        <ele>252.96</ele>
        <time>2019-05-17T10:54:10Z</time>
      </trkpt>
      <trkpt lat="39.69753" lon="-8.6161">
        <ele>253.93</ele>
        <time>2019-05-17T10:54:27Z</time>
      </trkpt>
      <trkpt lat="39.6975" lon="-8.61585">
        <ele>254.89</ele>
        <time>2019-05-17T10:54:44Z</time>
      </trkpt>
      <trkpt lat="39.69748" lon="-8.6156">
        <ele>255.37</ele>
        <time>2019-05-17T10:55:00Z</time>
      </trkpt>
      <trkpt lat="39.69743" lon="-8.61542">
        <ele>255.85</ele>
        <time>2019-05-17T10:55:15Z</time>
      </trkpt>
      <trkpt lat="39.69737" lon="-8.61522">
        <ele>256.81</ele>
        <time>2019-05-17T10:55:29Z</time>
      </trkpt>
      <trkpt lat="39.6973" lon="-8.61503">
        <ele>257.77</ele>
        <time>2019-05-17T10:55:44Z</time>
      </trkpt>
      <trkpt lat="39.69727" lon="-8.61484">
        <ele>260.65</ele>
        <time>2019-05-17T10:55:57Z</time>
      </trkpt>
      <trkpt lat="39.69727" lon="-8.61474">
        <ele>261.14</ele>
        <time>2019-05-17T10:56:10Z</time>
      </trkpt>
      <trkpt lat="39.69728" lon="-8.61459">
        <ele>261.14</ele>
        <time>2019-05-17T10:56:22Z</time>
      </trkpt>
      <trkpt lat="39.69737" lon="-8.61449">
        <ele>261.14</ele>
        <time>2019-05-17T10:56:36Z</time>
      </trkpt>
      <trkpt lat="39.69737" lon="-8.61451">
        <ele>261.14</ele>
        <time>2019-05-17T10:57:01Z</time>
      </trkpt>
      <trkpt lat="39.69735" lon="-8.61453">
        <ele>261.62</ele>
        <time>2019-05-17T10:57:30Z</time>
      </trkpt>
      <trkpt lat="39.69727" lon="-8.61451">
        <ele>261.14</ele>
        <time>2019-05-17T10:57:48Z</time>
      </trkpt>
      <trkpt lat="39.69727" lon="-8.61453">
        <ele>261.14</ele>
        <time>2019-05-17T10:58:15Z</time>
      </trkpt>
      <trkpt lat="39.69727" lon="-8.61449">
        <ele>261.14</ele>
        <time>2019-05-17T10:58:44Z</time>
      </trkpt>
      <trkpt lat="39.69728" lon="-8.61448">
        <ele>261.14</ele>
        <time>2019-05-17T10:58:45Z</time>
      </trkpt>
      <trkpt lat="39.69729" lon="-8.61435">
        <ele>261.62</ele>
        <time>2019-05-17T10:58:53Z</time>
      </trkpt>
      <trkpt lat="39.69732" lon="-8.61421">
        <ele>261.62</ele>
        <time>2019-05-17T10:59:02Z</time>
      </trkpt>
      <trkpt lat="39.69735" lon="-8.61399">
        <ele>261.62</ele>
        <time>2019-05-17T10:59:17Z</time>
      </trkpt>
      <trkpt lat="39.69741" lon="-8.61376">
        <ele>261.62</ele>
        <time>2019-05-17T10:59:31Z</time>
      </trkpt>
      <trkpt lat="39.69743" lon="-8.61352">
        <ele>260.65</ele>
        <time>2019-05-17T10:59:46Z</time>
      </trkpt>
      <trkpt lat="39.69746" lon="-8.61322">
        <ele>260.65</ele>
        <time>2019-05-17T11:00:03Z</time>
      </trkpt>
      <trkpt lat="39.69748" lon="-8.61295">
        <ele>259.21</ele>
        <time>2019-05-17T11:00:18Z</time>
      </trkpt>
      <trkpt lat="39.69751" lon="-8.61286">
        <ele>259.69</ele>
        <time>2019-05-17T11:00:25Z</time>
      </trkpt>
      <trkpt lat="39.69752" lon="-8.61269">
        <ele>259.69</ele>
        <time>2019-05-17T11:00:38Z</time>
      </trkpt>
      <trkpt lat="39.69752" lon="-8.61268">
        <ele>259.69</ele>
        <time>2019-05-17T11:00:39Z</time>
      </trkpt>
      <trkpt lat="39.69752" lon="-8.6126">
        <ele>259.69</ele>
        <time>2019-05-17T11:00:44Z</time>
      </trkpt>
      <trkpt lat="39.6975" lon="-8.61232">
        <ele>260.17</ele>
        <time>2019-05-17T11:00:59Z</time>
      </trkpt>
      <trkpt lat="39.69749" lon="-8.61212">
        <ele>259.21</ele>
        <time>2019-05-17T11:01:12Z</time>
      </trkpt>
      <trkpt lat="39.69748" lon="-8.61204">
        <ele>258.25</ele>
        <time>2019-05-17T11:01:17Z</time>
      </trkpt>
      <trkpt lat="39.69748" lon="-8.61198">
        <ele>258.25</ele>
        <time>2019-05-17T11:01:21Z</time>
      </trkpt>
      <trkpt lat="39.69744" lon="-8.61173">
        <ele>258.25</ele>
        <time>2019-05-17T11:01:38Z</time>
      </trkpt>
      <trkpt lat="39.69737" lon="-8.61151">
        <ele>257.29</ele>
        <time>2019-05-17T11:01:52Z</time>
      </trkpt>
      <trkpt lat="39.69733" lon="-8.61137">
        <ele>256.81</ele>
        <time>2019-05-17T11:02:03Z</time>
      </trkpt>
      <trkpt lat="39.69733" lon="-8.61134">
        <ele>256.81</ele>
        <time>2019-05-17T11:02:05Z</time>
      </trkpt>
      <trkpt lat="39.69727" lon="-8.61113">
        <ele>256.33</ele>
        <time>2019-05-17T11:02:19Z</time>
      </trkpt>
      <trkpt lat="39.69725" lon="-8.61102">
        <ele>255.37</ele>
        <time>2019-05-17T11:02:25Z</time>
      </trkpt>
      <trkpt lat="39.69716" lon="-8.61078">
        <ele>253.44</ele>
        <time>2019-05-17T11:02:39Z</time>
      </trkpt>
      <trkpt lat="39.6971" lon="-8.61069">
        <ele>253.44</ele>
        <time>2019-05-17T11:02:46Z</time>
      </trkpt>
      <trkpt lat="39.69704" lon="-8.6105">
        <ele>253.93</ele>
        <time>2019-05-17T11:02:58Z</time>
      </trkpt>
      <trkpt lat="39.69699" lon="-8.61039">
        <ele>252.96</ele>
        <time>2019-05-17T11:03:10Z</time>
      </trkpt>
      <trkpt lat="39.69693" lon="-8.61014">
        <ele>252</ele>
        <time>2019-05-17T11:03:25Z</time>
      </trkpt>
      <trkpt lat="39.69693" lon="-8.6101">
        <ele>252.96</ele>
        <time>2019-05-17T11:03:27Z</time>
      </trkpt>
      <trkpt lat="39.69692" lon="-8.61004">
        <ele>251.52</ele>
        <time>2019-05-17T11:03:30Z</time>
      </trkpt>
      <trkpt lat="39.69694" lon="-8.60974">
        <ele>251.52</ele>
        <time>2019-05-17T11:03:47Z</time>
      </trkpt>
      <trkpt lat="39.69696" lon="-8.60964">
        <ele>251.04</ele>
        <time>2019-05-17T11:03:53Z</time>
      </trkpt>
      <trkpt lat="39.69696" lon="-8.60942">
        <ele>251.04</ele>
        <time>2019-05-17T11:04:06Z</time>
      </trkpt>
      <trkpt lat="39.69695" lon="-8.60921">
        <ele>250.56</ele>
        <time>2019-05-17T11:04:20Z</time>
      </trkpt>
      <trkpt lat="39.69696" lon="-8.60914">
        <ele>250.08</ele>
        <time>2019-05-17T11:04:31Z</time>
      </trkpt>
      <trkpt lat="39.69705" lon="-8.60887">
        <ele>249.12</ele>
        <time>2019-05-17T11:04:49Z</time>
      </trkpt>
      <trkpt lat="39.69706" lon="-8.60882">
        <ele>250.08</ele>
        <time>2019-05-17T11:04:52Z</time>
      </trkpt>
      <trkpt lat="39.6971" lon="-8.60872">
        <ele>249.6</ele>
        <time>2019-05-17T11:04:59Z</time>
      </trkpt>
      <trkpt lat="39.69711" lon="-8.60849">
        <ele>250.56</ele>
        <time>2019-05-17T11:05:13Z</time>
      </trkpt>
      <trkpt lat="39.6971" lon="-8.60818">
        <ele>249.6</ele>
        <time>2019-05-17T11:05:31Z</time>
      </trkpt>
      <trkpt lat="39.6971" lon="-8.60806">
        <ele>249.6</ele>
        <time>2019-05-17T11:05:43Z</time>
      </trkpt>
      <trkpt lat="39.69709" lon="-8.6078">
        <ele>249.12</ele>
        <time>2019-05-17T11:05:59Z</time>
      </trkpt>
      <trkpt lat="39.69709" lon="-8.60754">
        <ele>247.68</ele>
        <time>2019-05-17T11:06:15Z</time>
      </trkpt>
      <trkpt lat="39.69708" lon="-8.60727">
        <ele>249.12</ele>
        <time>2019-05-17T11:06:31Z</time>
      </trkpt>
      <trkpt lat="39.69708" lon="-8.60702">
        <ele>249.6</ele>
        <time>2019-05-17T11:06:46Z</time>
      </trkpt>
      <trkpt lat="39.69707" lon="-8.60698">
        <ele>249.6</ele>
        <time>2019-05-17T11:06:49Z</time>
      </trkpt>
      <trkpt lat="39.69701" lon="-8.60675">
        <ele>250.56</ele>
        <time>2019-05-17T11:07:06Z</time>
      </trkpt>
      <trkpt lat="39.69693" lon="-8.6066">
        <ele>251.04</ele>
        <time>2019-05-17T11:07:19Z</time>
      </trkpt>
      <trkpt lat="39.69689" lon="-8.60642">
        <ele>253.44</ele>
        <time>2019-05-17T11:07:33Z</time>
      </trkpt>
      <trkpt lat="39.69689" lon="-8.60637">
        <ele>253.44</ele>
        <time>2019-05-17T11:07:36Z</time>
      </trkpt>
      <trkpt lat="39.69688" lon="-8.60618">
        <ele>253.44</ele>
        <time>2019-05-17T11:07:48Z</time>
      </trkpt>
      <trkpt lat="39.69688" lon="-8.60595">
        <ele>253.44</ele>
        <time>2019-05-17T11:08:03Z</time>
      </trkpt>
      <trkpt lat="39.6969" lon="-8.60581">
        <ele>253.44</ele>
        <time>2019-05-17T11:08:12Z</time>
      </trkpt>
      <trkpt lat="39.69695" lon="-8.60554">
        <ele>252.96</ele>
        <time>2019-05-17T11:08:29Z</time>
      </trkpt>
      <trkpt lat="39.69696" lon="-8.6053">
        <ele>251.52</ele>
        <time>2019-05-17T11:08:43Z</time>
      </trkpt>
      <trkpt lat="39.69698" lon="-8.60502">
        <ele>250.08</ele>
        <time>2019-05-17T11:08:59Z</time>
      </trkpt>
      <trkpt lat="39.69699" lon="-8.60476">
        <ele>248.16</ele>
        <time>2019-05-17T11:09:15Z</time>
      </trkpt>
      <trkpt lat="39.69701" lon="-8.60447">
        <ele>248.16</ele>
        <time>2019-05-17T11:09:32Z</time>
      </trkpt>
      <trkpt lat="39.69703" lon="-8.60418">
        <ele>247.2</ele>
        <time>2019-05-17T11:09:50Z</time>
      </trkpt>
      <trkpt lat="39.69703" lon="-8.60416">
        <ele>247.68</ele>
        <time>2019-05-17T11:09:51Z</time>
      </trkpt>
      <trkpt lat="39.69705" lon="-8.60389">
        <ele>247.68</ele>
        <time>2019-05-17T11:10:07Z</time>
      </trkpt>
      <trkpt lat="39.69704" lon="-8.60368">
        <ele>248.16</ele>
        <time>2019-05-17T11:10:20Z</time>
      </trkpt>
      <trkpt lat="39.697" lon="-8.60362">
        <ele>247.68</ele>
        <time>2019-05-17T11:10:33Z</time>
      </trkpt>
      <trkpt lat="39.69698" lon="-8.60359">
        <ele>247.68</ele>
        <time>2019-05-17T11:10:45Z</time>
      </trkpt>
      <trkpt lat="39.69699" lon="-8.60361">
        <ele>248.16</ele>
        <time>2019-05-17T11:11:03Z</time>
      </trkpt>
      <trkpt lat="39.69699" lon="-8.60364">
        <ele>248.16</ele>
        <time>2019-05-17T11:11:31Z</time>
      </trkpt>
      <trkpt lat="39.697" lon="-8.60363">
        <ele>248.16</ele>
        <time>2019-05-17T11:11:51Z</time>
      </trkpt>
      <trkpt lat="39.69701" lon="-8.6036">
        <ele>248.16</ele>
        <time>2019-05-17T11:12:15Z</time>
      </trkpt>
      <trkpt lat="39.697" lon="-8.60358">
        <ele>248.16</ele>
        <time>2019-05-17T11:12:17Z</time>
      </trkpt>
      <trkpt lat="39.69686" lon="-8.60337">
        <ele>248.64</ele>
        <time>2019-05-17T11:12:35Z</time>
      </trkpt>
      <trkpt lat="39.69674" lon="-8.60316">
        <ele>248.64</ele>
        <time>2019-05-17T11:12:51Z</time>
      </trkpt>
      <trkpt lat="39.69668" lon="-8.60302">
        <ele>249.6</ele>
        <time>2019-05-17T11:13:01Z</time>
      </trkpt>
      <trkpt lat="39.69658" lon="-8.60283">
        <ele>250.08</ele>
        <time>2019-05-17T11:13:17Z</time>
      </trkpt>
      <trkpt lat="39.69653" lon="-8.60271">
        <ele>249.6</ele>
        <time>2019-05-17T11:13:26Z</time>
      </trkpt>
      <trkpt lat="39.69648" lon="-8.6026">
        <ele>250.08</ele>
        <time>2019-05-17T11:13:36Z</time>
      </trkpt>
      <trkpt lat="39.69647" lon="-8.60257">
        <ele>249.6</ele>
        <time>2019-05-17T11:13:38Z</time>
      </trkpt>
      <trkpt lat="39.69646" lon="-8.60247">
        <ele>250.56</ele>
        <time>2019-05-17T11:13:44Z</time>
      </trkpt>
      <trkpt lat="39.69647" lon="-8.60243">
        <ele>250.56</ele>
        <time>2019-05-17T11:13:47Z</time>
      </trkpt>
      <trkpt lat="39.69648" lon="-8.60233">
        <ele>251.52</ele>
        <time>2019-05-17T11:13:54Z</time>
      </trkpt>
      <trkpt lat="39.69644" lon="-8.60223">
        <ele>251.04</ele>
        <time>2019-05-17T11:14:02Z</time>
      </trkpt>
      <trkpt lat="39.69646" lon="-8.60218">
        <ele>250.56</ele>
        <time>2019-05-17T11:14:05Z</time>
      </trkpt>
      <trkpt lat="39.69656" lon="-8.60212">
        <ele>249.6</ele>
        <time>2019-05-17T11:14:16Z</time>
      </trkpt>
      <trkpt lat="39.69669" lon="-8.60208">
        <ele>248.16</ele>
        <time>2019-05-17T11:14:27Z</time>
      </trkpt>
      <trkpt lat="39.69685" lon="-8.60201">
        <ele>247.68</ele>
        <time>2019-05-17T11:14:41Z</time>
      </trkpt>
      <trkpt lat="39.6969" lon="-8.602">
        <ele>247.68</ele>
        <time>2019-05-17T11:14:44Z</time>
      </trkpt>
      <trkpt lat="39.69709" lon="-8.60194">
        <ele>247.2</ele>
        <time>2019-05-17T11:15:00Z</time>
      </trkpt>
      <trkpt lat="39.69721" lon="-8.60191">
        <ele>246.23</ele>
        <time>2019-05-17T11:15:10Z</time>
      </trkpt>
      <trkpt lat="39.69734" lon="-8.60184">
        <ele>247.2</ele>
        <time>2019-05-17T11:15:21Z</time>
      </trkpt>
      <trkpt lat="39.69753" lon="-8.60177">
        <ele>245.75</ele>
        <time>2019-05-17T11:15:37Z</time>
      </trkpt>
      <trkpt lat="39.69761" lon="-8.60175">
        <ele>246.23</ele>
        <time>2019-05-17T11:15:44Z</time>
      </trkpt>
      <trkpt lat="39.69777" lon="-8.60167">
        <ele>245.27</ele>
        <time>2019-05-17T11:15:57Z</time>
      </trkpt>
      <trkpt lat="39.69782" lon="-8.60164">
        <ele>245.75</ele>
        <time>2019-05-17T11:16:01Z</time>
      </trkpt>
      <trkpt lat="39.69791" lon="-8.60155">
        <ele>245.75</ele>
        <time>2019-05-17T11:16:11Z</time>
      </trkpt>
      <trkpt lat="39.69794" lon="-8.60151">
        <ele>245.75</ele>
        <time>2019-05-17T11:16:15Z</time>
      </trkpt>
      <trkpt lat="39.69799" lon="-8.60145">
        <ele>245.75</ele>
        <time>2019-05-17T11:16:20Z</time>
      </trkpt>
      <trkpt lat="39.69802" lon="-8.60139">
        <ele>246.23</ele>
        <time>2019-05-17T11:16:28Z</time>
      </trkpt>
      <trkpt lat="39.69805" lon="-8.60136">
        <ele>245.27</ele>
        <time>2019-05-17T11:16:34Z</time>
      </trkpt>
      <trkpt lat="39.69808" lon="-8.60133">
        <ele>245.27</ele>
        <time>2019-05-17T11:16:37Z</time>
      </trkpt>
      <trkpt lat="39.69811" lon="-8.6013">
        <ele>245.75</ele>
        <time>2019-05-17T11:16:40Z</time>
      </trkpt>
      <trkpt lat="39.69814" lon="-8.60128">
        <ele>245.75</ele>
        <time>2019-05-17T11:16:43Z</time>
      </trkpt>
      <trkpt lat="39.69821" lon="-8.60121">
        <ele>245.75</ele>
        <time>2019-05-17T11:16:50Z</time>
      </trkpt>
      <trkpt lat="39.69831" lon="-8.60112">
        <ele>245.75</ele>
        <time>2019-05-17T11:17:00Z</time>
      </trkpt>
      <trkpt lat="39.69844" lon="-8.60102">
        <ele>245.27</ele>
        <time>2019-05-17T11:17:13Z</time>
      </trkpt>
      <trkpt lat="39.69855" lon="-8.60097">
        <ele>245.75</ele>
        <time>2019-05-17T11:17:22Z</time>
      </trkpt>
      <trkpt lat="39.69868" lon="-8.6009">
        <ele>246.23</ele>
        <time>2019-05-17T11:17:35Z</time>
      </trkpt>
      <trkpt lat="39.69874" lon="-8.60086">
        <ele>246.23</ele>
        <time>2019-05-17T11:17:41Z</time>
      </trkpt>
      <trkpt lat="39.69878" lon="-8.60083">
        <ele>246.72</ele>
        <time>2019-05-17T11:17:45Z</time>
      </trkpt>
      <trkpt lat="39.69896" lon="-8.60063">
        <ele>246.72</ele>
        <time>2019-05-17T11:18:04Z</time>
      </trkpt>
      <trkpt lat="39.699" lon="-8.60057">
        <ele>247.2</ele>
        <time>2019-05-17T11:18:09Z</time>
      </trkpt>
      <trkpt lat="39.6991" lon="-8.60036">
        <ele>247.2</ele>
        <time>2019-05-17T11:18:23Z</time>
      </trkpt>
      <trkpt lat="39.69913" lon="-8.60029">
        <ele>246.23</ele>
        <time>2019-05-17T11:18:28Z</time>
      </trkpt>
      <trkpt lat="39.69919" lon="-8.60016">
        <ele>246.23</ele>
        <time>2019-05-17T11:18:37Z</time>
      </trkpt>
      <trkpt lat="39.69923" lon="-8.60005">
        <ele>246.23</ele>
        <time>2019-05-17T11:18:44Z</time>
      </trkpt>
      <trkpt lat="39.69929" lon="-8.59988">
        <ele>245.75</ele>
        <time>2019-05-17T11:18:55Z</time>
      </trkpt>
      <trkpt lat="39.69936" lon="-8.59981">
        <ele>245.27</ele>
        <time>2019-05-17T11:19:02Z</time>
      </trkpt>
      <trkpt lat="39.69939" lon="-8.59977">
        <ele>244.31</ele>
        <time>2019-05-17T11:19:06Z</time>
      </trkpt>
      <trkpt lat="39.69942" lon="-8.59974">
        <ele>243.35</ele>
        <time>2019-05-17T11:19:09Z</time>
      </trkpt>
      <trkpt lat="39.69944" lon="-8.59971">
        <ele>245.75</ele>
        <time>2019-05-17T11:19:11Z</time>
      </trkpt>
      <trkpt lat="39.69944" lon="-8.59969">
        <ele>245.75</ele>
        <time>2019-05-17T11:19:13Z</time>
      </trkpt>
      <trkpt lat="39.69952" lon="-8.59954">
        <ele>246.23</ele>
        <time>2019-05-17T11:19:26Z</time>
      </trkpt>
      <trkpt lat="39.69957" lon="-8.59943">
        <ele>247.2</ele>
        <time>2019-05-17T11:19:35Z</time>
      </trkpt>
      <trkpt lat="39.69967" lon="-8.59927">
        <ele>248.16</ele>
        <time>2019-05-17T11:19:49Z</time>
      </trkpt>
      <trkpt lat="39.69977" lon="-8.59911">
        <ele>249.12</ele>
        <time>2019-05-17T11:20:03Z</time>
      </trkpt>
      <trkpt lat="39.6998" lon="-8.59908">
        <ele>248.64</ele>
        <time>2019-05-17T11:20:08Z</time>
      </trkpt>
      <trkpt lat="39.69982" lon="-8.59899">
        <ele>249.6</ele>
        <time>2019-05-17T11:20:14Z</time>
      </trkpt>
      <trkpt lat="39.69995" lon="-8.59875">
        <ele>250.08</ele>
        <time>2019-05-17T11:20:32Z</time>
      </trkpt>
      <trkpt lat="39.69999" lon="-8.59868">
        <ele>251.04</ele>
        <time>2019-05-17T11:20:37Z</time>
      </trkpt>
      <trkpt lat="39.70003" lon="-8.59863">
        <ele>250.56</ele>
        <time>2019-05-17T11:20:42Z</time>
      </trkpt>
      <trkpt lat="39.70006" lon="-8.5986">
        <ele>250.08</ele>
        <time>2019-05-17T11:20:46Z</time>
      </trkpt>
      <trkpt lat="39.70011" lon="-8.59856">
        <ele>250.56</ele>
        <time>2019-05-17T11:20:51Z</time>
      </trkpt>
      <trkpt lat="39.70025" lon="-8.5984">
        <ele>251.04</ele>
        <time>2019-05-17T11:21:05Z</time>
      </trkpt>
      <trkpt lat="39.70039" lon="-8.59825">
        <ele>251.52</ele>
        <time>2019-05-17T11:21:20Z</time>
      </trkpt>
      <trkpt lat="39.70044" lon="-8.59818">
        <ele>250.56</ele>
        <time>2019-05-17T11:21:26Z</time>
      </trkpt>
      <trkpt lat="39.70054" lon="-8.59804">
        <ele>252</ele>
        <time>2019-05-17T11:21:38Z</time>
      </trkpt>
      <trkpt lat="39.70065" lon="-8.59787">
        <ele>252.48</ele>
        <time>2019-05-17T11:21:53Z</time>
      </trkpt>
      <trkpt lat="39.70076" lon="-8.59773">
        <ele>252.96</ele>
        <time>2019-05-17T11:22:07Z</time>
      </trkpt>
      <trkpt lat="39.70083" lon="-8.59758">
        <ele>252.96</ele>
        <time>2019-05-17T11:22:17Z</time>
      </trkpt>
      <trkpt lat="39.70085" lon="-8.59753">
        <ele>252.48</ele>
        <time>2019-05-17T11:22:21Z</time>
      </trkpt>
      <trkpt lat="39.70094" lon="-8.59732">
        <ele>252</ele>
        <time>2019-05-17T11:22:37Z</time>
      </trkpt>
      <trkpt lat="39.701" lon="-8.59714">
        <ele>252.48</ele>
        <time>2019-05-17T11:22:50Z</time>
      </trkpt>
      <trkpt lat="39.70102" lon="-8.59713">
        <ele>252.48</ele>
        <time>2019-05-17T11:22:52Z</time>
      </trkpt>
      <trkpt lat="39.70109" lon="-8.59684">
        <ele>252.96</ele>
        <time>2019-05-17T11:23:10Z</time>
      </trkpt>
      <trkpt lat="39.70111" lon="-8.59658">
        <ele>252.96</ele>
        <time>2019-05-17T11:23:25Z</time>
      </trkpt>
      <trkpt lat="39.70112" lon="-8.59644">
        <ele>251.04</ele>
        <time>2019-05-17T11:23:34Z</time>
      </trkpt>
      <trkpt lat="39.70111" lon="-8.59618">
        <ele>252</ele>
        <time>2019-05-17T11:23:50Z</time>
      </trkpt>
      <trkpt lat="39.70108" lon="-8.59598">
        <ele>252.96</ele>
        <time>2019-05-17T11:24:03Z</time>
      </trkpt>
      <trkpt lat="39.70109" lon="-8.59575">
        <ele>252.96</ele>
        <time>2019-05-17T11:24:19Z</time>
      </trkpt>
      <trkpt lat="39.70108" lon="-8.59553">
        <ele>253.44</ele>
        <time>2019-05-17T11:24:34Z</time>
      </trkpt>
      <trkpt lat="39.70108" lon="-8.59538">
        <ele>252.96</ele>
        <time>2019-05-17T11:24:47Z</time>
      </trkpt>
      <trkpt lat="39.7011" lon="-8.59524">
        <ele>252</ele>
        <time>2019-05-17T11:24:58Z</time>
      </trkpt>
      <trkpt lat="39.7011" lon="-8.59522">
        <ele>251.52</ele>
        <time>2019-05-17T11:25:00Z</time>
      </trkpt>
      <trkpt lat="39.70108" lon="-8.59497">
        <ele>251.52</ele>
        <time>2019-05-17T11:25:15Z</time>
      </trkpt>
      <trkpt lat="39.70106" lon="-8.59482">
        <ele>251.52</ele>
        <time>2019-05-17T11:25:25Z</time>
      </trkpt>
      <trkpt lat="39.70101" lon="-8.5946">
        <ele>252.48</ele>
        <time>2019-05-17T11:25:40Z</time>
      </trkpt>
      <trkpt lat="39.70094" lon="-8.59435">
        <ele>252.48</ele>
        <time>2019-05-17T11:25:56Z</time>
      </trkpt>
      <trkpt lat="39.70091" lon="-8.59416">
        <ele>253.93</ele>
        <time>2019-05-17T11:26:08Z</time>
      </trkpt>
      <trkpt lat="39.70082" lon="-8.59395">
        <ele>253.44</ele>
        <time>2019-05-17T11:26:22Z</time>
      </trkpt>
      <trkpt lat="39.70082" lon="-8.5939">
        <ele>253.44</ele>
        <time>2019-05-17T11:26:26Z</time>
      </trkpt>
      <trkpt lat="39.70082" lon="-8.59383">
        <ele>252.48</ele>
        <time>2019-05-17T11:26:30Z</time>
      </trkpt>
      <trkpt lat="39.70078" lon="-8.59373">
        <ele>252</ele>
        <time>2019-05-17T11:26:46Z</time>
      </trkpt>
      <trkpt lat="39.70079" lon="-8.59348">
        <ele>251.52</ele>
        <time>2019-05-17T11:27:02Z</time>
      </trkpt>
      <trkpt lat="39.70079" lon="-8.59322">
        <ele>250.08</ele>
        <time>2019-05-17T11:27:18Z</time>
      </trkpt>
      <trkpt lat="39.70079" lon="-8.59309">
        <ele>250.56</ele>
        <time>2019-05-17T11:27:30Z</time>
      </trkpt>
      <trkpt lat="39.7008" lon="-8.59307">
        <ele>250.08</ele>
        <time>2019-05-17T11:27:32Z</time>
      </trkpt>
      <trkpt lat="39.7008" lon="-8.593">
        <ele>250.08</ele>
        <time>2019-05-17T11:27:40Z</time>
      </trkpt>
      <trkpt lat="39.7008" lon="-8.59297">
        <ele>250.08</ele>
        <time>2019-05-17T11:27:42Z</time>
      </trkpt>
      <trkpt lat="39.70079" lon="-8.59292">
        <ele>250.08</ele>
        <time>2019-05-17T11:27:46Z</time>
      </trkpt>
      <trkpt lat="39.7008" lon="-8.59289">
        <ele>250.08</ele>
        <time>2019-05-17T11:27:48Z</time>
      </trkpt>
      <trkpt lat="39.70083" lon="-8.59267">
        <ele>249.12</ele>
        <time>2019-05-17T11:28:01Z</time>
      </trkpt>
      <trkpt lat="39.70086" lon="-8.59243">
        <ele>249.6</ele>
        <time>2019-05-17T11:28:16Z</time>
      </trkpt>
      <trkpt lat="39.70089" lon="-8.59221">
        <ele>249.6</ele>
        <time>2019-05-17T11:28:30Z</time>
      </trkpt>
      <trkpt lat="39.70091" lon="-8.59213">
        <ele>249.6</ele>
        <time>2019-05-17T11:28:35Z</time>
      </trkpt>
      <trkpt lat="39.70094" lon="-8.59188">
        <ele>250.08</ele>
        <time>2019-05-17T11:28:51Z</time>
      </trkpt>
      <trkpt lat="39.70098" lon="-8.59165">
        <ele>249.6</ele>
        <time>2019-05-17T11:29:06Z</time>
      </trkpt>
      <trkpt lat="39.70101" lon="-8.59157">
        <ele>249.6</ele>
        <time>2019-05-17T11:29:13Z</time>
      </trkpt>
      <trkpt lat="39.70103" lon="-8.59151">
        <ele>249.6</ele>
        <time>2019-05-17T11:29:17Z</time>
      </trkpt>
      <trkpt lat="39.70108" lon="-8.59132">
        <ele>249.6</ele>
        <time>2019-05-17T11:29:30Z</time>
      </trkpt>
      <trkpt lat="39.70114" lon="-8.59121">
        <ele>249.6</ele>
        <time>2019-05-17T11:29:37Z</time>
      </trkpt>
      <trkpt lat="39.70114" lon="-8.59118">
        <ele>249.6</ele>
        <time>2019-05-17T11:29:39Z</time>
      </trkpt>
      <trkpt lat="39.70116" lon="-8.5911">
        <ele>249.6</ele>
        <time>2019-05-17T11:29:44Z</time>
      </trkpt>
      <trkpt lat="39.70126" lon="-8.59086">
        <ele>249.12</ele>
        <time>2019-05-17T11:30:01Z</time>
      </trkpt>
      <trkpt lat="39.7013" lon="-8.59078">
        <ele>249.6</ele>
        <time>2019-05-17T11:30:07Z</time>
      </trkpt>
      <trkpt lat="39.70141" lon="-8.59057">
        <ele>248.16</ele>
        <time>2019-05-17T11:30:21Z</time>
      </trkpt>
      <trkpt lat="39.70144" lon="-8.59052">
        <ele>247.68</ele>
        <time>2019-05-17T11:30:25Z</time>
      </trkpt>
      <trkpt lat="39.70147" lon="-8.59045">
        <ele>248.16</ele>
        <time>2019-05-17T11:30:30Z</time>
      </trkpt>
      <trkpt lat="39.70152" lon="-8.5904">
        <ele>247.68</ele>
        <time>2019-05-17T11:30:34Z</time>
      </trkpt>
      <trkpt lat="39.70159" lon="-8.59031">
        <ele>246.72</ele>
        <time>2019-05-17T11:30:42Z</time>
      </trkpt>
      <trkpt lat="39.70164" lon="-8.59022">
        <ele>246.23</ele>
        <time>2019-05-17T11:30:49Z</time>
      </trkpt>
      <trkpt lat="39.70174" lon="-8.59008">
        <ele>245.75</ele>
        <time>2019-05-17T11:31:00Z</time>
      </trkpt>
      <trkpt lat="39.70178" lon="-8.59001">
        <ele>245.75</ele>
        <time>2019-05-17T11:31:05Z</time>
      </trkpt>
      <trkpt lat="39.70184" lon="-8.58992">
        <ele>245.27</ele>
        <time>2019-05-17T11:31:12Z</time>
      </trkpt>
      <trkpt lat="39.70188" lon="-8.58985">
        <ele>244.31</ele>
        <time>2019-05-17T11:31:17Z</time>
      </trkpt>
      <trkpt lat="39.70192" lon="-8.58979">
        <ele>244.31</ele>
        <time>2019-05-17T11:31:22Z</time>
      </trkpt>
      <trkpt lat="39.70195" lon="-8.58973">
        <ele>243.83</ele>
        <time>2019-05-17T11:31:26Z</time>
      </trkpt>
      <trkpt lat="39.70199" lon="-8.58967">
        <ele>244.31</ele>
        <time>2019-05-17T11:31:31Z</time>
      </trkpt>
      <trkpt lat="39.70204" lon="-8.5896">
        <ele>244.31</ele>
        <time>2019-05-17T11:31:37Z</time>
      </trkpt>
      <trkpt lat="39.70206" lon="-8.58957">
        <ele>243.83</ele>
        <time>2019-05-17T11:31:39Z</time>
      </trkpt>
      <trkpt lat="39.70209" lon="-8.58953">
        <ele>243.83</ele>
        <time>2019-05-17T11:31:42Z</time>
      </trkpt>
      <trkpt lat="39.70211" lon="-8.58949">
        <ele>243.35</ele>
        <time>2019-05-17T11:31:45Z</time>
      </trkpt>
      <trkpt lat="39.70217" lon="-8.58936">
        <ele>243.35</ele>
        <time>2019-05-17T11:31:54Z</time>
      </trkpt>
      <trkpt lat="39.70221" lon="-8.58927">
        <ele>242.87</ele>
        <time>2019-05-17T11:32:00Z</time>
      </trkpt>
      <trkpt lat="39.70228" lon="-8.5891">
        <ele>243.83</ele>
        <time>2019-05-17T11:32:11Z</time>
      </trkpt>
      <trkpt lat="39.70235" lon="-8.58886">
        <ele>242.87</ele>
        <time>2019-05-17T11:32:26Z</time>
      </trkpt>
      <trkpt lat="39.70239" lon="-8.58864">
        <ele>242.87</ele>
        <time>2019-05-17T11:32:40Z</time>
      </trkpt>
      <trkpt lat="39.7024" lon="-8.58833">
        <ele>242.39</ele>
        <time>2019-05-17T11:32:58Z</time>
      </trkpt>
      <trkpt lat="39.70239" lon="-8.5881">
        <ele>242.39</ele>
        <time>2019-05-17T11:33:12Z</time>
      </trkpt>
      <trkpt lat="39.70237" lon="-8.58802">
        <ele>242.39</ele>
        <time>2019-05-17T11:33:18Z</time>
      </trkpt>
      <trkpt lat="39.70237" lon="-8.58795">
        <ele>242.87</ele>
        <time>2019-05-17T11:33:22Z</time>
      </trkpt>
      <trkpt lat="39.7023" lon="-8.58768">
        <ele>241.91</ele>
        <time>2019-05-17T11:33:40Z</time>
      </trkpt>
      <trkpt lat="39.70229" lon="-8.58762">
        <ele>242.39</ele>
        <time>2019-05-17T11:33:57Z</time>
      </trkpt>
      <trkpt lat="39.70224" lon="-8.58764">
        <ele>242.39</ele>
        <time>2019-05-17T11:34:15Z</time>
      </trkpt>
      <trkpt lat="39.70224" lon="-8.5876">
        <ele>241.91</ele>
        <time>2019-05-17T11:34:17Z</time>
      </trkpt>
      <trkpt lat="39.70219" lon="-8.58739">
        <ele>241.43</ele>
        <time>2019-05-17T11:34:33Z</time>
      </trkpt>
      <trkpt lat="39.70215" lon="-8.58722">
        <ele>241.43</ele>
        <time>2019-05-17T11:34:45Z</time>
      </trkpt>
      <trkpt lat="39.70214" lon="-8.58718">
        <ele>241.43</ele>
        <time>2019-05-17T11:34:47Z</time>
      </trkpt>
      <trkpt lat="39.70212" lon="-8.58713">
        <ele>241.43</ele>
        <time>2019-05-17T11:34:50Z</time>
      </trkpt>
      <trkpt lat="39.70208" lon="-8.58683">
        <ele>240.95</ele>
        <time>2019-05-17T11:35:09Z</time>
      </trkpt>
      <trkpt lat="39.70202" lon="-8.58658">
        <ele>240.47</ele>
        <time>2019-05-17T11:35:25Z</time>
      </trkpt>
      <trkpt lat="39.70195" lon="-8.58634">
        <ele>239.99</ele>
        <time>2019-05-17T11:35:42Z</time>
      </trkpt>
      <trkpt lat="39.70189" lon="-8.5861">
        <ele>239.51</ele>
        <time>2019-05-17T11:35:56Z</time>
      </trkpt>
      <trkpt lat="39.70184" lon="-8.58603">
        <ele>239.51</ele>
        <time>2019-05-17T11:36:00Z</time>
      </trkpt>
      <trkpt lat="39.7018" lon="-8.58577">
        <ele>238.54</ele>
        <time>2019-05-17T11:36:16Z</time>
      </trkpt>
      <trkpt lat="39.70177" lon="-8.58558">
        <ele>237.1</ele>
        <time>2019-05-17T11:36:29Z</time>
      </trkpt>
      <trkpt lat="39.70169" lon="-8.58536">
        <ele>236.14</ele>
        <time>2019-05-17T11:36:43Z</time>
      </trkpt>
      <trkpt lat="39.70165" lon="-8.58516">
        <ele>235.66</ele>
        <time>2019-05-17T11:36:55Z</time>
      </trkpt>
      <trkpt lat="39.70162" lon="-8.58495">
        <ele>234.7</ele>
        <time>2019-05-17T11:37:09Z</time>
      </trkpt>
      <trkpt lat="39.70156" lon="-8.58467">
        <ele>233.74</ele>
        <time>2019-05-17T11:37:25Z</time>
      </trkpt>
      <trkpt lat="39.70154" lon="-8.58458">
        <ele>234.7</ele>
        <time>2019-05-17T11:37:39Z</time>
      </trkpt>
      <trkpt lat="39.70155" lon="-8.58461">
        <ele>234.22</ele>
        <time>2019-05-17T11:38:01Z</time>
      </trkpt>
      <trkpt lat="39.70158" lon="-8.58465">
        <ele>234.7</ele>
        <time>2019-05-17T11:38:21Z</time>
      </trkpt>
      <trkpt lat="39.70154" lon="-8.58454">
        <ele>234.7</ele>
        <time>2019-05-17T11:38:39Z</time>
      </trkpt>
      <trkpt lat="39.70153" lon="-8.58451">
        <ele>233.26</ele>
        <time>2019-05-17T11:38:41Z</time>
      </trkpt>
      <trkpt lat="39.70149" lon="-8.58437">
        <ele>233.74</ele>
        <time>2019-05-17T11:38:54Z</time>
      </trkpt>
      <trkpt lat="39.70141" lon="-8.58423">
        <ele>233.74</ele>
        <time>2019-05-17T11:39:09Z</time>
      </trkpt>
      <trkpt lat="39.70126" lon="-8.58401">
        <ele>232.78</ele>
        <time>2019-05-17T11:39:23Z</time>
      </trkpt>
      <trkpt lat="39.70108" lon="-8.58377">
        <ele>232.78</ele>
        <time>2019-05-17T11:39:39Z</time>
      </trkpt>
      <trkpt lat="39.70094" lon="-8.58356">
        <ele>231.81</ele>
        <time>2019-05-17T11:39:55Z</time>
      </trkpt>
      <trkpt lat="39.70082" lon="-8.58333">
        <ele>230.85</ele>
        <time>2019-05-17T11:40:09Z</time>
      </trkpt>
      <trkpt lat="39.70073" lon="-8.58319">
        <ele>230.85</ele>
        <time>2019-05-17T11:40:23Z</time>
      </trkpt>
      <trkpt lat="39.70065" lon="-8.58303">
        <ele>230.37</ele>
        <time>2019-05-17T11:40:37Z</time>
      </trkpt>
      <trkpt lat="39.70062" lon="-8.58295">
        <ele>230.37</ele>
        <time>2019-05-17T11:40:42Z</time>
      </trkpt>
      <trkpt lat="39.70057" lon="-8.58272">
        <ele>230.37</ele>
        <time>2019-05-17T11:40:55Z</time>
      </trkpt>
      <trkpt lat="39.70055" lon="-8.58264">
        <ele>229.89</ele>
        <time>2019-05-17T11:41:00Z</time>
      </trkpt>
      <trkpt lat="39.70054" lon="-8.58258">
        <ele>230.37</ele>
        <time>2019-05-17T11:41:03Z</time>
      </trkpt>
      <trkpt lat="39.7005" lon="-8.58244">
        <ele>229.89</ele>
        <time>2019-05-17T11:41:12Z</time>
      </trkpt>
      <trkpt lat="39.70048" lon="-8.58237">
        <ele>229.89</ele>
        <time>2019-05-17T11:41:16Z</time>
      </trkpt>
      <trkpt lat="39.70044" lon="-8.58201">
        <ele>229.89</ele>
        <time>2019-05-17T11:41:33Z</time>
      </trkpt>
      <trkpt lat="39.70043" lon="-8.58188">
        <ele>229.41</ele>
        <time>2019-05-17T11:41:45Z</time>
      </trkpt>
      <trkpt lat="39.70039" lon="-8.58171">
        <ele>229.41</ele>
        <time>2019-05-17T11:41:58Z</time>
      </trkpt>
      <trkpt lat="39.70037" lon="-8.5816">
        <ele>229.41</ele>
        <time>2019-05-17T11:42:04Z</time>
      </trkpt>
      <trkpt lat="39.7003" lon="-8.58133">
        <ele>228.45</ele>
        <time>2019-05-17T11:42:21Z</time>
      </trkpt>
      <trkpt lat="39.70025" lon="-8.58107">
        <ele>227.97</ele>
        <time>2019-05-17T11:42:36Z</time>
      </trkpt>
      <trkpt lat="39.70018" lon="-8.58081">
        <ele>227.49</ele>
        <time>2019-05-17T11:42:50Z</time>
      </trkpt>
      <trkpt lat="39.70008" lon="-8.5806">
        <ele>226.53</ele>
        <time>2019-05-17T11:43:05Z</time>
      </trkpt>
      <trkpt lat="39.69998" lon="-8.58041">
        <ele>226.05</ele>
        <time>2019-05-17T11:43:20Z</time>
      </trkpt>
      <trkpt lat="39.69987" lon="-8.58024">
        <ele>226.05</ele>
        <time>2019-05-17T11:43:35Z</time>
      </trkpt>
      <trkpt lat="39.69975" lon="-8.58">
        <ele>225.57</ele>
        <time>2019-05-17T11:43:51Z</time>
      </trkpt>
      <trkpt lat="39.69966" lon="-8.57981">
        <ele>225.09</ele>
        <time>2019-05-17T11:44:05Z</time>
      </trkpt>
      <trkpt lat="39.6996" lon="-8.57965">
        <ele>226.53</ele>
        <time>2019-05-17T11:44:18Z</time>
      </trkpt>
      <trkpt lat="39.69957" lon="-8.57951">
        <ele>225.57</ele>
        <time>2019-05-17T11:44:30Z</time>
      </trkpt>
      <trkpt lat="39.69952" lon="-8.57935">
        <ele>226.53</ele>
        <time>2019-05-17T11:44:42Z</time>
      </trkpt>
      <trkpt lat="39.69944" lon="-8.57915">
        <ele>226.53</ele>
        <time>2019-05-17T11:44:55Z</time>
      </trkpt>
      <trkpt lat="39.69938" lon="-8.57893">
        <ele>226.05</ele>
        <time>2019-05-17T11:45:10Z</time>
      </trkpt>
      <trkpt lat="39.69934" lon="-8.5787">
        <ele>227.01</ele>
        <time>2019-05-17T11:45:24Z</time>
      </trkpt>
      <trkpt lat="39.69933" lon="-8.57867">
        <ele>226.53</ele>
        <time>2019-05-17T11:45:26Z</time>
      </trkpt>
      <trkpt lat="39.6993" lon="-8.57842">
        <ele>227.01</ele>
        <time>2019-05-17T11:45:41Z</time>
      </trkpt>
      <trkpt lat="39.6993" lon="-8.5784">
        <ele>226.05</ele>
        <time>2019-05-17T11:45:42Z</time>
      </trkpt>
      <trkpt lat="39.69929" lon="-8.57812">
        <ele>225.57</ele>
        <time>2019-05-17T11:45:55Z</time>
      </trkpt>
      <trkpt lat="39.6993" lon="-8.57801">
        <ele>224.61</ele>
        <time>2019-05-17T11:46:02Z</time>
      </trkpt>
      <trkpt lat="39.69924" lon="-8.57776">
        <ele>222.68</ele>
        <time>2019-05-17T11:46:17Z</time>
      </trkpt>
      <trkpt lat="39.69923" lon="-8.5777">
        <ele>222.68</ele>
        <time>2019-05-17T11:46:21Z</time>
      </trkpt>
      <trkpt lat="39.69917" lon="-8.57751">
        <ele>221.72</ele>
        <time>2019-05-17T11:46:35Z</time>
      </trkpt>
      <trkpt lat="39.6991" lon="-8.57735">
        <ele>221.72</ele>
        <time>2019-05-17T11:46:47Z</time>
      </trkpt>
      <trkpt lat="39.69911" lon="-8.57721">
        <ele>221.24</ele>
        <time>2019-05-17T11:46:57Z</time>
      </trkpt>
      <trkpt lat="39.69923" lon="-8.57715">
        <ele>219.32</ele>
        <time>2019-05-17T11:47:07Z</time>
      </trkpt>
      <trkpt lat="39.69944" lon="-8.57722">
        <ele>216.91</ele>
        <time>2019-05-17T11:47:24Z</time>
      </trkpt>
      <trkpt lat="39.69953" lon="-8.57723">
        <ele>215.47</ele>
        <time>2019-05-17T11:47:31Z</time>
      </trkpt>
      <trkpt lat="39.69968" lon="-8.57722">
        <ele>213.55</ele>
        <time>2019-05-17T11:47:45Z</time>
      </trkpt>
      <trkpt lat="39.69978" lon="-8.57722">
        <ele>211.63</ele>
        <time>2019-05-17T11:47:54Z</time>
      </trkpt>
      <trkpt lat="39.69985" lon="-8.5772">
        <ele>211.15</ele>
        <time>2019-05-17T11:48:01Z</time>
      </trkpt>
      <trkpt lat="39.70008" lon="-8.57718">
        <ele>209.7</ele>
        <time>2019-05-17T11:48:18Z</time>
      </trkpt>
      <trkpt lat="39.70029" lon="-8.57718">
        <ele>208.74</ele>
        <time>2019-05-17T11:48:34Z</time>
      </trkpt>
      <trkpt lat="39.70046" lon="-8.57714">
        <ele>206.82</ele>
        <time>2019-05-17T11:48:49Z</time>
      </trkpt>
      <trkpt lat="39.70059" lon="-8.57701">
        <ele>204.42</ele>
        <time>2019-05-17T11:49:04Z</time>
      </trkpt>
      <trkpt lat="39.70069" lon="-8.57691">
        <ele>204.42</ele>
        <time>2019-05-17T11:49:16Z</time>
      </trkpt>
      <trkpt lat="39.7007" lon="-8.57684">
        <ele>204.42</ele>
        <time>2019-05-17T11:49:27Z</time>
      </trkpt>
      <trkpt lat="39.70076" lon="-8.57671">
        <ele>203.46</ele>
        <time>2019-05-17T11:49:38Z</time>
      </trkpt>
      <trkpt lat="39.70082" lon="-8.57658">
        <ele>202.01</ele>
        <time>2019-05-17T11:49:51Z</time>
      </trkpt>
      <trkpt lat="39.70093" lon="-8.57637">
        <ele>200.09</ele>
        <time>2019-05-17T11:50:03Z</time>
      </trkpt>
      <trkpt lat="39.7011" lon="-8.57629">
        <ele>197.69</ele>
        <time>2019-05-17T11:50:17Z</time>
      </trkpt>
      <trkpt lat="39.70117" lon="-8.57633">
        <ele>194.8</ele>
        <time>2019-05-17T11:50:24Z</time>
      </trkpt>
      <trkpt lat="39.70133" lon="-8.57641">
        <ele>191.92</ele>
        <time>2019-05-17T11:50:38Z</time>
      </trkpt>
      <trkpt lat="39.70139" lon="-8.57642">
        <ele>190.48</ele>
        <time>2019-05-17T11:50:42Z</time>
      </trkpt>
      <trkpt lat="39.70142" lon="-8.57643">
        <ele>190.48</ele>
        <time>2019-05-17T11:50:44Z</time>
      </trkpt>
      <trkpt lat="39.70148" lon="-8.57644">
        <ele>189.04</ele>
        <time>2019-05-17T11:50:50Z</time>
      </trkpt>
      <trkpt lat="39.70166" lon="-8.5765">
        <ele>186.63</ele>
        <time>2019-05-17T11:51:04Z</time>
      </trkpt>
      <trkpt lat="39.70176" lon="-8.57652">
        <ele>183.75</ele>
        <time>2019-05-17T11:51:14Z</time>
      </trkpt>
      <trkpt lat="39.70194" lon="-8.57655">
        <ele>180.87</ele>
        <time>2019-05-17T11:51:28Z</time>
      </trkpt>
      <trkpt lat="39.70202" lon="-8.57662">
        <ele>179.42</ele>
        <time>2019-05-17T11:51:36Z</time>
      </trkpt>
      <trkpt lat="39.70207" lon="-8.57667">
        <ele>177.98</ele>
        <time>2019-05-17T11:51:42Z</time>
      </trkpt>
      <trkpt lat="39.70213" lon="-8.57677">
        <ele>174.62</ele>
        <time>2019-05-17T11:51:52Z</time>
      </trkpt>
      <trkpt lat="39.70221" lon="-8.57687">
        <ele>171.73</ele>
        <time>2019-05-17T11:52:04Z</time>
      </trkpt>
      <trkpt lat="39.70221" lon="-8.57689">
        <ele>171.25</ele>
        <time>2019-05-17T11:52:06Z</time>
      </trkpt>
      <trkpt lat="39.70223" lon="-8.57704">
        <ele>168.37</ele>
        <time>2019-05-17T11:52:20Z</time>
      </trkpt>
      <trkpt lat="39.70229" lon="-8.57716">
        <ele>165.48</ele>
        <time>2019-05-17T11:52:30Z</time>
      </trkpt>
      <trkpt lat="39.70229" lon="-8.57721">
        <ele>164.52</ele>
        <time>2019-05-17T11:52:33Z</time>
      </trkpt>
      <trkpt lat="39.70247" lon="-8.57731">
        <ele>162.6</ele>
        <time>2019-05-17T11:52:48Z</time>
      </trkpt>
      <trkpt lat="39.70262" lon="-8.57726">
        <ele>159.72</ele>
        <time>2019-05-17T11:52:59Z</time>
      </trkpt>
      <trkpt lat="39.70263" lon="-8.57725">
        <ele>159.24</ele>
        <time>2019-05-17T11:53:00Z</time>
      </trkpt>
      <trkpt lat="39.70272" lon="-8.57719">
        <ele>157.79</ele>
        <time>2019-05-17T11:53:11Z</time>
      </trkpt>
      <trkpt lat="39.70276" lon="-8.57718">
        <ele>156.83</ele>
        <time>2019-05-17T11:53:14Z</time>
      </trkpt>
      <trkpt lat="39.70296" lon="-8.57711">
        <ele>154.43</ele>
        <time>2019-05-17T11:53:28Z</time>
      </trkpt>
      <trkpt lat="39.70298" lon="-8.57711">
        <ele>153.47</ele>
        <time>2019-05-17T11:53:31Z</time>
      </trkpt>
      <trkpt lat="39.70304" lon="-8.57709">
        <ele>152.51</ele>
        <time>2019-05-17T11:53:37Z</time>
      </trkpt>
      <trkpt lat="39.70308" lon="-8.57705">
        <ele>151.54</ele>
        <time>2019-05-17T11:53:41Z</time>
      </trkpt>
      <trkpt lat="39.70311" lon="-8.57704">
        <ele>151.54</ele>
        <time>2019-05-17T11:53:43Z</time>
      </trkpt>
      <trkpt lat="39.70331" lon="-8.57692">
        <ele>149.62</ele>
        <time>2019-05-17T11:54:00Z</time>
      </trkpt>
      <trkpt lat="39.70336" lon="-8.57688">
        <ele>150.1</ele>
        <time>2019-05-17T11:54:16Z</time>
      </trkpt>
      <trkpt lat="39.70343" lon="-8.57683">
        <ele>150.1</ele>
        <time>2019-05-17T11:54:26Z</time>
      </trkpt>
      <trkpt lat="39.70348" lon="-8.57678">
        <ele>149.62</ele>
        <time>2019-05-17T11:54:37Z</time>
      </trkpt>
      <trkpt lat="39.70374" lon="-8.57666">
        <ele>149.14</ele>
        <time>2019-05-17T11:54:58Z</time>
      </trkpt>
      <trkpt lat="39.70392" lon="-8.57657">
        <ele>147.7</ele>
        <time>2019-05-17T11:55:14Z</time>
      </trkpt>
      <trkpt lat="39.70404" lon="-8.57653">
        <ele>147.22</ele>
        <time>2019-05-17T11:55:27Z</time>
      </trkpt>
      <trkpt lat="39.70409" lon="-8.57648">
        <ele>146.74</ele>
        <time>2019-05-17T11:55:32Z</time>
      </trkpt>
      <trkpt lat="39.70414" lon="-8.57642">
        <ele>146.26</ele>
        <time>2019-05-17T11:55:38Z</time>
      </trkpt>
      <trkpt lat="39.70429" lon="-8.57626">
        <ele>146.74</ele>
        <time>2019-05-17T11:55:55Z</time>
      </trkpt>
      <trkpt lat="39.70436" lon="-8.57621">
        <ele>147.7</ele>
        <time>2019-05-17T11:56:03Z</time>
      </trkpt>
      <trkpt lat="39.70454" lon="-8.57612">
        <ele>147.22</ele>
        <time>2019-05-17T11:56:19Z</time>
      </trkpt>
      <trkpt lat="39.70458" lon="-8.57611">
        <ele>145.78</ele>
        <time>2019-05-17T11:56:22Z</time>
      </trkpt>
      <trkpt lat="39.70467" lon="-8.57607">
        <ele>146.74</ele>
        <time>2019-05-17T11:56:35Z</time>
      </trkpt>
      <trkpt lat="39.70471" lon="-8.57608">
        <ele>146.74</ele>
        <time>2019-05-17T11:56:47Z</time>
      </trkpt>
      <trkpt lat="39.70481" lon="-8.576">
        <ele>147.7</ele>
        <time>2019-05-17T11:57:01Z</time>
      </trkpt>
      <trkpt lat="39.7048" lon="-8.57601">
        <ele>147.22</ele>
        <time>2019-05-17T11:57:24Z</time>
      </trkpt>
      <trkpt lat="39.70491" lon="-8.57593">
        <ele>146.26</ele>
        <time>2019-05-17T11:57:39Z</time>
      </trkpt>
      <trkpt lat="39.70492" lon="-8.57593">
        <ele>146.74</ele>
        <time>2019-05-17T11:57:40Z</time>
      </trkpt>
      <trkpt lat="39.70504" lon="-8.57585">
        <ele>147.22</ele>
        <time>2019-05-17T11:57:54Z</time>
      </trkpt>
      <trkpt lat="39.70508" lon="-8.57582">
        <ele>148.18</ele>
        <time>2019-05-17T11:58:01Z</time>
      </trkpt>
      <trkpt lat="39.7051" lon="-8.57573">
        <ele>147.7</ele>
        <time>2019-05-17T11:58:07Z</time>
      </trkpt>
      <trkpt lat="39.70515" lon="-8.57563">
        <ele>148.18</ele>
        <time>2019-05-17T11:58:15Z</time>
      </trkpt>
      <trkpt lat="39.70529" lon="-8.57549">
        <ele>148.18</ele>
        <time>2019-05-17T11:58:31Z</time>
      </trkpt>
      <trkpt lat="39.70534" lon="-8.57543">
        <ele>148.18</ele>
        <time>2019-05-17T11:58:37Z</time>
      </trkpt>
      <trkpt lat="39.70541" lon="-8.57524">
        <ele>149.62</ele>
        <time>2019-05-17T11:58:52Z</time>
      </trkpt>
      <trkpt lat="39.70542" lon="-8.57522">
        <ele>149.14</ele>
        <time>2019-05-17T11:59:09Z</time>
      </trkpt>
      <trkpt lat="39.70542" lon="-8.57521">
        <ele>148.66</ele>
        <time>2019-05-17T11:59:10Z</time>
      </trkpt>
      <trkpt lat="39.70543" lon="-8.57518">
        <ele>149.14</ele>
        <time>2019-05-17T11:59:12Z</time>
      </trkpt>
      <trkpt lat="39.70544" lon="-8.57499">
        <ele>151.06</ele>
        <time>2019-05-17T11:59:28Z</time>
      </trkpt>
      <trkpt lat="39.70545" lon="-8.57489">
        <ele>151.54</ele>
        <time>2019-05-17T11:59:35Z</time>
      </trkpt>
      <trkpt lat="39.70552" lon="-8.57471">
        <ele>152.99</ele>
        <time>2019-05-17T11:59:50Z</time>
      </trkpt>
      <trkpt lat="39.70562" lon="-8.57462">
        <ele>153.95</ele>
        <time>2019-05-17T12:00:06Z</time>
      </trkpt>
      <trkpt lat="39.70571" lon="-8.57456">
        <ele>154.91</ele>
        <time>2019-05-17T12:00:19Z</time>
      </trkpt>
      <trkpt lat="39.70579" lon="-8.57451">
        <ele>157.79</ele>
        <time>2019-05-17T12:00:33Z</time>
      </trkpt>
      <trkpt lat="39.7059" lon="-8.57448">
        <ele>158.75</ele>
        <time>2019-05-17T12:00:47Z</time>
      </trkpt>
      <trkpt lat="39.7059" lon="-8.57447">
        <ele>158.75</ele>
        <time>2019-05-17T12:00:48Z</time>
      </trkpt>
      <trkpt lat="39.706" lon="-8.57441">
        <ele>161.64</ele>
        <time>2019-05-17T12:01:03Z</time>
      </trkpt>
      <trkpt lat="39.70611" lon="-8.57435">
        <ele>163.08</ele>
        <time>2019-05-17T12:01:19Z</time>
      </trkpt>
      <trkpt lat="39.70623" lon="-8.57433">
        <ele>165.48</ele>
        <time>2019-05-17T12:01:33Z</time>
      </trkpt>
      <trkpt lat="39.70639" lon="-8.5743">
        <ele>167.41</ele>
        <time>2019-05-17T12:01:49Z</time>
      </trkpt>
      <trkpt lat="39.70653" lon="-8.57429">
        <ele>168.37</ele>
        <time>2019-05-17T12:02:04Z</time>
      </trkpt>
      <trkpt lat="39.70655" lon="-8.57429">
        <ele>168.37</ele>
        <time>2019-05-17T12:02:06Z</time>
      </trkpt>
      <trkpt lat="39.70667" lon="-8.57421">
        <ele>170.77</ele>
        <time>2019-05-17T12:02:20Z</time>
      </trkpt>
      <trkpt lat="39.70675" lon="-8.57405">
        <ele>171.73</ele>
        <time>2019-05-17T12:02:36Z</time>
      </trkpt>
      <trkpt lat="39.70674" lon="-8.57396">
        <ele>171.73</ele>
        <time>2019-05-17T12:02:51Z</time>
      </trkpt>
      <trkpt lat="39.70675" lon="-8.57383">
        <ele>171.25</ele>
        <time>2019-05-17T12:03:01Z</time>
      </trkpt>
      <trkpt lat="39.70678" lon="-8.5736">
        <ele>170.29</ele>
        <time>2019-05-17T12:03:18Z</time>
      </trkpt>
      <trkpt lat="39.70678" lon="-8.5734">
        <ele>170.77</ele>
        <time>2019-05-17T12:03:32Z</time>
      </trkpt>
      <trkpt lat="39.70674" lon="-8.57332">
        <ele>170.77</ele>
        <time>2019-05-17T12:03:39Z</time>
      </trkpt>
      <trkpt lat="39.70664" lon="-8.5731">
        <ele>172.21</ele>
        <time>2019-05-17T12:03:58Z</time>
      </trkpt>
      <trkpt lat="39.70662" lon="-8.57298">
        <ele>174.14</ele>
        <time>2019-05-17T12:04:09Z</time>
      </trkpt>
      <trkpt lat="39.70658" lon="-8.57274">
        <ele>174.62</ele>
        <time>2019-05-17T12:04:25Z</time>
      </trkpt>
      <trkpt lat="39.70653" lon="-8.57254">
        <ele>174.62</ele>
        <time>2019-05-17T12:04:39Z</time>
      </trkpt>
      <trkpt lat="39.70639" lon="-8.57228">
        <ele>174.62</ele>
        <time>2019-05-17T12:04:56Z</time>
      </trkpt>
      <trkpt lat="39.70632" lon="-8.57216">
        <ele>174.14</ele>
        <time>2019-05-17T12:05:11Z</time>
      </trkpt>
      <trkpt lat="39.70631" lon="-8.57215">
        <ele>174.14</ele>
        <time>2019-05-17T12:05:33Z</time>
      </trkpt>
      <trkpt lat="39.70631" lon="-8.57215">
        <ele>174.62</ele>
        <time>2019-05-17T12:06:02Z</time>
      </trkpt>
      <trkpt lat="39.70621" lon="-8.57201">
        <ele>172.69</ele>
        <time>2019-05-17T12:06:16Z</time>
      </trkpt>
      <trkpt lat="39.70609" lon="-8.57179">
        <ele>172.21</ele>
        <time>2019-05-17T12:06:31Z</time>
      </trkpt>
      <trkpt lat="39.70601" lon="-8.57159">
        <ele>171.25</ele>
        <time>2019-05-17T12:06:44Z</time>
      </trkpt>
      <trkpt lat="39.706" lon="-8.57156">
        <ele>170.77</ele>
        <time>2019-05-17T12:06:46Z</time>
      </trkpt>
      <trkpt lat="39.70601" lon="-8.57149">
        <ele>170.29</ele>
        <time>2019-05-17T12:06:59Z</time>
      </trkpt>
      <trkpt lat="39.70607" lon="-8.57125">
        <ele>169.33</ele>
        <time>2019-05-17T12:07:16Z</time>
      </trkpt>
      <trkpt lat="39.7061" lon="-8.57117">
        <ele>169.33</ele>
        <time>2019-05-17T12:07:21Z</time>
      </trkpt>
      <trkpt lat="39.70617" lon="-8.57099">
        <ele>167.89</ele>
        <time>2019-05-17T12:07:38Z</time>
      </trkpt>
      <trkpt lat="39.7062" lon="-8.57092">
        <ele>168.37</ele>
        <time>2019-05-17T12:07:44Z</time>
      </trkpt>
      <trkpt lat="39.70626" lon="-8.57074">
        <ele>168.37</ele>
        <time>2019-05-17T12:07:55Z</time>
      </trkpt>
      <trkpt lat="39.70633" lon="-8.57049">
        <ele>167.41</ele>
        <time>2019-05-17T12:08:11Z</time>
      </trkpt>
      <trkpt lat="39.70633" lon="-8.57042">
        <ele>167.41</ele>
        <time>2019-05-17T12:08:16Z</time>
      </trkpt>
      <trkpt lat="39.70635" lon="-8.57036">
        <ele>167.41</ele>
        <time>2019-05-17T12:08:20Z</time>
      </trkpt>
      <trkpt lat="39.70633" lon="-8.5702">
        <ele>168.37</ele>
        <time>2019-05-17T12:08:33Z</time>
      </trkpt>
      <trkpt lat="39.70633" lon="-8.57018">
        <ele>168.85</ele>
        <time>2019-05-17T12:08:35Z</time>
      </trkpt>
      <trkpt lat="39.70623" lon="-8.5699">
        <ele>167.89</ele>
        <time>2019-05-17T12:08:52Z</time>
      </trkpt>
      <trkpt lat="39.70613" lon="-8.56971">
        <ele>167.41</ele>
        <time>2019-05-17T12:09:06Z</time>
      </trkpt>
      <trkpt lat="39.70595" lon="-8.56963">
        <ele>165.96</ele>
        <time>2019-05-17T12:09:21Z</time>
      </trkpt>
      <trkpt lat="39.70582" lon="-8.56961">
        <ele>165.48</ele>
        <time>2019-05-17T12:09:32Z</time>
      </trkpt>
      <trkpt lat="39.70576" lon="-8.56958">
        <ele>165.96</ele>
        <time>2019-05-17T12:09:38Z</time>
      </trkpt>
      <trkpt lat="39.70575" lon="-8.56955">
        <ele>165.96</ele>
        <time>2019-05-17T12:09:40Z</time>
      </trkpt>
      <trkpt lat="39.70575" lon="-8.56946">
        <ele>165</ele>
        <time>2019-05-17T12:09:55Z</time>
      </trkpt>
      <trkpt lat="39.70577" lon="-8.56926">
        <ele>162.6</ele>
        <time>2019-05-17T12:10:10Z</time>
      </trkpt>
      <trkpt lat="39.70585" lon="-8.56908">
        <ele>159.72</ele>
        <time>2019-05-17T12:10:24Z</time>
      </trkpt>
      <trkpt lat="39.7059" lon="-8.56884">
        <ele>157.31</ele>
        <time>2019-05-17T12:10:38Z</time>
      </trkpt>
      <trkpt lat="39.70594" lon="-8.56853">
        <ele>154.43</ele>
        <time>2019-05-17T12:10:54Z</time>
      </trkpt>
      <trkpt lat="39.70594" lon="-8.56845">
        <ele>153.47</ele>
        <time>2019-05-17T12:11:07Z</time>
      </trkpt>
      <trkpt lat="39.70594" lon="-8.56844">
        <ele>152.99</ele>
        <time>2019-05-17T12:11:09Z</time>
      </trkpt>
      <trkpt lat="39.70593" lon="-8.56835">
        <ele>157.79</ele>
        <time>2019-05-17T12:11:16Z</time>
      </trkpt>
      <trkpt lat="39.70593" lon="-8.56833">
        <ele>153.95</ele>
        <time>2019-05-17T12:11:18Z</time>
      </trkpt>
      <trkpt lat="39.70592" lon="-8.5683">
        <ele>154.43</ele>
        <time>2019-05-17T12:11:20Z</time>
      </trkpt>
      <trkpt lat="39.70589" lon="-8.56826">
        <ele>154.91</ele>
        <time>2019-05-17T12:11:23Z</time>
      </trkpt>
      <trkpt lat="39.70574" lon="-8.56815">
        <ele>156.35</ele>
        <time>2019-05-17T12:11:38Z</time>
      </trkpt>
      <trkpt lat="39.70553" lon="-8.56809">
        <ele>157.31</ele>
        <time>2019-05-17T12:11:54Z</time>
      </trkpt>
      <trkpt lat="39.70538" lon="-8.568">
        <ele>155.87</ele>
        <time>2019-05-17T12:12:06Z</time>
      </trkpt>
      <trkpt lat="39.70519" lon="-8.5679">
        <ele>154.91</ele>
        <time>2019-05-17T12:12:21Z</time>
      </trkpt>
      <trkpt lat="39.70503" lon="-8.56782">
        <ele>153.95</ele>
        <time>2019-05-17T12:12:33Z</time>
      </trkpt>
      <trkpt lat="39.70491" lon="-8.56772">
        <ele>155.39</ele>
        <time>2019-05-17T12:12:47Z</time>
      </trkpt>
      <trkpt lat="39.70474" lon="-8.56762">
        <ele>156.35</ele>
        <time>2019-05-17T12:13:04Z</time>
      </trkpt>
      <trkpt lat="39.70461" lon="-8.56748">
        <ele>157.79</ele>
        <time>2019-05-17T12:13:19Z</time>
      </trkpt>
      <trkpt lat="39.70452" lon="-8.56735">
        <ele>159.72</ele>
        <time>2019-05-17T12:13:34Z</time>
      </trkpt>
      <trkpt lat="39.70443" lon="-8.56722">
        <ele>161.64</ele>
        <time>2019-05-17T12:13:50Z</time>
      </trkpt>
      <trkpt lat="39.7044" lon="-8.56719">
        <ele>162.12</ele>
        <time>2019-05-17T12:14:03Z</time>
      </trkpt>
      <trkpt lat="39.70439" lon="-8.56713">
        <ele>162.6</ele>
        <time>2019-05-17T12:14:31Z</time>
      </trkpt>
      <trkpt lat="39.70434" lon="-8.56699">
        <ele>165.96</ele>
        <time>2019-05-17T12:14:46Z</time>
      </trkpt>
      <trkpt lat="39.70432" lon="-8.56682">
        <ele>167.41</ele>
        <time>2019-05-17T12:15:01Z</time>
      </trkpt>
      <trkpt lat="39.70431" lon="-8.56661">
        <ele>169.81</ele>
        <time>2019-05-17T12:15:18Z</time>
      </trkpt>
      <trkpt lat="39.70431" lon="-8.56645">
        <ele>172.21</ele>
        <time>2019-05-17T12:15:32Z</time>
      </trkpt>
      <trkpt lat="39.70432" lon="-8.56644">
        <ele>172.21</ele>
        <time>2019-05-17T12:15:35Z</time>
      </trkpt>
      <trkpt lat="39.7044" lon="-8.5663">
        <ele>173.66</ele>
        <time>2019-05-17T12:15:50Z</time>
      </trkpt>
      <trkpt lat="39.70452" lon="-8.56618">
        <ele>174.62</ele>
        <time>2019-05-17T12:16:07Z</time>
      </trkpt>
      <trkpt lat="39.70466" lon="-8.56606">
        <ele>176.06</ele>
        <time>2019-05-17T12:16:24Z</time>
      </trkpt>
      <trkpt lat="39.70478" lon="-8.56591">
        <ele>177.02</ele>
        <time>2019-05-17T12:16:40Z</time>
      </trkpt>
      <trkpt lat="39.70488" lon="-8.56578">
        <ele>177.5</ele>
        <time>2019-05-17T12:16:53Z</time>
      </trkpt>
      <trkpt lat="39.705" lon="-8.56562">
        <ele>178.94</ele>
        <time>2019-05-17T12:17:09Z</time>
      </trkpt>
      <trkpt lat="39.70506" lon="-8.56545">
        <ele>179.9</ele>
        <time>2019-05-17T12:17:24Z</time>
      </trkpt>
      <trkpt lat="39.70516" lon="-8.56532">
        <ele>180.38</ele>
        <time>2019-05-17T12:17:36Z</time>
      </trkpt>
      <trkpt lat="39.70531" lon="-8.56517">
        <ele>180.87</ele>
        <time>2019-05-17T12:17:52Z</time>
      </trkpt>
      <trkpt lat="39.70538" lon="-8.56513">
        <ele>179.9</ele>
        <time>2019-05-17T12:17:58Z</time>
      </trkpt>
      <trkpt lat="39.70548" lon="-8.56497">
        <ele>181.35</ele>
        <time>2019-05-17T12:18:12Z</time>
      </trkpt>
      <trkpt lat="39.7055" lon="-8.56494">
        <ele>180.87</ele>
        <time>2019-05-17T12:18:15Z</time>
      </trkpt>
      <trkpt lat="39.70564" lon="-8.56475">
        <ele>181.83</ele>
        <time>2019-05-17T12:18:31Z</time>
      </trkpt>
      <trkpt lat="39.70577" lon="-8.56458">
        <ele>181.35</ele>
        <time>2019-05-17T12:18:46Z</time>
      </trkpt>
      <trkpt lat="39.70585" lon="-8.56446">
        <ele>182.31</ele>
        <time>2019-05-17T12:19:03Z</time>
      </trkpt>
      <trkpt lat="39.70587" lon="-8.56444">
        <ele>180.38</ele>
        <time>2019-05-17T12:19:06Z</time>
      </trkpt>
      <trkpt lat="39.70588" lon="-8.56443">
        <ele>182.31</ele>
        <time>2019-05-17T12:19:12Z</time>
      </trkpt>
      <trkpt lat="39.70591" lon="-8.56438">
        <ele>180.87</ele>
        <time>2019-05-17T12:19:18Z</time>
      </trkpt>
      <trkpt lat="39.70598" lon="-8.56427">
        <ele>180.87</ele>
        <time>2019-05-17T12:19:30Z</time>
      </trkpt>
      <trkpt lat="39.70601" lon="-8.56424">
        <ele>180.87</ele>
        <time>2019-05-17T12:19:33Z</time>
      </trkpt>
      <trkpt lat="39.70604" lon="-8.56423">
        <ele>181.83</ele>
        <time>2019-05-17T12:19:35Z</time>
      </trkpt>
      <trkpt lat="39.70607" lon="-8.56421">
        <ele>182.31</ele>
        <time>2019-05-17T12:19:38Z</time>
      </trkpt>
      <trkpt lat="39.70614" lon="-8.56414">
        <ele>181.83</ele>
        <time>2019-05-17T12:19:46Z</time>
      </trkpt>
      <trkpt lat="39.70622" lon="-8.56409">
        <ele>183.27</ele>
        <time>2019-05-17T12:19:53Z</time>
      </trkpt>
      <trkpt lat="39.70635" lon="-8.56399">
        <ele>182.31</ele>
        <time>2019-05-17T12:20:07Z</time>
      </trkpt>
      <trkpt lat="39.7065" lon="-8.56381">
        <ele>183.27</ele>
        <time>2019-05-17T12:20:24Z</time>
      </trkpt>
      <trkpt lat="39.70661" lon="-8.56361">
        <ele>184.23</ele>
        <time>2019-05-17T12:20:40Z</time>
      </trkpt>
      <trkpt lat="39.70664" lon="-8.56353">
        <ele>185.19</ele>
        <time>2019-05-17T12:20:46Z</time>
      </trkpt>
      <trkpt lat="39.70664" lon="-8.5635">
        <ele>185.67</ele>
        <time>2019-05-17T12:20:48Z</time>
      </trkpt>
      <trkpt lat="39.70668" lon="-8.56328">
        <ele>186.15</ele>
        <time>2019-05-17T12:21:03Z</time>
      </trkpt>
      <trkpt lat="39.70666" lon="-8.56304">
        <ele>187.59</ele>
        <time>2019-05-17T12:21:18Z</time>
      </trkpt>
      <trkpt lat="39.70662" lon="-8.5628">
        <ele>187.59</ele>
        <time>2019-05-17T12:21:35Z</time>
      </trkpt>
      <trkpt lat="39.70663" lon="-8.56278">
        <ele>188.08</ele>
        <time>2019-05-17T12:21:57Z</time>
      </trkpt>
      <trkpt lat="39.7066" lon="-8.56276">
        <ele>188.08</ele>
        <time>2019-05-17T12:22:25Z</time>
      </trkpt>
      <trkpt lat="39.70661" lon="-8.56277">
        <ele>187.11</ele>
        <time>2019-05-17T12:22:39Z</time>
      </trkpt>
      <trkpt lat="39.70662" lon="-8.56254">
        <ele>187.59</ele>
        <time>2019-05-17T12:22:53Z</time>
      </trkpt>
      <trkpt lat="39.70664" lon="-8.5624">
        <ele>187.59</ele>
        <time>2019-05-17T12:23:02Z</time>
      </trkpt>
      <trkpt lat="39.70667" lon="-8.5622">
        <ele>187.11</ele>
        <time>2019-05-17T12:23:17Z</time>
      </trkpt>
      <trkpt lat="39.7067" lon="-8.56207">
        <ele>187.59</ele>
        <time>2019-05-17T12:23:25Z</time>
      </trkpt>
      <trkpt lat="39.70677" lon="-8.56187">
        <ele>187.11</ele>
        <time>2019-05-17T12:23:39Z</time>
      </trkpt>
      <trkpt lat="39.70681" lon="-8.56181">
        <ele>186.63</ele>
        <time>2019-05-17T12:23:44Z</time>
      </trkpt>
      <trkpt lat="39.70685" lon="-8.56173">
        <ele>187.59</ele>
        <time>2019-05-17T12:23:50Z</time>
      </trkpt>
      <trkpt lat="39.70699" lon="-8.56155">
        <ele>186.63</ele>
        <time>2019-05-17T12:24:06Z</time>
      </trkpt>
      <trkpt lat="39.70701" lon="-8.56154">
        <ele>185.67</ele>
        <time>2019-05-17T12:24:08Z</time>
      </trkpt>
      <trkpt lat="39.70709" lon="-8.56146">
        <ele>185.19</ele>
        <time>2019-05-17T12:24:20Z</time>
      </trkpt>
      <trkpt lat="39.70712" lon="-8.56144">
        <ele>185.67</ele>
        <time>2019-05-17T12:24:23Z</time>
      </trkpt>
      <trkpt lat="39.70722" lon="-8.56125">
        <ele>184.23</ele>
        <time>2019-05-17T12:24:36Z</time>
      </trkpt>
      <trkpt lat="39.70723" lon="-8.56116">
        <ele>184.23</ele>
        <time>2019-05-17T12:24:41Z</time>
      </trkpt>
      <trkpt lat="39.70726" lon="-8.56092">
        <ele>183.75</ele>
        <time>2019-05-17T12:24:56Z</time>
      </trkpt>
      <trkpt lat="39.70728" lon="-8.56074">
        <ele>182.79</ele>
        <time>2019-05-17T12:25:07Z</time>
      </trkpt>
      <trkpt lat="39.70727" lon="-8.56048">
        <ele>183.75</ele>
        <time>2019-05-17T12:25:23Z</time>
      </trkpt>
      <trkpt lat="39.70726" lon="-8.56038">
        <ele>184.71</ele>
        <time>2019-05-17T12:25:30Z</time>
      </trkpt>
      <trkpt lat="39.70723" lon="-8.56026">
        <ele>187.59</ele>
        <time>2019-05-17T12:25:41Z</time>
      </trkpt>
      <trkpt lat="39.70719" lon="-8.56016">
        <ele>188.56</ele>
        <time>2019-05-17T12:25:51Z</time>
      </trkpt>
      <trkpt lat="39.70702" lon="-8.56003">
        <ele>189.52</ele>
        <time>2019-05-17T12:26:08Z</time>
      </trkpt>
      <trkpt lat="39.707" lon="-8.56003">
        <ele>189.52</ele>
        <time>2019-05-17T12:26:09Z</time>
      </trkpt>
      <trkpt lat="39.70686" lon="-8.55986">
        <ele>189.04</ele>
        <time>2019-05-17T12:26:25Z</time>
      </trkpt>
      <trkpt lat="39.70676" lon="-8.55968">
        <ele>189.04</ele>
        <time>2019-05-17T12:26:40Z</time>
      </trkpt>
      <trkpt lat="39.70674" lon="-8.5596">
        <ele>190</ele>
        <time>2019-05-17T12:26:46Z</time>
      </trkpt>
      <trkpt lat="39.70669" lon="-8.55951">
        <ele>189.52</ele>
        <time>2019-05-17T12:26:53Z</time>
      </trkpt>
      <trkpt lat="39.70661" lon="-8.5593">
        <ele>189.52</ele>
        <time>2019-05-17T12:27:07Z</time>
      </trkpt>
      <trkpt lat="39.70659" lon="-8.55926">
        <ele>188.56</ele>
        <time>2019-05-17T12:27:10Z</time>
      </trkpt>
      <trkpt lat="39.70654" lon="-8.55922">
        <ele>189.52</ele>
        <time>2019-05-17T12:27:24Z</time>
      </trkpt>
      <trkpt lat="39.70654" lon="-8.5592">
        <ele>188.08</ele>
        <time>2019-05-17T12:27:44Z</time>
      </trkpt>
      <trkpt lat="39.70655" lon="-8.55918">
        <ele>189.04</ele>
        <time>2019-05-17T12:27:46Z</time>
      </trkpt>
      <trkpt lat="39.70665" lon="-8.55908">
        <ele>191.44</ele>
        <time>2019-05-17T12:27:57Z</time>
      </trkpt>
      <trkpt lat="39.70677" lon="-8.559">
        <ele>192.88</ele>
        <time>2019-05-17T12:28:11Z</time>
      </trkpt>
      <trkpt lat="39.70683" lon="-8.55897">
        <ele>192.4</ele>
        <time>2019-05-17T12:28:18Z</time>
      </trkpt>
      <trkpt lat="39.70695" lon="-8.55893">
        <ele>195.77</ele>
        <time>2019-05-17T12:28:32Z</time>
      </trkpt>
      <trkpt lat="39.70706" lon="-8.55887">
        <ele>196.73</ele>
        <time>2019-05-17T12:28:45Z</time>
      </trkpt>
      <trkpt lat="39.7071" lon="-8.55886">
        <ele>198.17</ele>
        <time>2019-05-17T12:28:49Z</time>
      </trkpt>
      <trkpt lat="39.70726" lon="-8.55884">
        <ele>198.65</ele>
        <time>2019-05-17T12:29:04Z</time>
      </trkpt>
      <trkpt lat="39.70737" lon="-8.55882">
        <ele>200.09</ele>
        <time>2019-05-17T12:29:17Z</time>
      </trkpt>
      <trkpt lat="39.70747" lon="-8.55881">
        <ele>201.53</ele>
        <time>2019-05-17T12:29:30Z</time>
      </trkpt>
      <trkpt lat="39.70749" lon="-8.55882">
        <ele>201.53</ele>
        <time>2019-05-17T12:29:47Z</time>
      </trkpt>
      <trkpt lat="39.70759" lon="-8.55873">
        <ele>202.98</ele>
        <time>2019-05-17T12:30:00Z</time>
      </trkpt>
      <trkpt lat="39.70766" lon="-8.55863">
        <ele>203.94</ele>
        <time>2019-05-17T12:30:11Z</time>
      </trkpt>
      <trkpt lat="39.70775" lon="-8.55852">
        <ele>204.9</ele>
        <time>2019-05-17T12:30:26Z</time>
      </trkpt>
      <trkpt lat="39.70777" lon="-8.55848">
        <ele>197.69</ele>
        <time>2019-05-17T12:30:31Z</time>
      </trkpt>
      <trkpt lat="39.70777" lon="-8.55848">
        <ele>209.22</ele>
        <time>2019-05-17T12:30:32Z</time>
      </trkpt>
      <trkpt lat="39.70777" lon="-8.55848">
        <ele>205.38</ele>
        <time>2019-05-17T12:30:33Z</time>
      </trkpt>
      <trkpt lat="39.70778" lon="-8.55847">
        <ele>204.42</ele>
        <time>2019-05-17T12:30:35Z</time>
      </trkpt>
      <trkpt lat="39.70778" lon="-8.55847">
        <ele>197.69</ele>
        <time>2019-05-17T12:30:36Z</time>
      </trkpt>
      <trkpt lat="39.70778" lon="-8.55846">
        <ele>207.78</ele>
        <time>2019-05-17T12:30:37Z</time>
      </trkpt>
      <trkpt lat="39.70779" lon="-8.55845">
        <ele>204.42</ele>
        <time>2019-05-17T12:30:38Z</time>
      </trkpt>
      <trkpt lat="39.70789" lon="-8.55833">
        <ele>205.86</ele>
        <time>2019-05-17T12:30:53Z</time>
      </trkpt>
      <trkpt lat="39.70792" lon="-8.55828">
        <ele>206.82</ele>
        <time>2019-05-17T12:31:07Z</time>
      </trkpt>
      <trkpt lat="39.70799" lon="-8.5582">
        <ele>207.3</ele>
        <time>2019-05-17T12:31:23Z</time>
      </trkpt>
      <trkpt lat="39.70802" lon="-8.55817">
        <ele>208.26</ele>
        <time>2019-05-17T12:31:54Z</time>
      </trkpt>
      <trkpt lat="39.70806" lon="-8.55807">
        <ele>208.26</ele>
        <time>2019-05-17T12:32:19Z</time>
      </trkpt>
      <trkpt lat="39.70809" lon="-8.55807">
        <ele>209.22</ele>
        <time>2019-05-17T12:32:34Z</time>
      </trkpt>
      <trkpt lat="39.70816" lon="-8.55803">
        <ele>210.67</ele>
        <time>2019-05-17T12:32:49Z</time>
      </trkpt>
      <trkpt lat="39.70821" lon="-8.55799">
        <ele>211.15</ele>
        <time>2019-05-17T12:33:08Z</time>
      </trkpt>
      <trkpt lat="39.70829" lon="-8.55796">
        <ele>212.11</ele>
        <time>2019-05-17T12:33:24Z</time>
      </trkpt>
      <trkpt lat="39.70836" lon="-8.55789">
        <ele>212.59</ele>
        <time>2019-05-17T12:33:52Z</time>
      </trkpt>
      <trkpt lat="39.70845" lon="-8.55781">
        <ele>214.03</ele>
        <time>2019-05-17T12:34:06Z</time>
      </trkpt>
      <trkpt lat="39.70852" lon="-8.55773">
        <ele>214.03</ele>
        <time>2019-05-17T12:34:20Z</time>
      </trkpt>
      <trkpt lat="39.70852" lon="-8.55765">
        <ele>214.51</ele>
        <time>2019-05-17T12:34:38Z</time>
      </trkpt>
      <trkpt lat="39.70858" lon="-8.55757">
        <ele>214.51</ele>
        <time>2019-05-17T12:34:49Z</time>
      </trkpt>
      <trkpt lat="39.70868" lon="-8.55746">
        <ele>217.4</ele>
        <time>2019-05-17T12:35:03Z</time>
      </trkpt>
      <trkpt lat="39.70868" lon="-8.55745">
        <ele>217.4</ele>
        <time>2019-05-17T12:35:04Z</time>
      </trkpt>
      <trkpt lat="39.70875" lon="-8.55733">
        <ele>218.84</ele>
        <time>2019-05-17T12:35:18Z</time>
      </trkpt>
      <trkpt lat="39.70879" lon="-8.55721">
        <ele>221.24</ele>
        <time>2019-05-17T12:35:32Z</time>
      </trkpt>
      <trkpt lat="39.70888" lon="-8.55699">
        <ele>222.68</ele>
        <time>2019-05-17T12:35:47Z</time>
      </trkpt>
      <trkpt lat="39.70894" lon="-8.55681">
        <ele>223.16</ele>
        <time>2019-05-17T12:36:00Z</time>
      </trkpt>
      <trkpt lat="39.70896" lon="-8.55673">
        <ele>223.64</ele>
        <time>2019-05-17T12:36:06Z</time>
      </trkpt>
      <trkpt lat="39.70903" lon="-8.55653">
        <ele>224.12</ele>
        <time>2019-05-17T12:36:20Z</time>
      </trkpt>
      <trkpt lat="39.70908" lon="-8.55643">
        <ele>224.12</ele>
        <time>2019-05-17T12:36:35Z</time>
      </trkpt>
      <trkpt lat="39.70909" lon="-8.55637">
        <ele>223.64</ele>
        <time>2019-05-17T12:36:40Z</time>
      </trkpt>
      <trkpt lat="39.7091" lon="-8.55627">
        <ele>223.16</ele>
        <time>2019-05-17T12:36:46Z</time>
      </trkpt>
      <trkpt lat="39.70915" lon="-8.55608">
        <ele>224.12</ele>
        <time>2019-05-17T12:36:59Z</time>
      </trkpt>
      <trkpt lat="39.70915" lon="-8.55605">
        <ele>223.64</ele>
        <time>2019-05-17T12:37:01Z</time>
      </trkpt>
      <trkpt lat="39.70917" lon="-8.55591">
        <ele>223.64</ele>
        <time>2019-05-17T12:37:12Z</time>
      </trkpt>
      <trkpt lat="39.70919" lon="-8.55572">
        <ele>223.16</ele>
        <time>2019-05-17T12:37:26Z</time>
      </trkpt>
      <trkpt lat="39.70919" lon="-8.5555">
        <ele>223.64</ele>
        <time>2019-05-17T12:37:40Z</time>
      </trkpt>
      <trkpt lat="39.70919" lon="-8.55538">
        <ele>223.16</ele>
        <time>2019-05-17T12:37:47Z</time>
      </trkpt>
      <trkpt lat="39.70919" lon="-8.55513">
        <ele>223.16</ele>
        <time>2019-05-17T12:38:00Z</time>
      </trkpt>
      <trkpt lat="39.7092" lon="-8.55499">
        <ele>223.16</ele>
        <time>2019-05-17T12:38:08Z</time>
      </trkpt>
      <trkpt lat="39.70918" lon="-8.55477">
        <ele>223.64</ele>
        <time>2019-05-17T12:38:22Z</time>
      </trkpt>
      <trkpt lat="39.70915" lon="-8.55463">
        <ele>224.12</ele>
        <time>2019-05-17T12:38:33Z</time>
      </trkpt>
      <trkpt lat="39.70909" lon="-8.5544">
        <ele>223.16</ele>
        <time>2019-05-17T12:38:48Z</time>
      </trkpt>
      <trkpt lat="39.70903" lon="-8.55417">
        <ele>223.64</ele>
        <time>2019-05-17T12:39:02Z</time>
      </trkpt>
      <trkpt lat="39.70895" lon="-8.55391">
        <ele>222.68</ele>
        <time>2019-05-17T12:39:18Z</time>
      </trkpt>
      <trkpt lat="39.70888" lon="-8.55368">
        <ele>223.16</ele>
        <time>2019-05-17T12:39:33Z</time>
      </trkpt>
      <trkpt lat="39.70883" lon="-8.55353">
        <ele>222.68</ele>
        <time>2019-05-17T12:39:43Z</time>
      </trkpt>
      <trkpt lat="39.70875" lon="-8.5533">
        <ele>222.68</ele>
        <time>2019-05-17T12:39:57Z</time>
      </trkpt>
      <trkpt lat="39.70875" lon="-8.55329">
        <ele>222.2</ele>
        <time>2019-05-17T12:39:58Z</time>
      </trkpt>
      <trkpt lat="39.70869" lon="-8.55312">
        <ele>222.2</ele>
        <time>2019-05-17T12:40:11Z</time>
      </trkpt>
      <trkpt lat="39.70864" lon="-8.55295">
        <ele>220.28</ele>
        <time>2019-05-17T12:40:23Z</time>
      </trkpt>
      <trkpt lat="39.7086" lon="-8.55276">
        <ele>219.8</ele>
        <time>2019-05-17T12:40:37Z</time>
      </trkpt>
      <trkpt lat="39.70855" lon="-8.55257">
        <ele>219.8</ele>
        <time>2019-05-17T12:40:50Z</time>
      </trkpt>
      <trkpt lat="39.70847" lon="-8.55232">
        <ele>218.84</ele>
        <time>2019-05-17T12:41:06Z</time>
      </trkpt>
      <trkpt lat="39.70844" lon="-8.55217">
        <ele>219.8</ele>
        <time>2019-05-17T12:41:17Z</time>
      </trkpt>
      <trkpt lat="39.70841" lon="-8.55203">
        <ele>218.36</ele>
        <time>2019-05-17T12:41:27Z</time>
      </trkpt>
      <trkpt lat="39.70841" lon="-8.55198">
        <ele>217.88</ele>
        <time>2019-05-17T12:41:30Z</time>
      </trkpt>
      <trkpt lat="39.70838" lon="-8.55188">
        <ele>217.4</ele>
        <time>2019-05-17T12:41:36Z</time>
      </trkpt>
      <trkpt lat="39.70837" lon="-8.55185">
        <ele>217.4</ele>
        <time>2019-05-17T12:41:38Z</time>
      </trkpt>
      <trkpt lat="39.70839" lon="-8.55178">
        <ele>216.43</ele>
        <time>2019-05-17T12:41:47Z</time>
      </trkpt>
      <trkpt lat="39.7084" lon="-8.55176">
        <ele>217.4</ele>
        <time>2019-05-17T12:41:49Z</time>
      </trkpt>
      <trkpt lat="39.70852" lon="-8.55162">
        <ele>215.95</ele>
        <time>2019-05-17T12:42:03Z</time>
      </trkpt>
      <trkpt lat="39.70861" lon="-8.55148">
        <ele>214.51</ele>
        <time>2019-05-17T12:42:15Z</time>
      </trkpt>
      <trkpt lat="39.70863" lon="-8.55142">
        <ele>212.59</ele>
        <time>2019-05-17T12:42:19Z</time>
      </trkpt>
      <trkpt lat="39.70866" lon="-8.55137">
        <ele>213.07</ele>
        <time>2019-05-17T12:42:24Z</time>
      </trkpt>
      <trkpt lat="39.70868" lon="-8.5513">
        <ele>212.11</ele>
        <time>2019-05-17T12:42:29Z</time>
      </trkpt>
      <trkpt lat="39.7087" lon="-8.55127">
        <ele>212.11</ele>
        <time>2019-05-17T12:42:31Z</time>
      </trkpt>
      <trkpt lat="39.70874" lon="-8.55122">
        <ele>210.67</ele>
        <time>2019-05-17T12:42:36Z</time>
      </trkpt>
      <trkpt lat="39.70886" lon="-8.55119">
        <ele>208.26</ele>
        <time>2019-05-17T12:42:49Z</time>
      </trkpt>
      <trkpt lat="39.7089" lon="-8.55124">
        <ele>208.26</ele>
        <time>2019-05-17T12:42:54Z</time>
      </trkpt>
      <trkpt lat="39.70892" lon="-8.5513">
        <ele>206.34</ele>
        <time>2019-05-17T12:42:59Z</time>
      </trkpt>
      <trkpt lat="39.70895" lon="-8.55151">
        <ele>205.86</ele>
        <time>2019-05-17T12:43:13Z</time>
      </trkpt>
      <trkpt lat="39.70898" lon="-8.5517">
        <ele>204.42</ele>
        <time>2019-05-17T12:43:24Z</time>
      </trkpt>
      <trkpt lat="39.70901" lon="-8.55183">
        <ele>204.42</ele>
        <time>2019-05-17T12:43:33Z</time>
      </trkpt>
      <trkpt lat="39.70905" lon="-8.55197">
        <ele>204.42</ele>
        <time>2019-05-17T12:43:49Z</time>
      </trkpt>
      <trkpt lat="39.70906" lon="-8.55198">
        <ele>204.42</ele>
        <time>2019-05-17T12:43:50Z</time>
      </trkpt>
      <trkpt lat="39.70911" lon="-8.55216">
        <ele>204.42</ele>
        <time>2019-05-17T12:44:03Z</time>
      </trkpt>
      <trkpt lat="39.70917" lon="-8.55233">
        <ele>204.42</ele>
        <time>2019-05-17T12:44:14Z</time>
      </trkpt>
      <trkpt lat="39.70931" lon="-8.55244">
        <ele>202.01</ele>
        <time>2019-05-17T12:44:27Z</time>
      </trkpt>
      <trkpt lat="39.70933" lon="-8.55245">
        <ele>202.01</ele>
        <time>2019-05-17T12:44:29Z</time>
      </trkpt>
      <trkpt lat="39.70941" lon="-8.55247">
        <ele>201.53</ele>
        <time>2019-05-17T12:44:36Z</time>
      </trkpt>
      <trkpt lat="39.70954" lon="-8.55248">
        <ele>199.13</ele>
        <time>2019-05-17T12:44:51Z</time>
      </trkpt>
      <trkpt lat="39.70956" lon="-8.55249">
        <ele>198.17</ele>
        <time>2019-05-17T12:44:54Z</time>
      </trkpt>
      <trkpt lat="39.70965" lon="-8.55257">
        <ele>196.25</ele>
        <time>2019-05-17T12:45:07Z</time>
      </trkpt>
      <trkpt lat="39.70973" lon="-8.55264">
        <ele>193.36</ele>
        <time>2019-05-17T12:45:20Z</time>
      </trkpt>
      <trkpt lat="39.70977" lon="-8.55267">
        <ele>191.92</ele>
        <time>2019-05-17T12:45:25Z</time>
      </trkpt>
      <trkpt lat="39.70983" lon="-8.55271">
        <ele>190.48</ele>
        <time>2019-05-17T12:45:31Z</time>
      </trkpt>
      <trkpt lat="39.70985" lon="-8.55272">
        <ele>190.48</ele>
        <time>2019-05-17T12:45:33Z</time>
      </trkpt>
      <trkpt lat="39.70995" lon="-8.55278">
        <ele>188.56</ele>
        <time>2019-05-17T12:45:44Z</time>
      </trkpt>
      <trkpt lat="39.70996" lon="-8.55279">
        <ele>189.04</ele>
        <time>2019-05-17T12:45:45Z</time>
      </trkpt>
      <trkpt lat="39.71001" lon="-8.55283">
        <ele>188.56</ele>
        <time>2019-05-17T12:45:50Z</time>
      </trkpt>
      <trkpt lat="39.71002" lon="-8.55287">
        <ele>187.59</ele>
        <time>2019-05-17T12:45:53Z</time>
      </trkpt>
      <trkpt lat="39.71017" lon="-8.55304">
        <ele>185.19</ele>
        <time>2019-05-17T12:46:08Z</time>
      </trkpt>
      <trkpt lat="39.71027" lon="-8.55315">
        <ele>183.75</ele>
        <time>2019-05-17T12:46:19Z</time>
      </trkpt>
      <trkpt lat="39.7103" lon="-8.55317">
        <ele>183.75</ele>
        <time>2019-05-17T12:46:22Z</time>
      </trkpt>
      <trkpt lat="39.71039" lon="-8.55325">
        <ele>182.31</ele>
        <time>2019-05-17T12:46:34Z</time>
      </trkpt>
      <trkpt lat="39.71046" lon="-8.55328">
        <ele>182.79</ele>
        <time>2019-05-17T12:46:40Z</time>
      </trkpt>
      <trkpt lat="39.71063" lon="-8.55329">
        <ele>181.83</ele>
        <time>2019-05-17T12:46:52Z</time>
      </trkpt>
      <trkpt lat="39.71078" lon="-8.55333">
        <ele>179.9</ele>
        <time>2019-05-17T12:47:03Z</time>
      </trkpt>
      <trkpt lat="39.71091" lon="-8.55336">
        <ele>177.02</ele>
        <time>2019-05-17T12:47:14Z</time>
      </trkpt>
      <trkpt lat="39.71093" lon="-8.55336">
        <ele>176.54</ele>
        <time>2019-05-17T12:47:16Z</time>
      </trkpt>
      <trkpt lat="39.71105" lon="-8.55328">
        <ele>173.17</ele>
        <time>2019-05-17T12:47:28Z</time>
      </trkpt>
      <trkpt lat="39.71106" lon="-8.55326">
        <ele>173.17</ele>
        <time>2019-05-17T12:47:30Z</time>
      </trkpt>
      <trkpt lat="39.7111" lon="-8.55309">
        <ele>171.25</ele>
        <time>2019-05-17T12:47:43Z</time>
      </trkpt>
      <trkpt lat="39.71104" lon="-8.55291">
        <ele>169.33</ele>
        <time>2019-05-17T12:47:55Z</time>
      </trkpt>
      <trkpt lat="39.71093" lon="-8.55274">
        <ele>166.93</ele>
        <time>2019-05-17T12:48:08Z</time>
      </trkpt>
      <trkpt lat="39.71091" lon="-8.55272">
        <ele>167.41</ele>
        <time>2019-05-17T12:48:10Z</time>
      </trkpt>
      <trkpt lat="39.71086" lon="-8.5526">
        <ele>166.45</ele>
        <time>2019-05-17T12:48:18Z</time>
      </trkpt>
      <trkpt lat="39.71084" lon="-8.55259">
        <ele>166.45</ele>
        <time>2019-05-17T12:48:20Z</time>
      </trkpt>
      <trkpt lat="39.7108" lon="-8.55252">
        <ele>165.96</ele>
        <time>2019-05-17T12:48:26Z</time>
      </trkpt>
      <trkpt lat="39.71075" lon="-8.55245">
        <ele>166.45</ele>
        <time>2019-05-17T12:48:32Z</time>
      </trkpt>
      <trkpt lat="39.71066" lon="-8.55227">
        <ele>165</ele>
        <time>2019-05-17T12:48:44Z</time>
      </trkpt>
      <trkpt lat="39.71067" lon="-8.55226">
        <ele>164.52</ele>
        <time>2019-05-17T12:48:59Z</time>
      </trkpt>
      <trkpt lat="39.71066" lon="-8.55226">
        <ele>164.52</ele>
        <time>2019-05-17T12:49:03Z</time>
      </trkpt>
      <trkpt lat="39.71065" lon="-8.55209">
        <ele>163.08</ele>
        <time>2019-05-17T12:49:15Z</time>
      </trkpt>
      <trkpt lat="39.71065" lon="-8.55208">
        <ele>162.12</ele>
        <time>2019-05-17T12:49:16Z</time>
      </trkpt>
      <trkpt lat="39.71065" lon="-8.55202">
        <ele>162.12</ele>
        <time>2019-05-17T12:49:20Z</time>
      </trkpt>
      <trkpt lat="39.71065" lon="-8.55186">
        <ele>158.75</ele>
        <time>2019-05-17T12:49:33Z</time>
      </trkpt>
      <trkpt lat="39.7107" lon="-8.55179">
        <ele>156.83</ele>
        <time>2019-05-17T12:49:41Z</time>
      </trkpt>
      <trkpt lat="39.71074" lon="-8.55177">
        <ele>155.87</ele>
        <time>2019-05-17T12:49:45Z</time>
      </trkpt>
      <trkpt lat="39.71084" lon="-8.55168">
        <ele>152.99</ele>
        <time>2019-05-17T12:49:58Z</time>
      </trkpt>
      <trkpt lat="39.71094" lon="-8.55158">
        <ele>151.06</ele>
        <time>2019-05-17T12:50:10Z</time>
      </trkpt>
      <trkpt lat="39.71101" lon="-8.5515">
        <ele>150.1</ele>
        <time>2019-05-17T12:50:20Z</time>
      </trkpt>
      <trkpt lat="39.71101" lon="-8.55153">
        <ele>149.62</ele>
        <time>2019-05-17T12:50:34Z</time>
      </trkpt>
      <trkpt lat="39.71103" lon="-8.55156">
        <ele>150.1</ele>
        <time>2019-05-17T12:50:43Z</time>
      </trkpt>
      <trkpt lat="39.71106" lon="-8.55163">
        <ele>150.1</ele>
        <time>2019-05-17T12:50:56Z</time>
      </trkpt>
      <trkpt lat="39.71107" lon="-8.55168">
        <ele>150.1</ele>
        <time>2019-05-17T12:50:59Z</time>
      </trkpt>
      <trkpt lat="39.7111" lon="-8.55187">
        <ele>149.62</ele>
        <time>2019-05-17T12:51:12Z</time>
      </trkpt>
      <trkpt lat="39.71116" lon="-8.5521">
        <ele>147.7</ele>
        <time>2019-05-17T12:51:28Z</time>
      </trkpt>
      <trkpt lat="39.71119" lon="-8.55215">
        <ele>149.62</ele>
        <time>2019-05-17T12:51:33Z</time>
      </trkpt>
      <trkpt lat="39.7112" lon="-8.55217">
        <ele>147.7</ele>
        <time>2019-05-17T12:51:35Z</time>
      </trkpt>
      <trkpt lat="39.71123" lon="-8.55219">
        <ele>146.74</ele>
        <time>2019-05-17T12:51:38Z</time>
      </trkpt>
      <trkpt lat="39.71132" lon="-8.5523">
        <ele>145.78</ele>
        <time>2019-05-17T12:51:49Z</time>
      </trkpt>
      <trkpt lat="39.71144" lon="-8.55241">
        <ele>144.34</ele>
        <time>2019-05-17T12:52:03Z</time>
      </trkpt>
      <trkpt lat="39.71161" lon="-8.55249">
        <ele>141.45</ele>
        <time>2019-05-17T12:52:19Z</time>
      </trkpt>
      <trkpt lat="39.71172" lon="-8.55246">
        <ele>139.53</ele>
        <time>2019-05-17T12:52:27Z</time>
      </trkpt>
      <trkpt lat="39.7118" lon="-8.55227">
        <ele>138.09</ele>
        <time>2019-05-17T12:52:41Z</time>
      </trkpt>
      <trkpt lat="39.71191" lon="-8.55215">
        <ele>139.05</ele>
        <time>2019-05-17T12:52:55Z</time>
      </trkpt>
      <trkpt lat="39.71205" lon="-8.5522">
        <ele>138.09</ele>
        <time>2019-05-17T12:53:07Z</time>
      </trkpt>
      <trkpt lat="39.71206" lon="-8.55221">
        <ele>137.61</ele>
        <time>2019-05-17T12:53:08Z</time>
      </trkpt>
      <trkpt lat="39.71216" lon="-8.55227">
        <ele>138.09</ele>
        <time>2019-05-17T12:53:17Z</time>
      </trkpt>
      <trkpt lat="39.71236" lon="-8.55229">
        <ele>137.13</ele>
        <time>2019-05-17T12:53:34Z</time>
      </trkpt>
      <trkpt lat="39.71258" lon="-8.5523">
        <ele>137.13</ele>
        <time>2019-05-17T12:53:50Z</time>
      </trkpt>
      <trkpt lat="39.71274" lon="-8.55231">
        <ele>135.68</ele>
        <time>2019-05-17T12:54:03Z</time>
      </trkpt>
      <trkpt lat="39.71283" lon="-8.5523">
        <ele>137.13</ele>
        <time>2019-05-17T12:54:10Z</time>
      </trkpt>
      <trkpt lat="39.71298" lon="-8.55228">
        <ele>137.61</ele>
        <time>2019-05-17T12:54:24Z</time>
      </trkpt>
      <trkpt lat="39.71314" lon="-8.55227">
        <ele>136.64</ele>
        <time>2019-05-17T12:54:39Z</time>
      </trkpt>
      <trkpt lat="39.71336" lon="-8.55226">
        <ele>136.16</ele>
        <time>2019-05-17T12:54:55Z</time>
      </trkpt>
      <trkpt lat="39.71355" lon="-8.55223">
        <ele>136.16</ele>
        <time>2019-05-17T12:55:10Z</time>
      </trkpt>
      <trkpt lat="39.71378" lon="-8.55221">
        <ele>138.09</ele>
        <time>2019-05-17T12:55:28Z</time>
      </trkpt>
      <trkpt lat="39.71397" lon="-8.55221">
        <ele>137.13</ele>
        <time>2019-05-17T12:55:43Z</time>
      </trkpt>
      <trkpt lat="39.71405" lon="-8.5522">
        <ele>139.05</ele>
        <time>2019-05-17T12:55:55Z</time>
      </trkpt>
      <trkpt lat="39.71417" lon="-8.55202">
        <ele>137.61</ele>
        <time>2019-05-17T12:56:12Z</time>
      </trkpt>
      <trkpt lat="39.71422" lon="-8.55186">
        <ele>137.13</ele>
        <time>2019-05-17T12:56:23Z</time>
      </trkpt>
      <trkpt lat="39.71422" lon="-8.55178">
        <ele>137.61</ele>
        <time>2019-05-17T12:56:29Z</time>
      </trkpt>
      <trkpt lat="39.71419" lon="-8.55154">
        <ele>137.13</ele>
        <time>2019-05-17T12:56:45Z</time>
      </trkpt>
      <trkpt lat="39.71421" lon="-8.55143">
        <ele>137.13</ele>
        <time>2019-05-17T12:56:59Z</time>
      </trkpt>
      <trkpt lat="39.71425" lon="-8.55127">
        <ele>137.13</ele>
        <time>2019-05-17T12:57:11Z</time>
      </trkpt>
      <trkpt lat="39.71415" lon="-8.55106">
        <ele>137.13</ele>
        <time>2019-05-17T12:57:26Z</time>
      </trkpt>
      <trkpt lat="39.714" lon="-8.55091">
        <ele>136.64</ele>
        <time>2019-05-17T12:57:41Z</time>
      </trkpt>
      <trkpt lat="39.71379" lon="-8.55075">
        <ele>136.16</ele>
        <time>2019-05-17T12:58:00Z</time>
      </trkpt>
      <trkpt lat="39.71375" lon="-8.55062">
        <ele>136.64</ele>
        <time>2019-05-17T12:58:09Z</time>
      </trkpt>
      <trkpt lat="39.7137" lon="-8.55043">
        <ele>136.16</ele>
        <time>2019-05-17T12:58:22Z</time>
      </trkpt>
      <trkpt lat="39.71364" lon="-8.55022">
        <ele>136.16</ele>
        <time>2019-05-17T12:58:37Z</time>
      </trkpt>
      <trkpt lat="39.71363" lon="-8.55017">
        <ele>136.16</ele>
        <time>2019-05-17T12:58:40Z</time>
      </trkpt>
      <trkpt lat="39.71355" lon="-8.54992">
        <ele>136.16</ele>
        <time>2019-05-17T12:58:55Z</time>
      </trkpt>
      <trkpt lat="39.7135" lon="-8.5498">
        <ele>135.68</ele>
        <time>2019-05-17T12:59:04Z</time>
      </trkpt>
      <trkpt lat="39.71348" lon="-8.54977">
        <ele>135.68</ele>
        <time>2019-05-17T12:59:07Z</time>
      </trkpt>
      <trkpt lat="39.71348" lon="-8.54973">
        <ele>135.2</ele>
        <time>2019-05-17T12:59:10Z</time>
      </trkpt>
      <trkpt lat="39.71347" lon="-8.54965">
        <ele>136.16</ele>
        <time>2019-05-17T12:59:16Z</time>
      </trkpt>
      <trkpt lat="39.7135" lon="-8.54956">
        <ele>135.2</ele>
        <time>2019-05-17T12:59:22Z</time>
      </trkpt>
      <trkpt lat="39.71356" lon="-8.54942">
        <ele>135.2</ele>
        <time>2019-05-17T12:59:37Z</time>
      </trkpt>
      <trkpt lat="39.71358" lon="-8.5494">
        <ele>137.61</ele>
        <time>2019-05-17T12:59:54Z</time>
      </trkpt>
      <trkpt lat="39.71359" lon="-8.54932">
        <ele>137.13</ele>
        <time>2019-05-17T13:00:03Z</time>
      </trkpt>
      <trkpt lat="39.7136" lon="-8.5493">
        <ele>138.09</ele>
        <time>2019-05-17T13:00:05Z</time>
      </trkpt>
      <trkpt lat="39.71361" lon="-8.54927">
        <ele>138.09</ele>
        <time>2019-05-17T13:00:07Z</time>
      </trkpt>
      <trkpt lat="39.71365" lon="-8.54915">
        <ele>137.13</ele>
        <time>2019-05-17T13:00:16Z</time>
      </trkpt>
      <trkpt lat="39.71367" lon="-8.5491">
        <ele>137.13</ele>
        <time>2019-05-17T13:00:20Z</time>
      </trkpt>
      <trkpt lat="39.71367" lon="-8.54904">
        <ele>137.13</ele>
        <time>2019-05-17T13:00:23Z</time>
      </trkpt>
      <trkpt lat="39.71361" lon="-8.54885">
        <ele>136.64</ele>
        <time>2019-05-17T13:00:37Z</time>
      </trkpt>
      <trkpt lat="39.71356" lon="-8.54868">
        <ele>137.61</ele>
        <time>2019-05-17T13:00:49Z</time>
      </trkpt>
      <trkpt lat="39.71351" lon="-8.54856">
        <ele>137.61</ele>
        <time>2019-05-17T13:00:58Z</time>
      </trkpt>
      <trkpt lat="39.71351" lon="-8.54851">
        <ele>137.61</ele>
        <time>2019-05-17T13:01:01Z</time>
      </trkpt>
      <trkpt lat="39.7135" lon="-8.54844">
        <ele>137.61</ele>
        <time>2019-05-17T13:01:06Z</time>
      </trkpt>
      <trkpt lat="39.71349" lon="-8.54836">
        <ele>137.61</ele>
        <time>2019-05-17T13:01:11Z</time>
      </trkpt>
      <trkpt lat="39.71353" lon="-8.54829">
        <ele>136.64</ele>
        <time>2019-05-17T13:01:22Z</time>
      </trkpt>
      <trkpt lat="39.71353" lon="-8.54826">
        <ele>137.13</ele>
        <time>2019-05-17T13:01:31Z</time>
      </trkpt>
      <trkpt lat="39.7135" lon="-8.54831">
        <ele>137.13</ele>
        <time>2019-05-17T13:01:46Z</time>
      </trkpt>
      <trkpt lat="39.71357" lon="-8.54817">
        <ele>137.13</ele>
        <time>2019-05-17T13:01:59Z</time>
      </trkpt>
      <trkpt lat="39.71366" lon="-8.54804">
        <ele>136.64</ele>
        <time>2019-05-17T13:02:09Z</time>
      </trkpt>
      <trkpt lat="39.7138" lon="-8.54783">
        <ele>136.16</ele>
        <time>2019-05-17T13:02:26Z</time>
      </trkpt>
      <trkpt lat="39.71394" lon="-8.54765">
        <ele>136.64</ele>
        <time>2019-05-17T13:02:42Z</time>
      </trkpt>
      <trkpt lat="39.71398" lon="-8.54759">
        <ele>136.16</ele>
        <time>2019-05-17T13:02:47Z</time>
      </trkpt>
      <trkpt lat="39.71401" lon="-8.54752">
        <ele>136.16</ele>
        <time>2019-05-17T13:02:53Z</time>
      </trkpt>
      <trkpt lat="39.71405" lon="-8.54742">
        <ele>136.64</ele>
        <time>2019-05-17T13:03:00Z</time>
      </trkpt>
      <trkpt lat="39.71407" lon="-8.54719">
        <ele>137.61</ele>
        <time>2019-05-17T13:03:14Z</time>
      </trkpt>
      <trkpt lat="39.71412" lon="-8.54701">
        <ele>137.61</ele>
        <time>2019-05-17T13:03:27Z</time>
      </trkpt>
      <trkpt lat="39.71415" lon="-8.5468">
        <ele>137.61</ele>
        <time>2019-05-17T13:03:43Z</time>
      </trkpt>
      <trkpt lat="39.71422" lon="-8.54663">
        <ele>135.68</ele>
        <time>2019-05-17T13:03:55Z</time>
      </trkpt>
      <trkpt lat="39.71424" lon="-8.54656">
        <ele>136.64</ele>
        <time>2019-05-17T13:03:59Z</time>
      </trkpt>
      <trkpt lat="39.71428" lon="-8.54634">
        <ele>136.16</ele>
        <time>2019-05-17T13:04:13Z</time>
      </trkpt>
      <trkpt lat="39.7143" lon="-8.54629">
        <ele>138.09</ele>
        <time>2019-05-17T13:04:16Z</time>
      </trkpt>
      <trkpt lat="39.71434" lon="-8.54617">
        <ele>137.13</ele>
        <time>2019-05-17T13:04:24Z</time>
      </trkpt>
      <trkpt lat="39.71436" lon="-8.54611">
        <ele>137.13</ele>
        <time>2019-05-17T13:04:37Z</time>
      </trkpt>
      <trkpt lat="39.71437" lon="-8.54607">
        <ele>137.61</ele>
        <time>2019-05-17T13:04:40Z</time>
      </trkpt>
      <trkpt lat="39.71439" lon="-8.54602">
        <ele>138.09</ele>
        <time>2019-05-17T13:04:44Z</time>
      </trkpt>
      <trkpt lat="39.71435" lon="-8.54589">
        <ele>139.05</ele>
        <time>2019-05-17T13:04:54Z</time>
      </trkpt>
      <trkpt lat="39.71433" lon="-8.54586">
        <ele>139.53</ele>
        <time>2019-05-17T13:04:57Z</time>
      </trkpt>
      <trkpt lat="39.71432" lon="-8.54578">
        <ele>139.53</ele>
        <time>2019-05-17T13:05:02Z</time>
      </trkpt>
      <trkpt lat="39.71436" lon="-8.54566">
        <ele>139.05</ele>
        <time>2019-05-17T13:05:14Z</time>
      </trkpt>
      <trkpt lat="39.71426" lon="-8.54548">
        <ele>137.61</ele>
        <time>2019-05-17T13:05:30Z</time>
      </trkpt>
      <trkpt lat="39.71421" lon="-8.54538">
        <ele>138.09</ele>
        <time>2019-05-17T13:05:44Z</time>
      </trkpt>
      <trkpt lat="39.71432" lon="-8.54518">
        <ele>139.05</ele>
        <time>2019-05-17T13:06:04Z</time>
      </trkpt>
      <trkpt lat="39.71434" lon="-8.54502">
        <ele>140.97</ele>
        <time>2019-05-17T13:06:20Z</time>
      </trkpt>
      <trkpt lat="39.71434" lon="-8.54502">
        <ele>140.49</ele>
        <time>2019-05-17T13:06:32Z</time>
      </trkpt>
      <trkpt lat="39.71438" lon="-8.5451">
        <ele>141.45</ele>
        <time>2019-05-17T13:06:37Z</time>
      </trkpt>
      <trkpt lat="39.71446" lon="-8.5452">
        <ele>141.93</ele>
        <time>2019-05-17T13:06:48Z</time>
      </trkpt>
      <trkpt lat="39.71454" lon="-8.54523">
        <ele>140.01</ele>
        <time>2019-05-17T13:07:00Z</time>
      </trkpt>
      <trkpt lat="39.71455" lon="-8.54524">
        <ele>139.53</ele>
        <time>2019-05-17T13:07:01Z</time>
      </trkpt>
      <trkpt lat="39.71456" lon="-8.54529">
        <ele>140.97</ele>
        <time>2019-05-17T13:07:07Z</time>
      </trkpt>
      <trkpt lat="39.71472" lon="-8.54526">
        <ele>141.45</ele>
        <time>2019-05-17T13:07:22Z</time>
      </trkpt>
      <trkpt lat="39.7148" lon="-8.54517">
        <ele>141.45</ele>
        <time>2019-05-17T13:07:33Z</time>
      </trkpt>
      <trkpt lat="39.7148" lon="-8.54519">
        <ele>140.97</ele>
        <time>2019-05-17T13:07:47Z</time>
      </trkpt>
      <trkpt lat="39.71477" lon="-8.54517">
        <ele>140.49</ele>
        <time>2019-05-17T13:08:04Z</time>
      </trkpt>
      <trkpt lat="39.71474" lon="-8.54514">
        <ele>141.45</ele>
        <time>2019-05-17T13:08:32Z</time>
      </trkpt>
      <trkpt lat="39.71472" lon="-8.54517">
        <ele>140.49</ele>
        <time>2019-05-17T13:08:58Z</time>
      </trkpt>
      <trkpt lat="39.71473" lon="-8.54524">
        <ele>140.97</ele>
        <time>2019-05-17T13:09:16Z</time>
      </trkpt>
      <trkpt lat="39.71476" lon="-8.54518">
        <ele>140.97</ele>
        <time>2019-05-17T13:09:32Z</time>
      </trkpt>
      <trkpt lat="39.71474" lon="-8.54511">
        <ele>140.97</ele>
        <time>2019-05-17T13:09:52Z</time>
      </trkpt>
      <trkpt lat="39.71475" lon="-8.54509">
        <ele>140.97</ele>
        <time>2019-05-17T13:10:20Z</time>
      </trkpt>
      <trkpt lat="39.71478" lon="-8.54508">
        <ele>140.97</ele>
        <time>2019-05-17T13:10:34Z</time>
      </trkpt>
      <trkpt lat="39.71479" lon="-8.54507">
        <ele>141.93</ele>
        <time>2019-05-17T13:10:55Z</time>
      </trkpt>
      <trkpt lat="39.7148" lon="-8.54502">
        <ele>141.45</ele>
        <time>2019-05-17T13:11:14Z</time>
      </trkpt>
      <trkpt lat="39.71482" lon="-8.54507">
        <ele>141.45</ele>
        <time>2019-05-17T13:11:36Z</time>
      </trkpt>
      <trkpt lat="39.71481" lon="-8.54511">
        <ele>141.93</ele>
        <time>2019-05-17T13:11:51Z</time>
      </trkpt>
      <trkpt lat="39.71482" lon="-8.54502">
        <ele>141.93</ele>
        <time>2019-05-17T13:12:15Z</time>
      </trkpt>
    </trkseg>
  </trk>
</gpx>